     2              OBSERVATION DATA    GPS                 RINEX VERSION / TYPE
ASHTORIN MIT 09                                             PGM / RUN BY / DATE
                                                            COMMENT
Original Marker Name: OCTI                                  COMMENT
Campaign Name: STRC/NBC 1997                                COMMENT
4-Character Station Name: OCTI                              COMMENT
6-Character Antenna Code: DMRCHT                            COMMENT
Vertical Measurement Point: BCR                             COMMENT
Vertical Offset to Rinex Ref. Point: 0.0349                 COMMENT
Radial Measurement Point: ECF                               COMMENT
Radial Offset to Rinex Ref. Point: 0.1896                   COMMENT
Antenna Height from Field Measurement: 1.3560 m             COMMENT
Additional Antenna Identification Info.:                    COMMENT
Turborogue and Ashtech Choke Ring                           COMMENT
Original XYZ: 0.0000 0.0000 0.0000                          COMMENT
New XYZ position is based on association with SCEC monument COMMENT
E1C8V0N9+0011. Position of that monument is believed to be  COMMENT
valid to within 1 m horizontally; vertical accuracy         COMMENT
should be no worse than 3-times this value.                 COMMENT
                                                            COMMENT
Revised Rinex header created by UCSD GPS archive for        COMMENT
GSAC on 10-Apr-1999 (1999:100) 04:43:45 GMT                 COMMENT
For assistance contact dagnew@ucsd.edu or hjohnson@ucsd.edu COMMENT
                                                            COMMENT
OCOTILLO 1935                                               MARKER NAME
                                                            MARKER NUMBER
DBM UNAVCO                                                  OBSERVER / AGENCY
385 ASHTECH Z12-XII3 1E951D0                                REC # / TYPE / VERS
653 DORNE-MARGOL. TYPE T                                    ANT # / TYPE
 -2354461.0000 -4826980.0000  3429223.0000                  APPROX POSITION XYZ
        1.3078        0.0000        0.0000                  ANTENNA: DELTA H/E/N
     1     1     0                                          WAVELENGTH FACT L1/2
     7    L1    L2    C1    P1    P2    D1    D2            # / TYPES OF OBSERV
    30                                                      INTERVAL
  1997     3     3    15    24    0.000000                  TIME OF FIRST OBS
  1997     3     3    23    59   30.000000                  TIME OF LAST OBS
     0                                                      # OF SATELLITES
                                                            END OF HEADER
 97  3  3 15 24  0.0000000  0  6 22 19 18 29 14 16                   0.000000000
     93273.85519     66096.97758  21882493.565    21882492.5655   21882497.2585
        -0.000          -0.000
   -213889.24819   -150645.61257  22813995.952    22813995.3905   22814000.5885
        -0.000          -0.000
   -223844.48419   -165379.01357  22157105.349    22157104.8255   22157109.1685
        -0.000          -0.000
     19997.32819     15511.85852         0.000           0.0005          0.0005
        -0.000          -0.000
     98474.36619     69678.68252         0.000           0.0005          0.0005
        -0.000          -0.000
    -75863.37919    -55245.06959  20902588.673    20902587.7505   20902592.9275
        -0.000          -0.000
 97  3  3 15 24 30.0000000  0  6 22 19 18 29 14 16                   0.000949983
    131202.579 9     95651.82348  21889711.144    21889710.1894   21889714.9514
        -0.000          -0.000
   -298597.894 9   -216652.32747  22797876.699    22797875.8694   22797881.0464
        -0.000          -0.000
   -317007.575 9   -237973.61948  22139377.193    22139376.5284   22139380.8614
        -0.000          -0.000
     28433.33419      1281.54655         0.000           0.0005   21529034.1685
        -0.000          -0.000
    135478.48619     11689.43052         0.000           0.0005          0.0005
        -0.000          -0.000
   -103605.397 9    -76862.23649  20897309.465    20897308.6044   20897313.8114
        -0.000          -0.000
 97  3  3 15 25  0.0000000  0  6 22 19 18 29 14 16                   0.000935616
    169492.629 9    125488.22048  21896997.554    21896996.5554   21897001.3164
        -0.000          -0.000
   -383184.919 9   -282564.27747  22781780.323    22781779.4324   22781784.6674
        -0.000          -0.000
   -410171.320 9   -310568.73648  22121648.765    22121648.1314   22121652.4274
        -0.000          -0.000
     37016.32519      7969.60948  21530664.440    21530664.1315   21530668.0994
        -0.000          -0.000
    172829.402 9     40286.39952         0.000           0.0004          0.0005
        -0.000          -0.000
   -130903.167 9    -98133.23249  20892114.933    20892114.0504   20892119.2644
        -0.000          -0.000
 97  3  3 15 25 30.0000000  0  6 22 19 18 29 14 16                   0.000921223
    208155.255 9    155614.94248  21904354.880    21904353.8014   21904358.5864
        -0.000          -0.000
   -467638.857 9   -348372.51947  22765709.070    22765708.3984   22765713.5994
        -0.000          -0.000
   -503339.450 9   -383167.26748  22103919.473    22103918.8554   22103923.1684
        -0.000          -0.000
     45731.151 9     14760.37248  21532322.813    21532322.5334   21532326.4814
        -0.000          -0.000
    210551.080 9     69134.68552         0.000           0.0004          0.0005
        -0.000          -0.000
   -157748.547 9   -119051.71049  20887006.436    20887005.5774   20887010.7794
        -0.000          -0.000
 97  3  3 15 26  0.0000000  0  6 22 19 18 29 14 16                   0.000906775
    247188.169 9    186030.19448  21911782.581    21911781.5194   21911786.3354
        -0.000          -0.000
   -551988.320 9   -414099.34047  22749657.878    22749657.2804   22749662.4924
        -0.000          -0.000
   -596534.677 9   -455786.92048  22086185.013    22086184.4234   22086188.7434
        -0.000          -0.000
     54560.800 9     21640.60548  21534003.064    21534002.7604   21534006.7244
        -0.000          -0.000
    248646.50119     10219.01757         0.000           0.0005   21127922.4615
        -0.000          -0.000
   -184141.327 9   -139617.52049  20881984.109    20881983.2544   20881988.4314
        -0.000          -0.000
 97  3  3 15 26 30.0000000  0  7 22  3 19 18 29 14 16                0.000892258
    286630.583 9    216764.53748  21919288.239    21919287.1734   21919291.9784
        -0.000          -0.000
   -223752.57118   -161688.16652         0.000           0.0005          0.0005
        -0.000          -0.000
   -636218.013 9   -479732.84047  22733629.445    22733628.9064   22733634.1384
        -0.000          -0.000
   -689711.821 9   -528392.47648  22068454.000    22068453.4274   22068457.6534
        -0.000          -0.000
     63555.953 9     28649.80848  21535714.734    21535714.4554   21535718.4024
        -0.000          -0.000
    287141.56319     40215.15148  21135243.491    21135242.9065   21135248.2694
        -0.000          -0.000
   -210034.463 9   -159793.99049  20877056.828    20877055.9754   20877061.1434
        -0.000          -0.000
 97  3  3 15 27  0.0000000  0  7 22  3 19 18 29 14 16                0.000877641
    326494.423 9    247827.26648  21926874.057    21926872.9924   21926877.8604
        -0.000          -0.000
   -314997.76418   -232788.26355         0.000           0.0005   24953496.7215
        -0.000          -0.000
   -720319.266 9   -545266.26147  22717625.493    22717624.9464   22717630.2364
        -0.000          -0.000
   -782851.486 9   -600968.83448  22050730.130    22050729.5884   22050733.7474
        -0.000          -0.000
     72743.099 9     35808.61448  21537463.033    21537462.7754   21537466.7034
        -0.000          -0.000
    326048.293 9     70532.05748  21142647.192    21142646.7504   21142652.0224
        -0.000          -0.000
   -235395.487 9   -179555.83449  20872230.813    20872229.9764   20872235.1354
        -0.000          -0.000
 97  3  3 15 27 30.0000000  0  7 22  3 19 18 29 14 16                0.000862926
    366775.866 9    279215.39948  21934539.359    21934538.2954   21934543.1594
        -0.000          -0.000
   -406265.89818   -303906.27445  24936121.839    24936121.3325   24936127.7204
        -0.000          -0.000
   -804307.279 9   -610711.43947  22701643.084    22701642.5704   22701647.8654
        -0.000          -0.000
   -875946.000 9   -673509.99848  22033014.915    22033014.3724   22033018.4544
        -0.000          -0.000
     82138.970 9     43130.06248  21539251.056    21539250.7674   21539254.7004
        -0.000          -0.000
    365377.010 9    101177.79148  21150131.230    21150130.7994   21150136.0324
        -0.000          -0.000
   -260222.725 9   -198901.74249  20867506.346    20867505.5064   20867510.6904
        -0.000          -0.000
 97  3  3 15 28  0.0000000  0  7 22  3 19 18 29 14 16                0.000848147
    407467.035 9    310922.79548  21942282.638    21942281.5744   21942286.4884
        -0.000          -0.000
   -497536.252 8   -375025.99745  24918753.746    24918752.8464   24918759.4884
        -0.000          -0.000
   -888191.303 9   -676075.59847  22685680.534    22685680.0004   22685685.2424
        -0.000          -0.000
   -968977.410 9   -746002.00348  22015311.677    22015311.1574   22015315.2244
        -0.000          -0.000
     91759.920 9     50626.89648  21541081.882    21541081.6004   21541085.5694
        -0.000          -0.000
    405117.861 9    132144.66648  21157693.722    21157693.2944   21157698.4514
        -0.000          -0.000
   -284525.559 9   -217839.02649  20862881.680    20862880.8584   20862886.0644
        -0.000          -0.000
 97  3  3 15 28 30.0000000  0  7 22  3 19 18 29 14 16                0.000833310
    448545.780 9    342932.19848  21950099.651    21950098.6034   21950103.5664
        -0.000          -0.000
   -588807.620 8   -446146.53645  24901385.312    24901384.7304   24901391.1864
        -0.000          -0.000
   -971970.855 9   -741358.34647  22669737.847    22669737.3274   22669742.5814
        -0.000          -0.000
  -1061941.735 9   -818441.73048  21997621.221    21997620.7144   21997624.8094
        -0.000          -0.000
    101590.015 9     58286.70248  21542952.477    21542952.2144   21542956.1754
        -0.000          -0.000
    445264.480 9    163427.72848  21165333.458    21165333.0154   21165338.1374
        -0.000          -0.000
   -308325.441 9   -236384.39749  20858352.771    20858351.9434   20858357.1324
        -0.000          -0.000
 97  3  3 15 29  0.0000000  0  7 22  3 19 18 29 14 16                0.000818427
    490034.657 9    375261.18348  21957994.780    21957993.7174   21957998.6784
        -0.000          -0.000
   -680065.601 8   -517256.64945  24884019.597    24884019.1324   24884025.3144
        -0.000          -0.000
  -1055622.768 9   -806541.63047  22653819.432    22653818.9274   22653824.1574
        -0.000          -0.000
  -1154824.954 9   -890818.25748  21979946.220    21979945.6904   21979949.8394
        -0.000          -0.000
    111634.404 9     66113.48648  21544863.926    21544863.6414   21544867.6054
        -0.000          -0.000
    485845.013 9    195048.89948  21173055.734    21173055.2794   21173060.4274
        -0.000          -0.000
   -331615.448 9   -254532.46249  20853920.903    20853920.0514   20853925.2374
        -0.000          -0.000
 97  3  3 15 29 30.0000000  0  7 22  3 19 18 29 14 16                0.000803506
    531946.904 9    407920.06948  21965970.487    21965969.3964   21965974.3594
        -0.000          -0.000
   -771299.295 8   -588347.80745  24866658.248    24866657.7914   24866664.1544
        -0.000          -0.000
  -1139140.474 9   -871620.35347  22637926.520    22637926.0504   22637931.2624
        -0.000          -0.000
  -1247628.200 9   -963132.46348  21962286.354    21962285.7964   21962289.9964
        -0.000          -0.000
    121890.848 9     74105.50948  21546815.678    21546815.3804   21546819.3874
        -0.000          -0.000
    526858.044 9    227007.08148  21180860.282    21180859.8164   21180864.9884
        -0.000          -0.000
   -354407.882 9   -272292.80749  20849583.651    20849582.8144   20849588.0134
        -0.000          -0.000
 97  3  3 15 30  0.0000000  0  7 22  3 19 18 29 14 16                0.000788565
    574288.235 9    440913.30948  21974027.750    21974026.7084   21974031.6554
        -0.000          -0.000
   -862494.486 9   -659408.97645  24849304.519    24849304.0444   24849310.4224
        -0.000          -0.000
  -1222497.362 9   -936573.74647  22622064.273    22622063.7814   22622068.9904
        -0.000          -0.000
  -1340351.455 9  -1035384.34048  21944641.606    21944641.0914   21944645.4114
        -0.000          -0.000
    132363.150 9     82265.73348  21548808.516    21548808.2314   21548812.2224
        -0.000          -0.000
    568300.843 9    259300.15048  21188746.634    21188746.1464   21188751.3694
        -0.000          -0.000
   -376696.364 9   -289660.46049  20845342.325    20845341.4804   20845346.6934
        -0.000          -0.000
 97  3  3 15 30 30.0000000  0  7 22  3 19 18 29 14 16                0.000773609
    617069.765 9    474249.55848  21982168.864    21982167.8324   21982172.7254
        -0.000          -0.000
   -953636.377 9   -730428.58445  24831960.986    24831960.3024   24831966.5804
        -0.000          -0.000
  -1305677.386 9  -1001389.33547  22606235.631    22606235.1194   22606240.3164
        -0.000          -0.000
  -1432985.502 9  -1107566.71448  21927013.902    21927013.3754   21927017.9004
        -0.000          -0.000
    143070.082 9     90608.78548  21550846.007    21550845.7304   21550849.7234
        -0.000          -0.000
    610177.784 9    291931.50648  21196715.553    21196715.1194   21196720.3084
        -0.000          -0.000
   -398453.643 9   -306614.19449  20841202.090    20841201.2374   20841206.4534
        -0.000          -0.000
 97  3  3 15 31  0.0000000  0  7 22  3 19 18 29 14 16                0.000758635
    660302.870 9    507937.68448  21990395.892    21990394.8464   21990399.6884
        -0.000          -0.000
  -1044713.132 9   -801397.46645  24814629.583    24814629.0704   24814635.0904
        -0.000          -0.000
  -1388676.211 9  -1066063.72047  22590441.520    22590441.0134   22590446.1844
        -0.000          -0.000
  -1525528.092 9  -1179677.81048  21909403.475    21909402.9964   21909407.7084
        -0.000          -0.000
    154036.853 9     99154.31248  21552932.957    21552932.6754   21552936.6404
        -0.000          -0.000
    652488.863 9    324901.15748  21204767.125    21204766.6754   21204771.8894
        -0.000          -0.000
   -419667.776 9   -323144.69749  20837165.175    20837164.3314   20837169.5374
        -0.000          -0.000
 97  3  3 15 31 30.0000000  0  7 22  3 19 18 29 14 16                0.000743650
    703970.058 9    541964.05948  21998705.491    21998704.4544   21998709.2864
        -0.000          -0.000
  -1135721.894 9   -872313.35045  24797311.294    24797310.7894   24797316.7034
        -0.000          -0.000
  -1471481.368 9  -1130587.21747  22574684.257    22574683.7124   22574688.8864
        -0.000          -0.000
  -1617970.702 9  -1251711.00248  21891812.129    21891811.6544   21891816.5134
        -0.000          -0.000
    165270.250 9    107907.59748  21555070.590    21555070.3154   21555074.3124
        -0.000          -0.000
    695235.662 9    358210.33348  21212901.632    21212901.1744   21212906.3554
        -0.000          -0.000
   -440336.354 9   -339250.09049  20833232.097    20833231.2544   20833236.4404
        -0.000          -0.000
 97  3  3 15 32  0.0000000  0  7 22  3 19 18 29 14 16                0.000728639
    748057.883 9    576318.20748  22007095.205    22007094.1764   22007098.9694
        -0.000          -0.000
  -1226676.427 9   -943186.99045  24780003.137    24780002.6414   24780008.6264
        -0.000          -0.000
  -1554096.237 9  -1194962.42047  22558963.214    22558962.6164   22558967.8194
        -0.000          -0.000
  -1710296.433 9  -1323653.12248  21874243.095    21874242.5974   21874247.4724
        -0.000          -0.000
    176783.682 9    116879.09548  21557261.578    21557261.3194   21557265.2944
        -0.000          -0.000
    738418.334 9    391859.14548  21221119.070    21221118.5954   21221123.7934
        -0.000          -0.000
   -460448.045 9   -354921.54549  20829404.993    20829404.1534   20829409.3414
        -0.000          -0.000
 97  3  3 15 32 30.0000000  0  7 22  3 19 18 29 14 16                0.000713595
    792551.604 9    610988.63348  22015562.134    22015561.0944   22015565.8584
        -0.000          -0.000
  -1317587.470 9  -1014026.78045  24762703.347    24762702.9484   24762708.7594
        -0.000          -0.000
  -1636532.373 9  -1259198.35247  22543276.095    22543275.5154   22543280.7234
        -0.000          -0.000
  -1802499.808 9  -1395499.90048  21856697.388    21856696.8944   21856701.7304
        -0.000          -0.000
    188579.484 9    126070.62148  21559506.285    21559506.0044   21559509.9734
        -0.000          -0.000
    782023.741 9    425837.36148  21229416.914    21229416.4514   21229421.6444
        -0.000          -0.000
   -480014.599 9   -370168.21649  20825681.656    20825680.7914   20825685.9724
        -0.000          -0.000
 97  3  3 15 33  0.0000000  0  7 22  3 19 18 29 14 16                0.000698526
    837476.468 9    645995.02348  22024111.071    22024110.0264   22024114.7614
        -0.000          -0.000
  -1408444.874 9  -1084824.77245  24745413.834    24745413.2574   24745419.1414
        -0.000          -0.000
  -1718772.278 9  -1323281.37047  22527626.374    22527625.8094   22527631.0044
        -0.000          -0.000
  -1894567.369 9  -1467240.84748  21839177.551    21839177.1024   21839181.8714
        -0.000          -0.000
    200660.581 9    135484.45948  21561805.276    21561804.9934   21561808.9614
        -0.000          -0.000
    826075.578 9    460163.45348  21237799.721    21237799.2774   21237804.4904
        -0.000          -0.000
   -499033.358 9   -384988.03249  20822062.550    20822061.7174   20822066.8684
        -0.000          -0.000
 97  3  3 15 33 30.0000000  0  7 22  3 19 18 29 14 16                0.000683440
    882826.312 9    681332.55748  22032740.896    22032739.8524   22032744.5844
        -0.000          -0.000
  -1499239.211 9  -1155573.59945  24728136.166    24728135.7884   24728141.6204
        -0.000          -0.000
  -1800810.835 9  -1387207.50447  22512014.915    22512014.3764   22512019.5914
        -0.000          -0.000
  -1986484.974 9  -1538864.94848  21821686.345    21821685.8314   21821690.4794
        -0.000          -0.000
    213020.679 9    145115.69948  21564157.294    21564157.0254   21564161.0334
        -0.000          -0.000
    870577.373 9    494840.15948  21246268.185    21246267.7054   21246272.9494
        -0.000          -0.000
   -517496.582 9   -399374.96549  20818549.132    20818548.2994   20818553.4914
        -0.000          -0.000
 97  3  3 15 34  0.0000000  0  7 22  3 19 18 29 14 16                0.000668350
    928623.326 9    717018.53448  22041455.820    22041454.7584   22041459.4764
        -0.000          -0.000
  -1589944.231 9  -1226252.83045  24710875.422    24710875.1574   24710880.9484
        -0.000          -0.000
  -1882653.830 9  -1450981.25647  22496440.773    22496440.2194   22496445.3544
        -0.000          -0.000
  -2078233.326 9  -1610357.17348  21804227.326    21804226.7784   21804231.3334
        -0.000          -0.000
    225668.033 9    154970.76648  21566564.025    21566563.7494   21566567.7844
        -0.000          -0.000
    915531.895 9    529869.63548  21254822.749    21254822.2934   21254827.5104
        -0.000          -0.000
   -535399.854 9   -413325.57949  20815142.237    20815141.3884   20815146.6154
        -0.000          -0.000
 97  3  3 15 34 30.0000000  0  7 22  3 19 18 29 14 16                0.000653262
    974885.840 9    753067.24048  22050259.318    22050258.2444   22050262.9364
        -0.000          -0.000
  -1680539.403 9  -1296846.46345  24693635.755    24693635.5624   24693641.3584
        -0.000          -0.000
  -1964299.039 9  -1514600.88147  22480904.250    22480903.6544   22480908.7244
        -0.000          -0.000
  -2169822.380 9  -1681725.26048  21786798.511    21786797.9644   21786802.4184
        -0.000          -0.000
    238589.843 9    165039.69648  21569023.038    21569022.7564   21569026.8134
        -0.000          -0.000
    960957.236 9    565265.97848  21263466.949    21263466.4884   21263471.7254
        -0.000          -0.000
   -552739.406 9   -426836.92849  20811842.648    20811841.8224   20811847.0544
        -0.000          -0.000
 97  3  3 15 35  0.0000000  0  7 22  3 19 18 29 14 16                0.000638183
   1021627.590 9    789489.37848  22059154.018    22059152.9464   22059157.6224
        -0.000          -0.000
  -1771005.600 9  -1367339.58145  24676420.707    24676420.2804   24676426.2614
        -0.000          -0.000
  -2045737.532 9  -1578059.42547  22465407.019    22465406.4234   22465411.5354
        -0.000          -0.000
  -2261241.569 9  -1752960.98848  21769402.049    21769401.5274   21769405.9234
        -0.000          -0.000
    251786.342 9    175322.66948  21571534.230    21571533.9284   21571538.0154
        -0.000          -0.000
   1006880.711 9    601050.48748  21272205.925    21272205.4984   21272210.7264
        -0.000          -0.000
   -569493.406 9   -439892.00449  20808654.456    20808653.6394   20808658.8514
        -0.000          -0.000
 97  3  3 15 35 30.0000000  0  7 22  3 19 18 29 14 16                0.000623107
   1068821.940 9    826264.18948  22068134.831    22068133.7394   22068138.4354
        -0.000          -0.000
  -1861347.786 8  -1437736.06845  24659229.211    24659228.6914   24659234.7194
        -0.000          -0.000
  -2126977.042 9  -1641362.92547  22449947.605    22449947.0354   22449952.2134
        -0.000          -0.000
  -2352505.110 9  -1824075.42748  21752035.234    21752034.7204   21752039.0314
        -0.000          -0.000
    265255.947 9    185818.45148  21574097.431    21574097.1434   21574101.2244
        -0.000          -0.000
   1053284.329 9    637209.12748  21281036.292    21281035.8064   21281041.0884
        -0.000          -0.000
   -585669.369 9   -452496.65949  20805576.283    20805575.4704   20805580.6784
        -0.000          -0.000
 97  3  3 15 36  0.0000000  0  7 22  3 19 18 29 14 16                0.000608033
   1116488.165 9    863406.69248  22077205.416    22077204.3494   22077209.0454
        -0.000          -0.000
  -1951560.231 8  -1508031.45845  24642062.280    24642061.7664   24642067.7684
        -0.000          -0.000
  -2208007.117 9  -1704503.22147  22434528.040    22434527.5004   22434532.7064
        -0.000          -0.000
  -2443619.409 9  -1895073.57248  21734696.806    21734696.2934   21734700.5584
        -0.000          -0.000
    279007.414 9    196533.87548  21576714.289    21576714.0024   21576718.0454
        -0.000          -0.000
   1100172.290 9    673745.18148  21289958.764    21289958.3294   21289963.5934
        -0.000          -0.000
   -601263.207 9   -464647.70249  20802608.886    20802608.0744   20802613.2414
        -0.000          -0.000
 97  3  3 15 36 30.0000000  0  7 22  3 19 18 29 14 16                0.000592962
   1164620.231 9    900912.19348  22086364.697    22086363.6294   22086368.3274
        -0.000          -0.000
  -2041636.756 9  -1578220.90945  24624921.278    24624920.8224   24624926.7234
        -0.000          -0.000
  -2288814.761 9  -1767470.20647  22419150.848    22419150.3454   22419155.5264
        -0.000          -0.000
  -2534590.740 9  -1965960.30848  21717385.521    21717385.0174   21717389.2104
        -0.000          -0.000
    293052.329 9    207477.95148  21579386.989    21579386.6814   21579390.7094
        -0.000          -0.000
   1147546.733 9    710660.31148  21298973.822    21298973.3784   21298978.6804
        -0.000          -0.000
   -616258.223 9   -476332.13449  20799755.486    20799754.6794   20799759.8234
        -0.000          -0.000
 97  3  3 15 37  0.0000000  0  7 22  3 19 18 29 14 16                0.000577902
   1213199.688 9    938766.30648  22095609.054    22095607.9894   22095612.6604
        -0.000          -0.000
  -2131568.336 9  -1648297.44745  24607807.908    24607807.3404   24607813.2424
        -0.000          -0.000
  -2369399.888 9  -1830263.82047  22403816.030    22403815.5214   22403820.6844
        -0.000          -0.000
  -2625416.303 9  -2036733.46248  21700102.011    21700101.4824   21700105.6684
        -0.000          -0.000
    307396.924 9    218655.54648  21582116.677    21582116.3824   21582120.4174
        -0.000          -0.000
   1195382.273 9    747934.73648  21308076.624    21308076.2164   21308081.4824
        -0.000          -0.000
   -630657.733 9   -487552.54149  20797015.410    20797014.5964   20797019.7274
        -0.000          -0.000
 97  3  3 15 37 30.0000000  0  7 22  3 19 18 29 14 16                0.000562847
   1262223.077 9    976966.34648  22104937.931    22104936.8704   22104941.5104
        -0.000          -0.000
  -2221360.425 9  -1718265.30445  24590721.015    24590720.5184   24590726.3264
        -0.000          -0.000
  -2449773.252 9  -1892892.41247  22388521.478    22388520.9804   22388526.1664
        -0.000          -0.000
  -2716099.453 9  -2107395.64348  21682845.590    21682845.0994   21682849.2874
        -0.000          -0.000
    322041.704 9    230067.05148  21584903.531    21584903.2324   21584907.2794
        -0.000          -0.000
   1243653.106 9    785548.35148  21317262.348    21317261.9274   21317267.1654
        -0.000          -0.000
   -644471.527 9   -498316.54749  20794386.755    20794385.9264   20794391.0964
        -0.000          -0.000
 97  3  3 15 38  0.0000000  0  7 22  3 19 18 29 14 16                0.000547813
   1311702.026 9   1015521.36648  22114353.506    22114352.4024   22114357.0574
        -0.000          -0.000
  -2310992.411 9  -1788108.37645  24573664.643    24573664.1764   24573670.1104
        -0.000          -0.000
  -2529920.047 9  -1955344.46347  22373269.990    22373269.5084   22373274.7084
        -0.000          -0.000
  -2806603.864 9  -2177918.55248  21665623.194    21665622.7214   21665626.8994
        -0.000          -0.000
    337001.314 9    241723.88448  21587750.261    21587749.9624   21587753.9954
        -0.000          -0.000
   1292371.127 9    823510.42748  21326533.156    21326532.6894   21326538.0034
        -0.000          -0.000
   -657680.034 9   -508608.90349  20791873.261    20791872.4264   20791877.6534
        -0.000          -0.000
 97  3  3 15 38 30.0000000  0  7 22  3 19 18 29 14 16                0.000532772
   1361588.984 9   1054394.31048  22123846.629    22123845.5604   22123850.2614
        -0.000          -0.000
  -2400503.024 8  -1857856.90045  24556631.364    24556630.9884   24556636.5284
        -0.000          -0.000
  -2609870.647 9  -2017643.62147  22358055.956    22358055.4304   22358060.5834
        -0.000          -0.000
  -2896945.146 9  -2248314.35348  21648431.872    21648431.3634   21648435.5264
        -0.000          -0.000
    352248.973 9    253605.16148  21590651.836    21590651.5634   21590655.5694
        -0.000          -0.000
   1341500.469 9    861793.00248  21335882.161    21335881.7064   21335887.0164
        -0.000          -0.000
   -670305.235 9   -518446.73749  20789470.741    20789469.9194   20789475.1604
        -0.000          -0.000
 97  3  3 15 39  0.0000000  0  7 22  3 19 18 29 14 16                0.000517732
   1411898.600 9   1093596.60048  22133420.208    22133419.1824   22133423.8994
        -0.000          -0.000
  -2489882.487 8  -1927503.19445  24539623.035    24539622.6034   24539628.3424
        -0.000          -0.000
  -2689604.643 9  -2079774.00247  22342883.060    22342882.5344   22342887.6734
        -0.000          -0.000
  -2987099.399 9  -2318564.41348  21631276.156    21631275.5704   21631279.7774
        -0.000          -0.000
    367798.524 9    265721.68048  21593610.836    21593610.5644   21593614.5734
        -0.000          -0.000
   1391052.070 9    900404.61848  21345311.548    21345311.1094   21345316.4244
        -0.000          -0.000
   -682326.714 9   -527814.13449  20787183.157    20787182.3434   20787187.5724
        -0.000          -0.000
 97  3  3 15 39 30.0000000  0  7 22  3 19 18 29 14 16                0.000502691
   1462628.234 9   1133126.17748  22143073.821    22143072.7804   22143077.4894
        -0.000          -0.000
  -2579136.170 9  -1997051.48945  24522638.542    24522638.1714   24522643.9654
        -0.000          -0.000
  -2769107.822 9  -2141724.51747  22327754.086    22327753.5884   22327758.7854
        -0.000          -0.000
  -3077058.190 9  -2388662.17448  21614157.561    21614156.9814   21614161.2364
        -0.000          -0.000
    383650.204 9    278073.62848  21596627.366    21596627.0764   21596631.0684
        -0.000          -0.000
   1441035.874 9    939353.01248  21354823.165    21354822.7144   21354828.0034
        -0.000          -0.000
   -693741.725 9   -536708.95449  20785010.995    20785010.1874   20785015.4394
        -0.000          -0.000
 97  3  3 15 40  0.0000000  0  7 22  3 19 18 29 14 16                0.000487652
   1513772.284 9   1172978.66947  22152806.204    22152805.1524   22152809.8274
        -0.000          -0.000
  -2668257.976 9  -2066497.02545  24505679.220    24505678.8214   24505684.8554
        -0.000          -0.000
  -2848382.481 9  -2203496.96147  22312668.559    22312668.1414   22312673.3744
        -0.000          -0.000
  -3166835.165 9  -2458618.25948  21597073.468    21597072.9284   21597077.2654
        -0.000          -0.000
    399792.311 9    290651.87348  21599699.118    21599698.8404   21599702.8134
        -0.000          -0.000
   1491450.664 9    978637.24348  21364416.797    21364416.3524   21364421.6174
        -0.000          -0.000
   -704547.147 9   -545128.77149  20782954.811    20782954.0004   20782959.2374
        -0.000          -0.000
 97  3  3 15 40 30.0000000  0  7 22  3 19 18 29 14 16                0.000472606
   1565340.495 9   1213161.68447  22162619.312    22162618.2494   22162622.9664
        -0.000          -0.000
  -2757246.163 8  -2135838.45445  24488745.405    24488744.9154   24488750.9664
        -0.000          -0.000
  -2927445.556 9  -2265104.53247  22297623.383    22297622.9674   22297628.1814
        -0.000          -0.000
  -3256451.217 9  -2528448.94448  21580020.053    21580019.5134   21580023.9494
        -0.000          -0.000
    416220.461 9    303453.02348  21602825.346    21602825.0364   21602828.9994
        -0.000          -0.000
   1542296.948 9   1018257.69648  21374092.567    21374092.1444   21374097.4754
        -0.000          -0.000
   -714759.649 9   -553086.56949  20781011.460    20781010.6564   20781015.8834
        -0.000          -0.000
 97  3  3 15 41  0.0000000  0  7 22  3 19 18 29 14 16                0.000457563
   1617341.144 9   1253681.65447  22172514.672    22172513.6584   22172518.3784
        -0.000          -0.000
  -2846076.003 8  -2205056.49945  24471841.686    24471841.0574   24471847.2804
        -0.000          -0.000
  -3006312.115 9  -2326558.97947  22282615.689    22282615.2264   22282620.3734
        -0.000          -0.000
  -3345909.556 9  -2598156.74048  21562996.663    21562996.1284   21563000.6454
        -0.000          -0.000
    432940.196 9    316481.37248  21606007.021    21606006.7234   21606010.7174
        -0.000          -0.000
   1593572.842 9   1058212.91048  21383850.105    21383849.6394   21383854.9634
        -0.000          -0.000
   -724401.130 9   -560599.41949  20779176.778    20779175.9764   20779181.1784
        -0.000          -0.000
 97  3  3 15 41 30.0000000  0  7 22  3 19 18 29 14 16                0.000442522
   1669786.880 9   1294548.45247  22182494.878    22182493.7794   22182498.5284
        -0.000          -0.000
  -2934742.393 8  -2274147.17745  24454969.068    24454968.4174   24454974.5264
        -0.000          -0.000
  -3084994.348 9  -2387869.78647  22267642.951    22267642.4624   22267647.6524
        -0.000          -0.000
  -3435198.929 9  -2667732.87448  21546005.447    21546004.9114   21546009.4674
        -0.000          -0.000
    449953.783 9    329738.69848  21609244.623    21609244.3314   21609248.3174
        -0.000          -0.000
   1645289.785 9   1098511.81048  21393691.534    21393691.1264   21393696.3904
        -0.000          -0.000
   -733483.450 9   -567676.56249  20777448.482    20777447.6624   20777452.8634
        -0.000          -0.000
 97  3  3 15 42  0.0000000  0  7 22  3 19 18 29 14 16                0.000427455
   1722679.058 9   1335763.12047  22192559.920    22192558.8714   22192563.6024
        -0.000          -0.000
  -3023259.984 8  -2343121.90745  24438124.544    24438124.0694   24438130.0944
        -0.000          -0.000
  -3163520.478 9  -2449058.95047  22252699.998    22252699.4874   22252704.6584
        -0.000          -0.000
  -3524321.736 9  -2737179.21748  21529045.949    21529045.4024   21529050.0024
        -0.000          -0.000
    467272.556 9    343233.82748  21612540.330    21612540.0304   21612544.0394
        -0.000          -0.000
   1697435.984 9   1139145.18948  21403614.743    21403614.2764   21403619.5104
        -0.000          -0.000
   -742018.022 9   -574326.89249  20775824.366    20775823.5474   20775828.7594
        -0.000          -0.000
 97  3  3 15 42 30.0000000  0  7 22  3 19 18 29 14 16                0.000412348
   1775988.554 9   1377302.98247  22202704.403    22202703.3384   22202708.0954
        -0.000          -0.000
  -3111645.686 8  -2411993.86245  24421305.308    24421304.8524   24421310.9164
        -0.000          -0.000
  -3241904.434 9  -2510137.32747  22237784.023    22237783.5034   22237788.6764
        -0.000          -0.000
  -3613273.103 9  -2806491.96548  21512119.075    21512118.5304   21512123.1014
        -0.000          -0.000
    484899.319 9    356968.95548  21615894.623    21615894.3084   21615898.3024
        -0.000          -0.000
   1750000.011 9   1180104.15048  21413617.334    21413616.9014   21413622.1304
        -0.000          -0.000
   -750027.203 9   -580567.82649  20774300.255    20774299.4524   20774304.6974
        -0.000          -0.000
 97  3  3 15 43  0.0000000  0  7 22  3 19 18 29 14 16                0.000397219
   1829715.887 9   1419168.42847  22212928.445    22212927.3804   22212932.1274
        -0.000          -0.000
  -3199877.286 8  -2480745.76045  24404515.575    24404514.9864   24404521.0624
        -0.000          -0.000
  -3320110.124 9  -2571076.80647  22222901.938    22222901.4554   22222906.5924
        -0.000          -0.000
  -3702028.434 9  -2875651.95348  21495229.546    21495228.9734   21495233.4874
        -0.000          -0.000
    502844.231 9    370951.98948  21619309.378    21619309.0744   21619313.1054
        -0.000          -0.000
   1803001.577 9   1221404.04348  21423703.214    21423702.7694   21423708.0564
        -0.000          -0.000
   -757467.816 9   -586365.71949  20772884.396    20772883.6224   20772888.8684
        -0.000          -0.000
 97  3  3 15 43 30.0000000  0  7 22  3 19 18 29 14 16                0.000382058
   1883848.985 9   1461350.05647  22223229.623    22223228.5694   22223233.3114
        -0.000          -0.000
  -3287973.381 8  -2549392.07045  24387751.334    24387750.7924   24387756.9604
        -0.000          -0.000
  -3398109.291 9  -2631855.35047  22208059.184    22208058.6914   22208063.8144
        -0.000          -0.000
  -3790587.235 9  -2944658.80548  21478377.452    21478376.9194   21478381.3624
        -0.000          -0.000
    521097.381 9    385175.20548  21622782.845    21622782.5594   21622786.6054
        -0.000          -0.000
   1856449.553 9   1263051.79248  21433873.937    21433873.5284   21433878.8654
        -0.000          -0.000
   -764311.108 9   -591698.16849  20771582.192    20771581.3834   20771586.6504
        -0.000          -0.000
 97  3  3 15 44  0.0000000  0  7 22  3 19 18 29 14 16                0.000366870
   1938364.172 9   1503829.41047  22233603.515    22233602.4774   22233607.2114
        -0.000          -0.000
  -3375928.892 8  -2617928.81445  24371013.983    24371013.4394   24371019.6774
        -0.000          -0.000
  -3475887.183 9  -2692461.48148  22193258.539    22193258.0274   22193263.1634
        -0.000          -0.000
  -3878959.708 9  -3013520.46548  21461560.821    21461560.2614   21461564.5944
        -0.000          -0.000
    539658.865 9    399638.68648  21626314.966    21626314.6944   21626318.7324
        -0.000          -0.000
   1910336.518 9   1305041.61248  21444128.360    21444127.9694   21444133.2814
        -0.000          -0.000
   -770545.578 9   -596556.20649  20770395.862    20770395.0554   20770400.3294
        -0.000          -0.000
 97  3  3 15 44 30.0000000  0  7 22  3 19 18 29 14 16                0.000351678
   1993232.953 9   1546584.29547  22244044.751    22244043.6794   22244048.4404
        -0.000          -0.000
  -3463742.745 9  -2686355.16145  24354303.460    24354302.9374   24354309.2604
        -0.000          -0.000
  -3553439.129 9  -2752891.55948  22178500.982    22178500.4544   22178505.5134
        -0.000          -0.000
  -3967171.865 9  -3082257.20448  21444774.660    21444774.1124   21444778.3654
        -0.000          -0.000
    558479.596 9    414304.17548  21629896.477    21629896.2044   21629900.2164
        -0.000          -0.000
   1964648.904 9   1347362.92548  21454463.719    21454463.2944   21454468.6044
        -0.000          -0.000
   -776189.465 9   -600954.04749  20769321.901    20769321.0884   20769326.3594
        -0.000          -0.000
 97  3  3 15 45  0.0000000  0  7 22  3 19 18 29 14 16                0.000336490
   2048469.533 9   1589625.78047  22254555.887    22254554.8524   22254559.6524
        -0.000          -0.000
  -3551406.860 9  -2754664.85546  24337621.651    24337621.0564   24337627.3024
        -0.000          -0.000
  -3630754.620 9  -2813137.38248  22163788.320    22163787.8394   22163792.8774
        -0.000          -0.000
  -4055219.550 9  -3150865.78348  21428019.744    21428019.2014   21428023.4224
        -0.000          -0.000
    577561.148 9    429172.90048  21633527.590    21633527.3114   21633531.3514
        -0.000          -0.000
   2019390.414 9   1390018.63448  21464880.721    21464880.2824   21464885.5114
        -0.000          -0.000
   -781233.884 9   -604884.77749  20768361.995    20768361.1734   20768366.4254
        -0.000          -0.000
 97  3  3 15 45 30.0000000  0  7 22  3 19 18 29 14 16                0.000321303
   2104074.820 9   1632954.55547  22265137.181    22265136.1474   22265140.9534
        -0.000          -0.000
  -3638917.786 9  -2822855.18646  24320968.978    24320968.3244   24320974.3984
        -0.000          -0.000
  -3707850.951 9  -2873212.42048  22149117.388    22149116.8564   22149121.8684
        -0.000          -0.000
  -4143089.936 9  -3219336.20448  21411298.580    21411298.0274   21411302.2244
        -0.000          -0.000
    596918.451 9    444256.49248  21637211.123    21637210.8714   21637214.9114
        -0.000          -0.000
   2074551.356 9   1433001.16348  21475377.512    21475377.0864   21475382.3604
        -0.000          -0.000
   -785704.524 9   -608368.40049  20767511.246    20767510.4324   20767515.6904
        -0.000          -0.000
 97  3  3 15 46  0.0000000  0  7 22  3 19 18 29 14 16                0.000306132
   2160042.667 9   1676565.85047  22275787.487    22275786.4644   22275791.2504
        -0.000          -0.000
  -3726245.407 9  -2890902.65546  24304351.120    24304350.5284   24304356.4254
        -0.000          -0.000
  -3784765.689 9  -2933145.95248  22134480.930    22134480.4484   22134485.5074
        -0.000          -0.000
  -4230778.856 9  -3287665.22548  21394611.867    21394611.3294   21394615.5564
        -0.000          -0.000
    616538.993 9    459545.21748  21640944.798    21640944.5364   21640948.5804
        -0.000          -0.000
   2130102.465 9   1476287.72148  21485948.644    21485948.1974   21485953.4074
        -0.000          -0.000
   -789635.463 9   -611431.48649  20766763.203    20766762.3904   20766767.6654
        -0.000          -0.000
 97  3  3 15 46 30.0000000  0  7 22  3 19 18 29 14 16                0.000290997
   2216401.871 9   1720482.09647  22286512.314    22286511.2894   22286516.0394
        -0.000          -0.000
  -3813357.902 9  -2958782.47546  24287774.213    24287773.5354   24287779.5804
        -0.000          -0.000
  -3861498.693 9  -2992937.87748  22119879.113    22119878.5974   22119883.6804
        -0.000          -0.000
  -4318264.220 9  -3355835.63748  21377963.939    21377963.3744   21377967.6294
        -0.000          -0.000
    636435.093 9    475048.65648  21644730.938    21644730.6954   21644734.7204
        -0.000          -0.000
   2186046.013 9   1519880.07048  21496594.342    21496593.8784   21496599.1564
        -0.000          -0.000
   -793021.022 9   -614069.60149  20766118.940    20766118.1464   20766123.4014
        -0.000          -0.000
 97  3  3 15 47  0.0000000  0  7 22  3 19 18 29 14 16                0.000275867
   2273142.817 9   1764695.80947  22297309.773    22297308.7444   22297313.5024
        -0.000          -0.000
  -3900267.238 9  -3026503.98846  24271235.913    24271235.2934   24271241.3044
        -0.000          -0.000
  -3938079.203 9  -3052610.97748  22105306.339    22105305.8054   22105310.8834
        -0.000          -0.000
  -4405556.868 9  -3423855.87648  21361352.664    21361352.1244   21361356.4054
        -0.000          -0.000
    656613.959 9    490772.43948  21648570.876    21648570.5964   21648574.6644
        -0.000          -0.000
   2242354.018 9   1563756.40548  21507309.403    21507308.9704   21507314.3064
        -0.000          -0.000
   -795865.720 9   -616286.26049  20765577.646    20765576.8404   20765582.1104
        -0.000          -0.000
 97  3  3 15 47 30.0000000  0  7 22  3 19 18 29 14 16                0.000260752
   2330266.803 9   1809207.99047  22308180.106    22308179.1094   22308183.8654
        -0.000          -0.000
  -3986970.138 9  -3094064.64346  24254736.900    24254736.3054   24254742.2894
        -0.000          -0.000
  -4014498.329 9  -3112158.32348  22090764.297    22090763.7334   22090768.7854
        -0.000          -0.000
  -4492664.348 9  -3491731.82648  21344776.627    21344776.0594   21344780.3894
        -0.000          -0.000
    677064.115 9    506707.61048  21652462.420    21652462.1624   21652466.2414
        -0.000          -0.000
   2299019.231 9   1607911.09848  21518092.434    21518091.9954   21518097.2874
        -0.000          -0.000
   -798168.976 9   -618081.02249  20765139.396    20765138.6034   20765143.8724
        -0.000          -0.000
 97  3  3 15 48  0.0000000  0  7 22  3 19 18 29 14 16                0.000245657
   2387798.924 9   1854038.19647  22319128.096    22319127.1504   22319131.8984
        -0.000          -0.000
  -4073462.803 9  -3161461.49846  24238277.822    24238277.2704   24238283.2904
        -0.000          -0.000
  -4090724.007 9  -3171554.93848  22076258.966    22076258.4244   22076263.4704
        -0.000          -0.000
  -4579589.973 9  -3559466.07348  21328235.184    21328234.6304   21328239.0234
        -0.000          -0.000
    697798.826 9    522864.51548  21656408.166    21656407.8814   21656411.9224
        -0.000          -0.000
   2356052.300 9   1652352.43248  21528945.513    21528945.0914   21528950.3884
        -0.000          -0.000
   -799909.081 9   -619436.95449  20764808.316    20764807.5134   20764812.7844
        -0.000          -0.000
 97  3  3 15 48 30.0000000  0  7 22  3 19 18 29 14 16                0.000230563
   2445738.092 9   1899185.58547  22330153.617    22330152.6274   22330157.3694
        -0.000          -0.000
  -4159776.822 9  -3228719.15046  24221852.874    24221852.2314   24221858.1924
        -0.000          -0.000
  -4166730.746 9  -3230780.95348  22061795.326    22061794.8274   22061799.8404
        -0.000          -0.000
  -4666336.377 9  -3627060.67148  21311727.920    21311727.3684   21311731.8124
        -0.000          -0.000
    718837.431 9    539258.21948  21660411.715    21660411.4294   21660415.4604
        -0.000          -0.000
   2413473.141 9   1697095.91548  21539872.405    21539871.9474   21539877.2374
        -0.000          -0.000
   -801076.198 9   -620346.40949  20764586.251    20764585.4364   20764590.6904
        -0.000          -0.000
 97  3  3 15 49  0.0000000  0  7 22  3 19 18 29 14 16                0.000215440
   2504056.566 9   1944628.53947  22341251.366    22341250.3144   22341255.0334
        -0.000          -0.000
  -4245943.525 9  -3295862.01346  24205455.730    24205455.2624   24205461.0994
        -0.000          -0.000
  -4242518.404 9  -3289836.25448  22047373.361    22047372.8824   22047377.9134
        -0.000          -0.000
  -4752911.910 9  -3694522.11348  21295253.233    21295252.6434   21295257.1194
        -0.000          -0.000
    740181.296 9    555889.78948  21664473.308    21664473.0474   21664477.1084
        -0.000          -0.000
   2471286.876 9   1742145.56248  21550874.036    21550873.6114   21550878.8304
        -0.000          -0.000
   -801673.194 9   -620811.61349  20764472.684    20764471.8654   20764477.1214
        -0.000          -0.000
 97  3  3 15 49 30.0000000  0  7 22  3 19 18 29 14 16                0.000200286
   2562736.427 9   1990353.09347  22352417.708    22352416.7244   22352421.4434
        -0.000          -0.000
  -4331969.365 9  -3362895.07546  24189085.583    24189085.0644   24189090.9584
        -0.000          -0.000
  -4318083.569 9  -3348718.19548  22032993.728    22032993.2964   22032998.3694
        -0.000          -0.000
  -4839312.326 9  -3761847.11348  21278811.710    21278811.1654   21278815.6294
        -0.000          -0.000
    761830.304 9    572759.13048  21668593.009    21668592.7154   21668596.8094
        -0.000          -0.000
   2529498.217 9   1787505.00548  21561951.320    21561950.8524   21561956.1824
        -0.000          -0.000
   -801704.783 9   -620836.24549  20764466.616    20764465.8494   20764471.1154
        -0.000          -0.000
 97  3  3 15 50  0.0000000  0  7 22  3 19 18 29 14 16                0.000185083
   2621762.941 9   2036347.76347  22363650.056    22363649.0784   22363653.7844
        -0.000          -0.000
  -4417853.552 9  -3429817.76946  24172742.298    24172741.7694   24172747.8464
        -0.000          -0.000
  -4393450.605 9  -3407445.72948  22018651.844    22018651.4454   22018656.5144
        -0.000          -0.000
  -4925528.064 9  -3829028.20648  21262405.374    21262404.8734   21262409.3304
        -0.000          -0.000
    783785.438 9    589867.01748  21672770.924    21672770.6634   21672774.7124
        -0.000          -0.000
   2588105.562 9   1833173.05248  21573103.924    21573103.5014   21573108.7284
        -0.000          -0.000
   -801168.529 9   -620418.40249  20764568.639    20764567.8794   20764573.1634
        -0.000          -0.000
 97  3  3 15 50 30.0000000  0  7 22  3 19 18 29 14 16                0.000169841
   2681131.743 9   2082609.15547  22374947.573    22374946.5864   22374951.2874
        -0.000          -0.000
  -4503564.391 9  -3496605.39846  24156432.051    24156431.5704   24156437.4364
        -0.000          -0.000
  -4468612.701 9  -3466013.57248  22004349.007    22004348.6164   22004353.6414
        -0.000          -0.000
  -5011535.547 9  -3896047.02348  21246038.742    21246038.2144   21246042.6584
        -0.000          -0.000
    806057.497 9    607221.85348  21677009.226    21677008.9594   21677012.9814
        -0.000          -0.000
   2647125.554 9   1879162.61748  21584335.083    21584334.6164   21584339.8614
        -0.000          -0.000
   -800039.850 9   -619538.92449  20764783.455    20764782.6704   20764787.9804
        -0.000          -0.000
 97  3  3 15 51  0.0000000  0  7 22  3 19 18 29 14 16                0.000154575
   2740841.464 9   2129136.18947  22386309.920    22386308.9714   22386313.6874
        -0.000          -0.000
  -4589089.457 8  -3563248.31645  24140157.266    24140156.5474   24140162.5404
        -0.000          -0.000
  -4543582.486 9  -3524431.57748  21990082.775    21990082.3434   21990087.3674
        -0.000          -0.000
  -5097344.060 9  -3962910.79448  21229709.956    21229709.3984   21229713.8754
        -0.000          -0.000
    828628.574 9    624809.68848  21681304.354    21681304.0954   21681308.1334
        -0.000          -0.000
   2706530.606 9   1925452.23848  21595639.521    21595639.0704   21595644.3144
        -0.000          -0.000
   -798332.424 9   -618208.47349  20765108.400    20765107.6254   20765112.9014
        -0.000          -0.000
 97  3  3 15 51 30.0000000  0  7 22  3 19 18 29 14 16                0.000139309
   2800911.627 9   2175944.09847  22397740.956    22397739.9674   22397744.7284
        -0.000          -0.000
  -4674399.235 8  -3629723.44445  24123923.127    24123922.5364   24123928.4744
        -0.000          -0.000
  -4618358.473 9  -3582698.57148  21975853.362    21975852.8844   21975857.9034
        -0.000          -0.000
  -5182944.076 9  -4029612.10348  21213420.785    21213420.2754   21213424.7214
        -0.000          -0.000
    851495.548 9    642628.09848  21685655.793    21685655.5234   21685659.5904
        -0.000          -0.000
   2766306.734 9   1972031.01948  21607014.532    21607014.0664   21607019.3404
        -0.000          -0.000
   -796054.863 9   -616433.76149  20765541.828    20765541.0554   20765546.3404
        -0.000          -0.000
 97  3  3 15 52  0.0000000  0  7 22  3 19 18 29 14 16                0.000124073
   2861369.084 9   2223053.77947  22409245.660    22409244.7024   22409249.4304
        -0.000          -0.000
  -4759461.211 8  -3696005.46745  24107736.250    24107735.7924   24107741.6944
        -0.000          -0.000
  -4692924.837 9  -3640802.22048  21961663.889    21961663.4274   21961668.3994
        -0.000          -0.000
  -5268314.340 9  -4096134.38248  21197175.393    21197174.8214   21197179.2524
        -0.000          -0.000
    874669.237 9    660685.50248  21690065.636    21690065.3904   21690069.4564
        -0.000          -0.000
   2826465.191 9   2018907.69948  21618462.314    21618461.8904   21618467.2334
        -0.000          -0.000
   -793201.407 9   -614210.29949  20766084.878    20766084.0594   20766089.3204
        -0.000          -0.000
 97  3  3 15 52 30.0000000  0  7 22  3 19 18 29 14 16                0.000108880
   2922213.199 9   2270464.75747  22420824.027    22420823.0674   22420827.7414
        -0.000          -0.000
  -4844269.926 9  -3762090.17245  24091597.573    24091597.1854   24091603.0284
        -0.000          -0.000
  -4767268.549 9  -3698732.38648  21947516.800    21947516.2914   21947521.2564
        -0.000          -0.000
  -5353455.928 9  -4162478.47148  21180973.460    21180972.8984   21180977.3184
        -0.000          -0.000
    898163.508 9    678992.71148  21694536.465    21694536.2254   21694540.2634
        -0.000          -0.000
   2886999.851 9   2066077.53548  21629981.772    21629981.3064   21629986.6424
        -0.000          -0.000
   -789794.316 9   -611555.43249  20766733.256    20766732.4504   20766737.7034
        -0.000          -0.000
 97  3  3 15 53  0.0000000  0  7 22  3 19 18 29 14 16                0.000093718
   2983429.468 9   2318165.72147  22432473.166    22432472.2124   22432476.8804
        -0.000          -0.000
  -4928841.589 9  -3827990.13046  24075504.260    24075503.7054   24075509.6704
        -0.000          -0.000
  -4841415.524 9  -3756509.24248  21933407.031    21933406.5594   21933411.4924
        -0.000          -0.000
  -5438377.160 9  -4228650.85548  21164813.533    21164812.9654   21164817.3904
        -0.000          -0.000
    921958.689 9    697534.39548  21699064.571    21699064.3204   21699068.3804
        -0.000          -0.000
   2947887.254 9   2113522.24348  21641568.303    21641567.8344   21641573.0924
        -0.000          -0.000
   -785861.906 9   -608491.23249  20767481.582    20767480.7624   20767486.0294
        -0.000          -0.000
 97  3  3 15 53 30.0000000  0  8 22  3 19 18 31 29 14 16             0.000078489
   3044990.968 9   2366135.69247  22444188.023    22444187.0034   22444191.7124
        -0.000          -0.000
  -5013187.376 9  -3893714.08146  24059453.724    24059453.2474   24059459.3444
        -0.000          -0.000
  -4915388.730 9  -3814150.68848  21919330.385    21919329.9244   21919334.8724
        -0.000          -0.000
  -5523079.436 9  -4294652.62948  21148695.260    21148694.6634   21148699.0424
        -0.000          -0.000
  -5504556.56618  -4272435.21555  24567169.238    24567168.5045   24567174.7795
        -0.000          -0.000
    946048.689 9    716305.80148  21703648.721    21703648.4874   21703652.5434
        -0.000          -0.000
   3009125.943 9   2161240.66348  21653221.651    21653221.1574   21653226.4514
        -0.000          -0.000
   -781406.752 9   -605019.70449  20768329.388    20768328.5954   20768333.8784
        -0.000          -0.000
 97  3  3 15 54  0.0000000  0  8 22  3 19 18 31 29 14 16             0.000063330
   3106879.555 9   2414360.55347  22455964.973    22455964.0204   22455968.7464
        -0.000          -0.000
  -5097320.978 9  -3959272.70346  24043443.581    24043443.1904   24043449.2664
        -0.000          -0.000
  -4989188.686 9  -3871657.14848  21905286.707    21905286.2564   21905291.2234
        -0.000          -0.000
  -5607556.981 9  -4360479.27748  21132619.714    21132619.1324   21132623.4924
        -0.000          -0.000
  -5614597.458 8  -4358181.30545  24546228.888    24546228.2004   24546234.7294
        -0.000          -0.000
    970435.397 9    735308.42148  21708289.341    21708289.1344   21708293.2114
        -0.000          -0.000
   3070718.649 9   2209234.96048  21664942.249    21664941.8134   21664947.1314
        -0.000          -0.000
   -776423.246 9   -601136.46549  20769277.728    20769276.9394   20769282.2404
        -0.000          -0.000
 97  3  3 15 54 30.0000000  0  9 22  3 19 27 18 31 29 14 16          0.000048134
   3169081.742 9   2462829.77447  22467801.642    22467800.6354   22467805.4224
        -0.000          -0.000
  -5181261.367 9  -4024680.77846  24027470.325    24027469.8394   24027475.8484
        -0.000          -0.000
  -5062824.621 9  -3929035.78348  21891274.199    21891273.7774   21891278.8084
        -0.000          -0.000
  -3406037.73518  -2155717.03555  25016455.626    25016455.0385   25016460.3565
        -0.000          -0.000
  -5691817.671 9  -4426136.95248  21116585.502    21116584.9024   21116589.2664
        -0.000          -0.000
  -5724727.967 8  -4443997.23945  24525271.499    24525271.0184   24525277.6044
        -0.000          -0.000
    995117.586 9    754541.27348  21712986.278    21712986.0324   21712990.1114
        -0.000          -0.000
   3132651.173 9   2257494.05548  21676727.686    21676727.2444   21676732.5614
        -0.000          -0.000
   -770909.061 9   -596839.71649  20770327.072    20770326.2824   20770331.5804
        -0.000          -0.000
 97  3  3 15 55  0.0000000  0  9 22  3 19 27 18 31 29 14 16          0.000032911
   3231587.075 9   2511535.21747  22479696.036    22479694.9914   22479699.8214
        -0.000          -0.000
  -5265013.567 9  -4089942.20646  24011532.795    24011532.2724   24011538.3214
        -0.000          -0.000
  -5136307.729 9  -3986295.32948  21877290.796    21877290.3774   21877295.4794
        -0.000          -0.000
  -3504879.297 9  -2232736.43145  24997646.815    24997646.0894   24997651.5264
        -0.000          -0.000
  -5775866.066 9  -4491629.21148  21100591.590    21100591.0154   21100595.4104
        -0.000          -0.000
  -5834954.525 8  -4529888.01445  24504295.960    24504295.7184   24504302.3174
        -0.000          -0.000
   1020076.995 9    773990.14548  21717735.864    21717735.6344   21717739.7524
        -0.000          -0.000
   3194914.914 9   2306011.20148  21688576.079    21688575.6124   21688581.0704
        -0.000          -0.000
   -764852.091 9   -592120.01549  20771479.678    20771478.8944   20771484.1784
        -0.000          -0.000
 97  3  3 15 55 30.0000000  0  9 22  3 19 27 18 31 29 14 16          0.000017670
   3294418.447 9   2560494.71647  22491652.359    22491651.3644   22491656.2654
        -0.000          -0.000
  -5348547.013 9  -4155033.16746  23995637.091    23995636.4374   23995642.4114
        -0.000          -0.000
  -5209604.082 9  -4043409.34648  21863342.990    21863342.5834   21863347.6234
        -0.000          -0.000
  -3603658.170 9  -2309706.97345  24978849.896    24978849.2334   24978854.6084
        -0.000          -0.000
  -5859686.849 9  -4556944.10148  21084641.027    21084640.4274   21084644.8434
        -0.000          -0.000
  -5945256.321 8  -4615837.42745  24483306.518    24483306.2494   24483312.6604
        -0.000          -0.000
   1045334.452 9    793671.26248  21722542.197    21722542.0074   21722546.1444
        -0.000          -0.000
   3257533.080 9   2354804.55948  21700491.989    21700491.5724   21700496.8884
        -0.000          -0.000
   -758216.150 9   -586949.16949  20772742.499    20772741.6904   20772746.9574
        -0.000          -0.000
 97  3  3 15 56  0.0000000  0  9 22  3 19 27 18 31 29 14 16          0.000002407
   3357580.370 9   2609711.77747  22503671.625    22503670.6634   22503675.6044
        -0.000          -0.000
  -5431860.309 9  -4219952.55646  23979783.063    23979782.4524   23979788.3394
        -0.000          -0.000
  -5282709.293 9  -4100374.42248  21849431.585    21849431.1344   21849436.0844
        -0.000          -0.000
  -3702391.155 9  -2386641.76845  24960061.544    24960060.9994   24960066.2634
        -0.000          -0.000
  -5943299.339 9  -4622096.68548  21068730.071    21068729.4924   21068733.8964
        -0.000          -0.000
  -6055636.558 8  -4701847.97545  24462302.045    24462301.6814   24462308.0754
        -0.000          -0.000
   1070876.694 9    813574.29448  21727402.746    21727402.5524   21727406.7044
        -0.000          -0.000
   3320486.184 9   2403858.89548  21712471.610    21712471.1294   21712476.5264
        -0.000          -0.000
   -751007.758 9   -581332.25149  20774114.250    20774113.4604   20774118.6944
        -0.000          -0.000
 97  3  3 15 56 30.0000000  0  9 22  3 19 27 18 31 29 14 16         -0.000012865
   3421076.743 9   2659189.45647  22515754.650    22515753.6884   22515758.5414
        -0.000          -0.000
  -5514942.252 9  -4284691.68046  23963972.936    23963972.4274   23963978.4304
        -0.000          -0.000
  -5355623.658 9  -4157190.80248  21835556.457    21835555.9994   21835560.9254
        -0.000          -0.000
  -3801064.806 9  -2463530.33645  24941284.464    24941283.8594   24941289.3404
        -0.000          -0.000
  -6026715.388 9  -4687096.20248  21052856.490    21052855.9514   21052860.3634
        -0.000          -0.000
  -6166084.293 8  -4787911.16045  24441284.465    24441284.0014   24441290.3934
        -0.000          -0.000
   1096690.733 9    833689.11048  21732315.052    21732314.8224   21732318.9614
        -0.000          -0.000
   3383772.068 9   2453172.53648  21724514.563    21724514.1124   21724519.5114
        -0.000          -0.000
   -743234.610 9   -575275.26749  20775593.411    20775592.6364   20775597.8944
        -0.000          -0.000
 97  3  3 15 56 59.9990000  0  9 22  3 19 27 18 31 29 14 16         -0.000028146
   3484899.397 9   2708921.37347  22527899.800    22527898.7904   22527903.5584
        -0.000          -0.000
  -5597776.207 9  -4349237.58946  23948209.987    23948209.6494   23948215.3984
        -0.000          -0.000
  -5428344.712 9  -4213856.53748  21821718.085    21821717.6194   21821722.5614
        -0.000          -0.000
  -3899683.925 9  -2540376.41445  24922517.773    24922517.3204   24922522.8484
        -0.000          -0.000
  -6109935.402 9  -4751942.96648  21037020.269    21037019.7244   21037024.1304
        -0.000          -0.000
  -6276582.814 8  -4874013.91345  24420257.194    24420256.7384   24420263.0514
        -0.000          -0.000
   1122763.234 9    854005.32948  21737276.514    21737276.2774   21737280.3764
        -0.000          -0.000
   3447395.757 9   2502749.41748  21736621.819    21736621.3004   21736626.6584
        -0.000          -0.000
   -734898.891 9   -568779.92049  20777179.665    20777178.8984   20777184.1604
        -0.000          -0.000
 97  3  3 15 57 29.9990000  0  9 22  3 19 27 18 31 29 14 16         -0.000043440
   3549046.062 9   2758905.76247  22540106.593    22540105.5504   22540110.2554
        -0.000          -0.000
  -5680376.125 9  -4413601.15046  23932491.858    23932491.3614   23932497.0774
        -0.000          -0.000
  -5500876.466 9  -4270374.75948  21807915.743    21807915.2454   21807920.2084
        -0.000          -0.000
  -3998255.020 9  -2617185.05645  24903760.458    24903759.9164   24903765.3984
        -0.000          -0.000
  -6192973.029 9  -4816647.60448  21021218.732    21021218.2034   21021222.5964
        -0.000          -0.000
  -6387158.603 8  -4960176.84545  24399215.386    24399214.8554   24399221.0994
        -0.000          -0.000
   1149097.745 9    874525.70748  21742287.821    21742287.5874   21742291.7534
        -0.000          -0.000
   3511358.383 9   2552590.38848  21748793.467    21748793.0144   21748798.4304
        -0.000          -0.000
   -726013.440 9   -561856.19849  20778870.564    20778869.7884   20778875.0284
        -0.000          -0.000
 97  3  3 15 57 59.9990000  0  9 22  3 19 27 18 31 29 14 16         -0.000058737
   3613519.482 9   2809144.76647  22552375.495    22552374.4664   22552379.0824
        -0.000          -0.000
  -5762734.969 9  -4477776.82246  23916819.425    23916818.9214   23916824.7184
        -0.000          -0.000
  -5573209.424 9  -4326738.08348  21794151.192    21794150.7234   21794155.7024
        -0.000          -0.000
  -4096745.788 9  -2693931.10945  24885018.311    24885017.8414   24885023.3214
        -0.000          -0.000
  -6275796.873 9  -4881185.66148  21005457.909    21005457.3744   21005461.7114
        -0.000          -0.000
  -6497800.059 9  -5046390.92945  24378161.166    24378160.4914   24378166.8014
        -0.000          -0.000
   1175718.687 9    895269.27748  21747353.620    21747353.3704   21747357.5444
        -0.000          -0.000
   3575670.622 9   2602703.78748  21761031.779    21761031.2624   21761036.7814
        -0.000          -0.000
   -716584.590 9   -554509.06149  20780664.810    20780664.0264   20780669.3234
        -0.000          -0.000
 97  3  3 15 58 29.9990000  0  9 22  3 19 27 18 31 29 14 16         -0.000074045
   3678298.504 9   2859621.91247  22564702.552    22564701.5224   22564706.1364
        -0.000          -0.000
  -5844865.001 9  -4541774.19246  23901190.496    23901190.1214   23901195.9674
        -0.000          -0.000
  -5645361.337 9  -4382960.33348  21780421.091    21780420.6584   21780425.6604
        -0.000          -0.000
  -4195152.377 8  -2770611.57245  24866292.075    24866291.5644   24866297.2994
        -0.000          -0.000
  -6358401.894 9  -4945553.20348  20989738.715    20989738.1574   20989742.4364
        -0.000          -0.000
  -6608525.406 9  -5132670.40645  24357090.823    24357090.1774   24357096.5354
        -0.000          -0.000
   1202627.964 9    916237.52748  21752474.278    21752474.0554   21752478.2364
        -0.000          -0.000
   3640339.518 9   2653095.10648  21773337.727    21773337.2924   21773342.7994
        -0.000          -0.000
   -706625.990 9   -546749.13049  20782559.891    20782559.1144   20782564.4114
        -0.000          -0.000
 97  3  3 15 58 59.9990000  0  9 22  3 19 27 18 31 29 14 16         -0.000089374
   3743375.149 9   2910330.96247  22577086.245    22577085.2194   22577089.8544
        -0.000          -0.000
  -5926781.353 9  -4605605.07346  23885602.306    23885601.9724   23885607.7944
        -0.000          -0.000
  -5717338.675 9  -4439046.56148  21766724.238    21766723.8114   21766728.7984
        -0.000          -0.000
  -4293479.541 8  -2847230.14745  24847581.157    24847580.6984   24847586.4074
        -0.000          -0.000
  -6440779.393 9  -5009743.46048  20974062.781    20974062.2494   20974066.4974
        -0.000          -0.000
  -6719341.377 8  -5219020.49145  24336003.277    24336002.5664   24336009.0504
        -0.000          -0.000
   1229842.909 9    937443.95948  21757653.130    21757652.8904   21757657.0344
        -0.000          -0.000
   3705357.141 9   2703758.16648  21785710.261    21785709.8274   21785715.2944
        -0.000          -0.000
   -696128.037 9   -538568.92749  20784557.576    20784556.8014   20784562.0994
        -0.000          -0.000
 97  3  3 15 59 29.9990000  0  9 22  3 19 27 18 31 29 14 16         -0.000104721
   3808759.150 9   2961279.51047  22589528.433    22589527.4254   22589532.0994
        -0.000          -0.000
  -6008483.377 9  -4669268.95146  23870054.928    23870054.6254   23870060.2954
        -0.000          -0.000
  -5789129.622 9  -4494987.54548  21753062.891    21753062.4984   21753067.4534
        -0.000          -0.000
  -4391718.229 8  -2923779.78145  24828886.887    24828886.4504   24828892.0644
        -0.000          -0.000
  -6522905.042 9  -5073737.46548  20958434.811    20958434.2884   20958438.4734
        -0.000          -0.000
  -6830238.331 8  -5305433.67345  24314900.224    24314899.5064   24314906.0044
        -0.000          -0.000
   1257384.661 9    958905.05048  21762894.161    21762893.9324   21762898.0694
        -0.000          -0.000
   3770720.117 9   2754690.30748  21798148.422    21798148.0064   21798153.5044
        -0.000          -0.000
   -685081.162 9   -529960.99249  20786659.684    20786658.9454   20786664.2204
        -0.000          -0.000
 97  3  3 15 59 59.9990000  0  9 22  3 19 27 18 31 29 14 16         -0.000120075
   3874457.430 9   3012472.95847  22602030.448    22602029.4014   22602034.1064
        -0.000          -0.000
  -6089956.840 9  -4732754.73846  23854551.106    23854550.6694   23854556.2694
        -0.000          -0.000
  -5860733.767 9  -4550782.96548  21739437.130    21739436.6914   21739441.6134
        -0.000          -0.000
  -4489864.796 8  -3000257.60945  24810210.064    24810209.6894   24810215.7094
        -0.000          -0.000
  -6604759.621 9  -5137520.25148  20942858.410    20942857.8814   20942862.0524
        -0.000          -0.000
  -6941179.133 9  -5391881.04845  24293788.726    24293788.1114   24293794.6624
        -0.000          -0.000
   1285261.723 9    980627.41348  21768199.044    21768198.8094   21768202.9694
        -0.000          -0.000
   3836428.808 9   2805891.88148  21810652.436    21810652.0494   21810657.3564
        -0.000          -0.000
   -673482.877 9   -520923.38749  20788866.771    20788866.0174   20788871.3404
        -0.000          -0.000
 97  3  3 16  0 29.9990000  0  9 22  3 19 27 18 31 29 14 16         -0.000135447
   3940454.871 9   3063899.53147  22614589.329    22614588.3274   22614593.0294
        -0.000          -0.000
  -6171215.805 9  -4796073.34846  23839087.955    23839087.5234   23839093.2984
        -0.000          -0.000
  -5932163.577 9  -4606442.53748  21725844.504    21725844.0314   21725848.9804
        -0.000          -0.000
  -4587950.621 8  -3076688.12845  24791545.282    24791544.7024   24791550.5594
        -0.000          -0.000
  -6686370.706 9  -5201113.30348  20927328.299    20927327.8124   20927331.9814
        -0.000          -0.000
  -7052155.974 9  -5478356.46745  24272670.540    24272669.9004   24272676.3424
        -0.000          -0.000
   1313453.292 9   1002594.84648  21773563.729    21773563.4764   21773567.6514
        -0.000          -0.000
   3902459.774 9   2857344.54148  21823217.706    21823217.2414   21823222.6884
        -0.000          -0.000
   -661345.953 9   -511466.06249  20791176.384    20791175.6294   20791180.9524
        -0.000          -0.000
 97  3  3 16  0 59.9990000  0  9 22  3 19 27 18 31 29 14 16         -0.000150840
   4006744.416 9   3115553.70947  22627203.820    22627202.8244   22627207.6124
        -0.000          -0.000
  -6252241.702 9  -4859210.35546  23823669.290    23823668.8584   23823674.6724
        -0.000          -0.000
  -6003415.682 9  -4661963.64148  21712285.614    21712285.1984   21712290.1614
        -0.000          -0.000
  -4686003.414 8  -3153092.81445  24772886.171    24772885.7474   24772891.8144
        -0.000          -0.000
  -6767736.783 9  -5264515.43848  20911844.875    20911844.3814   20911848.5654
        -0.000          -0.000
  -7163152.369 9  -5564847.12845  24251548.813    24251548.1134   24251554.3984
        -0.000          -0.000
   1341952.216 9   1024801.77948  21778986.939    21778986.6814   21778990.8564
        -0.000          -0.000
   3968785.795 9   2909027.10748  21835839.071    21835838.6734   21835844.2404
        -0.000          -0.000
   -648676.371 9   -501593.67649  20793587.401    20793586.6394   20793591.9404
        -0.000          -0.000
 97  3  3 16  1 29.9990000  0  9 22  3 19 27 18 31 29 14 16         -0.000166239
   4073327.502 9   3167436.61347  22639874.186    22639873.1624   22639878.0474
        -0.000          -0.000
  -6333005.315 9  -4922142.99446  23808300.520    23808300.0974   23808305.8254
        -0.000          -0.000
  -6074483.946 9  -4717341.50048  21698761.768    21698761.3304   21698766.2704
        -0.000          -0.000
  -4784018.902 8  -3229468.48545  24754234.519    24754234.0514   24754239.9354
        -0.000          -0.000
  -6848862.043 9  -5327729.92449  20896407.227    20896406.7394   20896410.9334
        -0.000          -0.000
  -7274153.554 9  -5651341.53345  24230426.119    24230425.2654   24230431.5614
        -0.000          -0.000
   1370742.747 9   1047235.94448  21784465.629    21784465.3584   21784469.4894
        -0.000          -0.000
   4035414.223 9   2960945.35347  21848518.159    21848517.7064   21848523.1524
        -0.000          -0.000
   -635496.973 9   -491324.03449  20796095.417    20796094.6434   20796099.9534
        -0.000          -0.000
 97  3  3 16  1 59.9990000  0  9 22  3 19 27 18 31 29 14 16         -0.000181635
   4140211.734 9   3219554.17247  22652601.846    22652600.8214   22652605.7634
        -0.000          -0.000
  -6413475.110 9  -4984846.69246  23792987.596    23792987.1784   23792992.9114
        -0.000          -0.000
  -6145369.247 9  -4772576.78548  21685272.739    21685272.2984   21685277.2654
        -0.000          -0.000
  -4881987.892 8  -3305807.94745  24735591.499    24735591.0564   24735597.2214
        -0.000          -0.000
  -6929759.093 9  -5390766.58849  20881013.077    20881012.5864   20881016.7684
        -0.000          -0.000
  -7385147.980 9  -5737830.66745  24209304.548    24209303.8384   24209309.8544
        -0.000          -0.000
   1399825.174 9   1069897.55248  21789999.866    21789999.5974   21790003.7364
        -0.000          -0.000
   4102363.112 9   3013113.26847  21861258.099    21861257.6464   21861263.1924
        -0.000          -0.000
   -621811.481 9   -480660.03149  20798699.683    20798698.9004   20798704.2154
        -0.000          -0.000
 97  3  3 16  2 29.9990000  0  9 22  3 19 27 18 31 29 14 16         -0.000197026
   4207386.618 9   3271898.20347  22665384.862    22665383.8314   22665388.7534
        -0.000          -0.000
  -6493633.033 9  -5047307.38646  23777734.056    23777733.6074   23777739.2204
        -0.000          -0.000
  -6216057.064 9  -4827658.19448  21671821.294    21671820.8814   21671825.8114
        -0.000          -0.000
  -4979906.140 8  -3382107.86845  24716958.550    24716958.0354   24716963.9634
        -0.000          -0.000
  -7010435.402 9  -5453631.23749  20865660.956    20865660.4344   20865664.6444
        -0.000          -0.000
  -7496139.178 9  -5824317.29345  24188183.667    24188182.9194   24188189.0054
        -0.000          -0.000
   1429191.965 9   1092780.74248  21795588.222    21795587.9484   21795592.0694
        -0.000          -0.000
   4169638.710 9   3065535.78647  21874060.351    21874059.8734   21874065.3324
        -0.000          -0.000
   -607605.138 9   -469590.16749  20801403.090    20801402.3294   20801407.6224
        -0.000          -0.000
 97  3  3 16  2 59.9990000  0  9 22  3 19 27 18 31 29 14 16         -0.000212418
   4274834.597 9   3324455.04947  22678219.837    22678218.7864   22678223.6644
        -0.000          -0.000
  -6573483.855 9  -5109528.77046  23762539.045    23762538.5074   23762544.1384
        -0.000          -0.000
  -6286553.781 9  -4882590.69248  21658406.236    21658405.8084   21658410.6934
        -0.000          -0.000
  -5077764.794 8  -3458361.33245  24698336.510    24698336.0984   24698341.9644
        -0.000          -0.000
  -7090896.439 9  -5516328.15049  20850349.725    20850349.2034   20850353.4284
        -0.000          -0.000
  -7607152.844 9  -5910821.45045  24167058.478    24167057.8334   24167063.8024
        -0.000          -0.000
   1458826.852 9   1115872.84348  21801227.563    21801227.3044   21801231.4534
        -0.000          -0.000
   4237233.987 9   3118207.40047  21886923.268    21886922.7794   21886928.2444
        -0.000          -0.000
   -592881.176 9   -458116.96849  20804204.989    20804204.2194   20804209.5064
        -0.000          -0.000
 97  3  3 16  3 29.9990000  0  9 22  3 19 27 18 31 29 14 16         -0.000227802
   4342574.299 9   3377239.21447  22691110.304    22691109.2924   22691114.0894
        -0.000          -0.000
  -6653039.215 9  -5171519.91146  23747400.052    23747399.6184   23747405.2874
        -0.000          -0.000
  -6356845.897 9  -4937363.75148  21645030.116    21645029.6984   21645034.5394
        -0.000          -0.000
  -5175528.482 8  -3534540.80845  24679732.440    24679732.1364   24679738.0574
        -0.000          -0.000
  -7171145.740 9  -5578860.07049  20835078.776    20835078.2354   20835082.4934
        -0.000          -0.000
  -7718183.970 8  -5997339.20145  24145930.124    24145929.2414   24145935.1284
        -0.000          -0.000
   1488745.094 9   1139185.73748  21806920.830    21806920.6034   21806924.7704
        -0.000          -0.000
   4305179.770 9   3171152.13847  21899852.911    21899852.5174   21899857.9654
        -0.000          -0.000
   -577611.135 9   -446218.25149  20807110.794    20807110.0184   20807115.3194
        -0.000          -0.000
 97  3  3 16  3 59.9990000  0  9 22  3 19 27 18 31 29 14 16         -0.000243193
   4410589.679 9   3430238.19047  22704053.160    22704052.1624   22704056.9064
        -0.000          -0.000
  -6732317.287 9  -5233294.98446  23732313.838    23732313.3214   23732319.2274
        -0.000          -0.000
  -6426938.243 9  -4991981.14848  21631692.039    21631691.5724   21631696.4134
        -0.000          -0.000
  -5273203.984 8  -3610651.55445  24661145.554    24661145.2644   24661151.0644
        -0.000          -0.000
  -7251182.429 9  -5641226.32249  20819848.277    20819847.7794   20819852.0614
        -0.000          -0.000
  -7829247.929 9  -6083882.52645  24124795.354    24124794.4524   24124800.4214
        -0.000          -0.000
   1518954.600 9   1162725.58748  21812669.482    21812669.2834   21812673.4434
        -0.000          -0.000
   4373454.736 9   3224353.37147  21912845.318    21912844.8644   21912850.4074
        -0.000          -0.000
   -561776.324 9   -433879.46049  20810124.056    20810123.3014   20810128.6104
        -0.000          -0.000
 97  3  3 16  4 29.9990000  0  9 22  3 19 27 18 31 29 14 16         -0.000258607
   4478859.418 9   3483435.35147  22717044.393    22717043.3784   22717048.1464
        -0.000          -0.000
  -6811355.567 9  -5294883.20846  23717273.283    23717272.8144   23717278.6604
        -0.000          -0.000
  -6496841.795 9  -5046451.42948  21618389.811    21618389.3414   21618394.2034
        -0.000          -0.000
  -5370802.112 8  -3686702.01945  24642573.205    24642572.8824   24642578.8444
        -0.000          -0.000
  -7331000.746 9  -5703422.41049  20804659.377    20804658.8444   20804663.1164
        -0.000          -0.000
  -7940358.862 9  -6170462.42945  24103651.565    24103650.6604   24103656.6694
        -0.000          -0.000
   1549450.458 9   1186488.57048  21818472.705    21818472.4764   21818476.6724
        -0.000          -0.000
   4442025.821 9   3277785.34447  21925893.835    21925893.4504   21925899.0044
        -0.000          -0.000
   -545384.517 9   -421106.64349  20813243.313    20813242.5324   20813247.8774
        -0.000          -0.000
 97  3  3 16  4 59.9990000  0  9 22  3 19 27 18 31 29 14 16         -0.000274040
   4547402.415 9   3536845.45947  22730087.598    22730086.6394   22730091.4404
        -0.000          -0.000
  -6890162.062 9  -5356290.85946  23702276.953    23702276.5154   23702282.1894
        -0.000          -0.000
  -6566571.344 9  -5100786.12548  21605120.665    21605120.2374   21605125.1064
        -0.000          -0.000
  -5468320.424 9  -3762690.31046  24624016.098    24624015.8384   24624021.5744
        -0.000          -0.000
  -7410585.502 9  -5765436.50349  20789514.896    20789514.3694   20789518.6774
        -0.000          -0.000
  -8051513.353 9  -6257076.30645  24082499.381    24082498.5934   24082504.6064
        -0.000          -0.000
   1580249.433 9   1210487.75348  21824333.592    21824333.3284   21824337.5294
        -0.000          -0.000
   4510887.232 9   3331443.56947  21938997.869    21938997.4484   21939002.9394
        -0.000          -0.000
   -528445.824 9   -407907.68349  20816466.657    20816465.8904   20816471.2514
        -0.000          -0.000
 97  3  3 16  5 29.9990000  0  9 22  3 19 27 18 31 29 14 16         -0.000289487
   4616228.615 9   3590476.23647  22743184.837    22743183.8214   22743188.6854
        -0.000          -0.000
  -6968716.061 9  -5417501.73246  23687328.667    23687328.1244   23687333.8894
        -0.000          -0.000
  -6636125.980 9  -5154984.53648  21591884.806    21591884.3694   21591889.2514
        -0.000          -0.000
  -5565771.081 9  -3838625.86346  24605471.859    24605471.5664   24605477.3874
        -0.000          -0.000
  -7489920.179 9  -5827255.73149  20774417.992    20774417.4704   20774421.7904
        -0.000          -0.000
  -8162688.041 9  -6343705.90145  24061343.479    24061342.7294   24061348.5734
        -0.000          -0.000
   1611367.504 9   1234735.58548  21830255.168    21830254.9494   21830259.1244
        -0.000          -0.000
   4580030.230 9   3385321.16147  21952155.281    21952154.8494   21952160.5654
        -0.000          -0.000
   -510967.921 9   -394288.55549  20819792.620    20819791.8384   20819797.2294
        -0.000          -0.000
 97  3  3 16  5 59.9990000  0  9 22  3 19 27 18 31 29 14 16         -0.000304942
   4685335.804 9   3644325.97047  22756335.536    22756334.4974   22756339.3594
        -0.000          -0.000
  -7046992.514 9  -5478496.31246  23672433.073    23672432.4964   23672438.3834
        -0.000          -0.000
  -6705504.521 9  -5209045.71948  21578682.557    21578682.0894   21578686.9544
        -0.000          -0.000
  -5663160.167 9  -3914513.46846  24586939.430    24586939.1364   24586944.9224
        -0.000          -0.000
  -7568974.318 9  -5888856.36149  20759374.482    20759373.9644   20759378.2954
        -0.000          -0.000
  -8273871.779 9  -6430342.52745  24040185.812    24040185.1464   24040191.1344
        -0.000          -0.000
   1642809.658 9   1259235.94148  21836238.482    21836238.2074   21836242.3544
        -0.000          -0.000
   4649432.545 9   3439400.86247  21965362.102    21965361.7464   21965367.3574
        -0.000          -0.000
   -492976.954 9   -380269.64349  20823216.177    20823215.3984   20823220.8194
        -0.000          -0.000
 97  3  3 16  6 29.9990000  0  9 22  3 19 27 18 31 29 14 16         -0.000320412
   4754721.363 9   3698392.61847  22769539.105    22769538.1264   22769543.0294
        -0.000          -0.000
  -7124997.887 9  -5539279.67446  23657589.089    23657588.5324   23657594.4444
        -0.000          -0.000
  -6774722.871 9  -5262982.07448  21565510.745    21565510.2884   21565515.1384
        -0.000          -0.000
  -5760517.463 9  -3990376.27946  24568412.914    24568412.5924   24568418.3824
        -0.000          -0.000
  -7647756.810 9  -5950245.31149  20744382.682    20744382.1834   20744386.5174
        -0.000          -0.000
  -8385061.645 8  -6516983.96945  24019026.949    24019026.4044   24019032.3804
        -0.000          -0.000
   1674555.427 9   1283972.88548  21842279.440    21842279.2254   21842283.3754
        -0.000          -0.000
   4719089.308 9   3493678.84247  21978617.406    21978617.0004   21978622.5784
        -0.000          -0.000
   -474504.446 9   -365875.49349  20826731.358    20826730.5944   20826736.0314
        -0.000          -0.000
 97  3  3 16  6 59.9990000  0  9 22  3 19 27 18 31 29 14 16         -0.000335893
   4824386.761 9   3752677.31447  22782796.145    22782795.1094   22782799.9584
        -0.000          -0.000
  -7202705.122 9  -5599830.76746  23642802.109    23642801.5494   23642807.1444
        -0.000          -0.000
  -6843760.736 9  -5316777.79348  21552373.281    21552372.8334   21552377.6384
        -0.000          -0.000
  -5857849.502 9  -4066219.41146  24549891.318    24549890.9444   24549896.6154
        -0.000          -0.000
  -7726265.965 9  -6011421.27249  20729442.922    20729442.3964   20729446.7304
        -0.000          -0.000
  -8496248.478 8  -6603623.03845  23997868.803    23997868.2614   23997874.2284
        -0.000          -0.000
   1706606.177 9   1308947.47348  21848378.563    21848378.3324   21848382.5084
        -0.000          -0.000
   4789012.511 9   3548164.38847  21991923.370    21991922.9684   21991928.6694
        -0.000          -0.000
   -455553.144 9   -351108.26749  20830337.681    20830336.9284   20830342.3784
        -0.000          -0.000
 97  3  3 16  7 29.9990000  0  9 22  3 19 27 18 31 29 14 16         -0.000351381
   4894332.446 9   3807180.41747  22796106.385    22796105.4044   22796110.2444
        -0.000          -0.000
  -7280094.963 9  -5660134.50346  23628075.249    23628074.7154   23628080.3864
        -0.000          -0.000
  -6912593.901 9  -5370414.01648  21539274.778    21539274.3314   21539279.1444
        -0.000          -0.000
  -5955144.844 9  -4142033.95146  24531376.711    24531376.1824   24531381.9284
        -0.000          -0.000
  -7804493.828 9  -6072378.04949  20714556.675    20714556.1614   20714560.4834
        -0.000          -0.000
  -8607417.996 8  -6690248.58945  23976714.029    23976713.3774   23976719.4594
        -0.000          -0.000
   1738958.440 9   1334157.00248  21854534.998    21854534.7804   21854538.9524
        -0.000          -0.000
   4859212.567 9   3602865.70647  22005282.064    22005281.6514   22005287.3174
        -0.000          -0.000
   -436105.573 9   -335954.33349  20834038.465    20834037.6864   20834043.1254
        -0.000          -0.000
 97  3  3 16  7 59.9990000  0  9 22  3 19 27 18 31 29 14 16         -0.000366885
   4964536.628 9   3861884.96247  22809465.982    22809464.9754   22809469.7704
        -0.000          -0.000
  -7357193.866 9  -5720211.50946  23613403.638    23613403.1314   23613408.9764
        -0.000          -0.000
  -6981244.317 9  -5423907.83648  21526211.026    21526210.5754   21526215.4164
        -0.000          -0.000
  -6052403.321 9  -4217819.76646  24512869.006    24512868.5744   24512874.2194
        -0.000          -0.000
  -7882459.747 9  -6133130.71249  20699720.260    20699719.7424   20699724.0524
        -0.000          -0.000
  -8718587.980 8  -6776874.51545  23955558.946    23955558.4024   23955564.5344
        -0.000          -0.000
   1771583.846 9   1359579.37748  21860743.491    21860743.2324   21860747.4274
        -0.000          -0.000
   4929687.961 9   3657781.56947  22018693.081    22018692.6774   22018698.2864
        -0.000          -0.000
   -416158.387 9   -320411.08849  20837834.279    20837833.5284   20837838.9674
        -0.000          -0.000
 97  3  3 16  8 29.9990000  0  9 22  3 19 27 18 31 29 14 16         -0.000382405
   5034996.959 9   3916789.09747  22822874.224    22822873.1844   22822878.0184
        -0.000          -0.000
  -7433997.445 9  -5780058.42346  23598788.291    23598787.8604   23598793.7584
        -0.000          -0.000
  -7049702.499 9  -5477251.85748  21513183.846    21513183.3934   21513188.2264
        -0.000          -0.000
  -6149610.083 9  -4293565.26546  24494371.196    24494370.8204   24494376.3254
        -0.000          -0.000
  -7960161.397 9  -6193677.45649  20684934.104    20684933.5784   20684937.9244
        -0.000          -0.000
  -8829743.025 9  -6863488.82145  23934406.984    23934406.4554   23934412.3464
        -0.000          -0.000
   1804480.418 9   1385213.04548  21867003.495    21867003.2684   21867007.4424
        -0.000          -0.000
   5000461.250 9   3712929.55247  22032160.867    22032160.4824   22032166.0914
        -0.000          -0.000
   -395679.979 9   -304453.90749  20841731.243    20841730.4604   20841735.9134
        -0.000          -0.000
 97  3  3 16  8 59.9990000  0  9 22  3 19 27 18 31 29 14 16         -0.000397935
   5105698.597 9   3971881.26847  22836328.246    22836327.2304   22836332.1664
        -0.000          -0.000
  -7510508.801 9  -5839677.63146  23584228.614    23584228.1294   23584233.9764
        -0.000          -0.000
  -7117975.627 9  -5530451.68448  21500191.844    21500191.4074   21500196.2904
        -0.000          -0.000
  -6246737.263 9  -4369248.75646  24475888.584    24475888.1064   24475893.6284
        -0.000          -0.000
  -8037599.605 9  -6254018.91849  20670198.098    20670197.5504   20670201.9294
        -0.000          -0.000
  -8940894.850 9  -6950100.57845  23913255.666    23913255.1084   23913260.8834
        -0.000          -0.000
   1837647.150 9   1411057.22848  21873314.893    21873314.6494   21873318.8874
        -0.000          -0.000
   5071517.437 9   3768297.97347  22045682.539    22045682.0724   22045687.7684
        -0.000          -0.000
   -374663.490 9   -288077.44149  20845730.587    20845729.8314   20845735.2304
        -0.000          -0.000
 97  3  3 16  9 29.9990000  0  9 22  3 19 27 18 31 29 14 16         -0.000413473
   5176645.663 9   4027164.66647  22849829.008    22849827.9534   22849832.9624
        -0.000          -0.000
  -7586741.143 9  -5899079.42946  23569722.117    23569721.5324   23569727.2554
        -0.000          -0.000
  -7186093.024 9  -5583530.16148  21487229.566    21487229.1014   21487233.9864
        -0.000          -0.000
  -6343774.190 9  -4444861.95746  24457423.034    24457422.5584   24457428.1094
        -0.000          -0.000
  -8114770.715 9  -6314152.25249  20655512.896    20655512.3664   20655516.7614
        -0.000          -0.000
  -9052042.941 8  -7036709.42345  23892104.788    23892104.1714   23892109.9674
        -0.000          -0.000
   1871076.808 9   1437106.28648  21879676.335    21879676.1354   21879680.3464
        -0.000          -0.000
   5142843.143 9   3823876.40847  22059255.290    22059254.8954   22059260.5794
        -0.000          -0.000
   -353106.303 9   -271279.65549  20849832.818    20849832.0414   20849837.4414
        -0.000          -0.000
 97  3  3 16  9 59.9990000  0  9 22  3 19 27 18 31 29 14 16         -0.000429027
   5247820.368 9   4082625.45446  22863372.969    22863371.9874   22863377.0334
        -0.000          -0.000
  -7662710.447 9  -5958276.25646  23555265.684    23555265.1094   23555270.8424
        -0.000          -0.000
  -7254076.497 9  -5636504.27848  21474292.699    21474292.2274   21474297.1534
        -0.000          -0.000
  -6440737.980 9  -4520418.14546  24438971.547    24438971.0634   24438976.4394
        -0.000          -0.000
  -8191685.357 9  -6374085.73849  20640876.551    20640876.0294   20640880.3934
        -0.000          -0.000
  -9163199.568 9  -7123324.93645  23870952.169    23870951.7044   23870957.4354
        -0.000          -0.000
   1904771.894 9   1463362.16948  21886088.340    21886088.1164   21886092.3344
        -0.000          -0.000
   5214423.228 9   3879653.08847  22072876.618    22072876.2364   22072881.8134
        -0.000          -0.000
   -331045.151 9   -254089.16949  20854030.869    20854030.1254   20854035.5554
        -0.000          -0.000
 97  3  3 16 10 29.9990000  0  9 22  3 19 27 18 31 29 14 16         -0.000444555
   5319295.091 9   4138320.01546  22876974.175    22876973.1414   22876978.1714
        -0.000          -0.000
  -7738345.719 9  -6017212.80046  23540872.803    23540872.2034   23540877.8784
        -0.000          -0.000
  -7321856.743 9  -5689320.03248  21461394.550    21461394.0964   21461398.9854
        -0.000          -0.000
  -6537578.649 9  -4595878.41245  24420543.218    24420542.7304   24420548.1034
        -0.000          -0.000
  -8268294.022 9  -6433780.79849  20626298.406    20626297.8814   20626302.2124
        -0.000          -0.000
  -9274302.858 9  -7209898.89445  23849809.981    23849809.3314   23849815.1604
        -0.000          -0.000
   1938806.086 9   1489882.28948  21892564.880    21892564.6634   21892568.8844
        -0.000          -0.000
   5286306.581 9   3935666.03347  22086555.575    22086555.1664   22086560.8764
        -0.000          -0.000
   -308444.372 9   -236478.19149  20858331.720    20858330.9684   20858336.4004
        -0.000          -0.000
 97  3  3 16 10 59.9990000  0  9 22  3 19 27 18 31 29 14 16         -0.000460057
   5391076.485 9   4194253.56146  22890633.797    22890632.7144   22890637.5714
        -0.000          -0.000
  -7813649.041 9  -6075890.67446  23526542.937    23526542.3044   23526548.0624
        -0.000          -0.000
  -7389446.402 9  -5741987.28048  21448532.646    21448532.2204   21448537.1254
        -0.000          -0.000
  -6634307.404 9  -4671251.48245  24402136.352    24402135.9534   24402141.1244
        -0.000          -0.000
  -8344617.281 9  -6493253.46749  20611774.629    20611774.1164   20611778.4324
        -0.000          -0.000
  -9385370.839 9  -7296445.31746  23828674.416    23828673.7834   23828679.6684
        -0.000          -0.000
   1973183.929 9   1516670.19548  21899106.798    21899106.5644   21899110.8064
        -0.000          -0.000
   5358485.715 9   3991909.47147  22100290.773    22100290.4174   22100296.1544
        -0.000          -0.000
   -285330.334 9   -218467.27249  20862730.183    20862729.4234   20862734.8964
        -0.000          -0.000
 97  3  3 16 11 29.9990000  0  9 22  3 19 27 18 31 29 14 16         -0.000475545
   5463148.100 9   4250413.22146  22904348.580    22904347.5694   22904352.3274
        -0.000          -0.000
  -7888625.817 9  -6134314.10146  23512275.249    23512274.6814   23512280.4404
        -0.000          -0.000
  -7456854.491 9  -5794513.04748  21435705.274    21435704.8414   21435709.7664
        -0.000          -0.000
  -6730957.797 8  -4746563.48545  24383744.346    24383743.9754   24383749.1324
        -0.000          -0.000
  -8420673.282 9  -6552517.87949  20597301.708    20597301.1854   20597305.4834
        -0.000          -0.000
  -9496401.801 9  -7382962.90246  23807545.846    23807545.2494   23807551.2124
        -0.000          -0.000
   2007887.657 9   1543712.03648  21905710.687    21905710.4724   21905714.7014
        -0.000          -0.000
   5430957.475 9   4048380.96847  22114081.899    22114081.4804   22114087.0174
        -0.000          -0.000
   -261732.496 9   -200079.36849  20867220.695    20867219.9344   20867225.4234
        -0.000          -0.000
 97  3  3 16 11 59.9990000  0  9 22  3 19 27 18 31 29 14 16         -0.000491020
   5535488.618 9   4306782.42246  22918114.632    22918113.6304   22918118.2854
        -0.000          -0.000
  -7963256.918 9  -6192468.18546  23498073.530    23498072.9834   23498078.5904
        -0.000          -0.000
  -7524061.717 9  -5846882.30448  21422916.084    21422915.6844   21422920.5864
        -0.000          -0.000
  -6827535.602 9  -4821818.91145  24365366.077    24365365.6094   24365371.0944
        -0.000          -0.000
  -8496467.935 9  -6611578.64449  20582878.446    20582877.9304   20582882.2254
        -0.000          -0.000
  -9607395.054 9  -7469451.08346  23786424.636    23786424.0314   23786429.8304
        -0.000          -0.000
   2042921.156 9   1571010.84148  21912377.366    21912377.1574   21912381.3394
        -0.000          -0.000
   5503727.967 9   4105085.19847  22127929.588    22127929.1344   22127934.8244
        -0.000          -0.000
   -237656.403 9   -181318.79549  20871802.236    20871801.4734   20871806.9714
        -0.000          -0.000
 97  3  3 16 12 29.9990000  0  9 22  3 19 27 18 31 29 14 16         -0.000506484
   5608086.001 9   4363351.77546  22931929.563    22931928.5064   22931933.2154
        -0.000          -0.000
  -8037534.728 9  -6250346.96346  23483938.868    23483938.3284   23483944.0014
        -0.000          -0.000
  -7591059.620 9  -5899088.45148  21410166.857    21410166.4304   21410171.2934
        -0.000          -0.000
  -6924034.024 8  -4897012.44945  24347003.141    24347002.5414   24347007.9444
        -0.000          -0.000
  -8571991.209 9  -6670427.94849  20568506.850    20568506.3494   20568510.6254
        -0.000          -0.000
  -9718345.912 9  -7555906.24646  23765311.511    23765310.7584   23765316.6194
        -0.000          -0.000
   2078273.159 9   1598557.83448  21919104.697    21919104.4704   21919108.6594
        -0.000          -0.000
   5576788.714 9   4162015.60947  22141832.603    22141832.2184   22141837.8904
        -0.000          -0.000
   -213073.508 9   -162163.31249  20876480.240    20876479.4944   20876484.9844
        -0.000          -0.000
 97  3  3 16 12 59.9990000  0  9 22  3 19 27 18 31 29 14 16         -0.000521959
   5680900.171 9   4420090.05847  22945785.597    22945784.6244   22945789.3724
        -0.000          -0.000
  -8111476.442 9  -6307963.85646  23469868.116    23469867.6594   23469873.3784
        -0.000          -0.000
  -7657871.046 9  -5951149.29148  21397453.057    21397452.6424   21397457.4844
        -0.000          -0.000
  -7020470.844 8  -4972157.99845  24328651.806    24328651.0464   24328656.7594
        -0.000          -0.000
  -8647232.561 9  -6729057.57749  20554188.835    20554188.3224   20554192.6364
        -0.000          -0.000
  -9829271.060 9  -7642341.37946  23744202.957    23744202.2504   23744208.1564
        -0.000          -0.000
   2113915.229 9   1626330.85248  21925887.161    21925886.9444   21925891.1824
        -0.000          -0.000
   5650109.584 9   4219148.74047  22155785.143    22155784.7004   22155790.3494
        -0.000          -0.000
   -187990.311 9   -142617.98149  20881253.451    20881252.7004   20881258.1454
        -0.000          -0.000
 97  3  3 16 13 29.9990000  0  9 22  3 19 27 18 31 29 14 16         -0.000537455
   5753906.259 9   4476977.89347  22959678.291    22959677.2664   22959682.1144
        -0.000          -0.000
  -8185083.965 9  -6365320.36046  23455861.054    23455860.6464   23455866.1554
        -0.000          -0.000
  -7724493.178 9  -6003062.62948  21384775.297    21384774.8484   21384779.7134
        -0.000          -0.000
  -7116846.294 8  -5047255.72445  24310312.010    24310311.2524   24310317.0724
        -0.000          -0.000
  -8722174.921 9  -6787454.21949  20539927.766    20539927.2644   20539931.5994
        -0.000          -0.000
  -9940162.037 9  -7728749.86646  23723101.040    23723100.3494   23723106.2984
        -0.000          -0.000
   2149845.530 9   1654328.46248  21932724.535    21932724.3014   21932728.4974
        -0.000          -0.000
   5723663.512 9   4276463.44747  22169781.969    22169781.5204   22169787.1494
        -0.000          -0.000
   -162393.473 9   -122672.40949  20886124.408    20886123.6674   20886129.0914
        -0.000          -0.000
 97  3  3 16 13 59.9990000  0  9 22  3 19 27 18 31 29 14 16         -0.000552981
   5827097.255 9   4534009.80346  22973606.122    22973605.0444   22973609.9554
        -0.000          -0.000
  -8258368.982 9  -6422425.53946  23441915.397    23441914.9604   23441920.4704
        -0.000          -0.000
  -7790936.605 9  -6054836.71348  21372131.482    21372131.0224   21372135.9504
        -0.000          -0.000
  -7213172.473 8  -5122315.07545  24291981.560    24291980.8314   24291986.6624
        -0.000          -0.000
  -8796819.273 9  -6845618.65549  20525723.427    20525722.9284   20525727.2414
        -0.000          -0.000
 -10051024.681 9  -7815136.27546  23702004.598    23702003.8044   23702009.7034
        -0.000          -0.000
   2186066.394 9   1682552.48848  21939617.123    21939616.8994   21939621.1554
        -0.000          -0.000
   5797426.764 9   4333941.27547  22183818.741    22183818.3324   22183823.9144
        -0.000          -0.000
   -136279.688 9   -102324.03149  20891093.707    20891092.9574   20891098.4204
        -0.000          -0.000
 97  3  3 16 14 29.9990000  0  9 22  3 19 27 18 31 29 14 16         -0.000568521
   5900525.675 9   4591226.73346  22987579.015    22987578.0214   22987583.0344
        -0.000          -0.000
  -8331316.621 9  -6479267.81646  23428033.809    23428033.3804   23428038.9154
        -0.000          -0.000
  -7857185.167 9  -6106458.95348  21359524.778    21359524.3294   21359529.2314
        -0.000          -0.000
  -7309422.968 8  -5197315.43345  24273665.539    24273665.0024   24273670.6674
        -0.000          -0.000
  -8871136.750 9  -6903528.37649  20511581.262    20511580.7684   20511585.0604
        -0.000          -0.000
 -10161829.339 9  -7901477.50746  23680919.194    23680918.4714   23680924.2514
        -0.000          -0.000
   2222605.144 9   1711024.21048  21946570.194    21946570.0164   21946574.2984
        -0.000          -0.000
   5871416.430 9   4391595.54647  22197898.554    22197898.1154   22197903.6984
        -0.000          -0.000
   -109622.114 9    -81551.91849  20896166.444    20896165.6964   20896171.1984
        -0.000          -0.000
 97  3  3 16 14 59.9990000  0  9 22  3 19 27 18 31 29 14 16         -0.000584078
   5974182.757 9   4648621.82246  23001595.492    23001594.4384   23001599.5704
        -0.000          -0.000
  -8403940.147 9  -6535857.54946  23414214.101    23414213.5474   23414219.0614
        -0.000          -0.000
  -7923265.058 9  -6157949.77148  21346950.196    21346949.7544   21346954.6354
        -0.000          -0.000
  -7405620.995 9  -5272274.92145  24255359.811    24255359.2144   24255364.7414
        -0.000          -0.000
  -8945158.850 9  -6961207.93549  20497495.324    20497494.8694   20497499.1424
        -0.000          -0.000
 -10272583.886 9  -7987779.67146  23659843.252    23659842.5914   23659848.3954
        -0.000          -0.000
   2259455.040 9   1739738.38248  21953582.518    21953582.3714   21953586.6594
        -0.000          -0.000
   5945620.717 9   4449417.03247  22212019.057    22212018.6594   22212024.2914
        -0.000          -0.000
    -82448.042 9    -60377.34249  20901337.514    20901336.7764   20901342.2914
        -0.000          -0.000
 97  3  3 16 15 29.9990000  0  9 22  3 19 27 18 31 29 14 16         -0.000599634
   6048091.056 9   4706212.67746  23015659.785    23015658.6914   23015663.9284
        -0.000          -0.000
  -8476218.003 9  -6592177.94246  23400460.075    23400459.6194   23400465.0474
        -0.000          -0.000
  -7989145.020 9  -6209284.80448  21334413.685    21334413.2234   21334418.0864
        -0.000          -0.000
  -7501740.360 8  -5347173.10145  24237069.032    24237068.3274   24237074.0694
        -0.000          -0.000
  -9018876.046 9  -7018649.90649  20483467.462    20483466.9814   20483471.2304
        -0.000          -0.000
 -10383251.706 9  -8074014.28046  23638783.925    23638783.1714   23638788.9504
        -0.000          -0.000
   2296646.297 9   1768718.54948  21960659.826    21960659.6624   21960663.9664
        -0.000          -0.000
   6020080.736 9   4507437.79847  22226188.463    22226188.0504   22226193.6554
        -0.000          -0.000
    -54744.099 9    -38789.87848  20906609.428    20906608.6964   20906614.1814
        -0.000          -0.000
 97  3  3 16 15 59.9990000  0  9 22  3 19 27 18 31 29 14 16         -0.000615198
   6122231.800 9   4763984.65446  23029768.144    23029767.2244   23029772.4874
        -0.000          -0.000
  -8548171.628 9  -6648245.65746  23386767.727    23386767.1984   23386772.7754
        -0.000          -0.000
  -8054846.783 9  -6260480.97948  21321911.099    21321910.6094   21321915.4904
        -0.000          -0.000
  -7597807.066 9  -5422030.27545  24218787.885    24218787.3824   24218793.2474
        -0.000          -0.000
  -9092320.446 9  -7075879.31149  20469491.477    20469491.0064   20469495.2464
        -0.000          -0.000
 -10493855.622 9  -8160199.10646  23617736.625    23617735.9224   23617741.7014
        -0.000          -0.000
   2334139.865 9   1797934.28548  21967794.639    21967794.4824   21967798.7914
        -0.000          -0.000
   6094791.680 9   4565654.07247  22240405.537    22240405.1184   22240410.7584
        -0.000          -0.000
    -26554.125 9    -16823.68748  20911973.909    20911973.1224   20911978.6044
        -0.000          -0.000
 97  3  3 16 16 29.9990000  0  9 22  3 19 27 18 31 29 14 16         -0.000630762
   6196591.561 9   4821927.29846  23043918.382    23043917.4184   23043922.7244
        -0.000          -0.000
  -8619790.958 9  -6704052.90146  23373139.014    23373138.4834   23373144.1554
        -0.000          -0.000
  -8120367.092 9  -6311535.75348  21309442.967    21309442.4904   21309447.3834
        -0.000          -0.000
  -7693808.463 8  -5496836.52145  24200519.548    24200519.0894   24200524.8694
        -0.000          -0.000
  -9165487.032 9  -7132892.23649  20455568.293    20455567.8154   20455572.0644
        -0.000          -0.000
 -10604391.302 9  -8246330.79346  23596702.192    23596701.6544   23596707.3534
        -0.000          -0.000
   2371925.063 9   1827377.27548  21974984.976    21974984.8244   21974989.1034
        -0.000          -0.000
   6169763.914 9   4624073.97147  22254672.270    22254671.8614   22254677.4944
        -0.000          -0.000
      2120.618 9      5520.24848  20917430.530    20917429.7754   20917435.2444
        -0.000          -0.000
 97  3  3 16 16 59.9990000  0  9 22  3 19 27 18 31 29 14 16         -0.000646344
   6271119.507 9   4880000.98246  23058100.689    23058099.6604   23058104.8854
        -0.000          -0.000
  -8691090.606 9  -6759611.05346  23359571.154    23359570.5974   23359576.1474
        -0.000          -0.000
  -8185717.315 9  -6362457.99848  21297007.157    21297006.7094   21297011.6034
        -0.000          -0.000
  -7789762.021 9  -5571605.50146  24182260.117    24182259.6304   24182265.5684
        -0.000          -0.000
  -9238382.820 9  -7189694.15149  20441696.653    20441696.1884   20441700.4904
        -0.000          -0.000
 -10714864.066 9  -8332413.39646  23575679.873    23575679.2374   23575685.0864
        -0.000          -0.000
   2409979.640 9   1857030.16347  21982226.561    21982226.3814   21982230.6364
        -0.000          -0.000
   6244979.764 9   4682683.70747  22268985.503    22268985.0724   22268990.6004
        -0.000          -0.000
     31257.669 9     28224.41548  20922975.102    20922974.3564   20922979.8654
        -0.000          -0.000
 97  3  3 16 17 29.9990000  0  9 22  3 19 27 18 31 29 14 16         -0.000661911
   6345856.901 9   4938237.88646  23072322.798    23072321.7434   23072327.0084
        -0.000          -0.000
  -8762031.375 9  -6814889.55646  23346071.402    23346070.9324   23346076.4384
        -0.000          -0.000
  -8250845.682 9  -6413207.36648  21284613.655    21284613.1994   21284618.0684
        -0.000          -0.000
  -7885616.298 9  -5646297.14546  24164019.738    24164019.1674   24164025.0924
        -0.000          -0.000
  -9310949.725 9  -7246239.79549  20427887.619    20427887.1284   20427891.4464
        -0.000          -0.000
 -10825228.359 9  -8418411.47746  23554678.232    23554677.6264   23554683.3694
        -0.000          -0.000
   2448334.515 9   1886917.05047  21989525.178    21989525.0094   21989529.3224
        -0.000          -0.000
   6320479.846 9   4741514.89447  22283352.723    22283352.2664   22283357.8594
        -0.000          -0.000
     60885.906 9     51311.33248  20928613.192    20928612.4534   20928617.9654
        -0.000          -0.000
 97  3  3 16 17 59.9990000  0  9 22  3 19 27 18 31 29 14 16         -0.000677470
   6420798.197 9   4996633.67546  23086583.645    23086582.7024   23086588.0404
        -0.000          -0.000
  -8832618.793 9  -6869892.73346  23332639.115    23332638.6624   23332644.1034
        -0.000          -0.000
  -8315766.493 9  -6463794.99748  21272259.632    21272259.1814   21272264.0244
        -0.000          -0.000
  -7981383.240 9  -5720920.73546  24145796.086    24145795.4924   24145801.3054
        -0.000          -0.000
  -9383192.919 9  -7302533.19249  20414140.156    20414139.7154   20414144.0424
        -0.000          -0.000
 -10935491.553 9  -8504330.77345  23533695.770    23533694.9654   23533700.7734
        -0.000          -0.000
   2486976.712 9   1917027.81757  21996878.558    21996878.3694          0.0005
        -0.000          -0.000
   6396237.815 9   4800547.02257  22297768.942    22297768.5654          0.0005
        -0.000          -0.000
     90997.651 9     74775.00548  20934343.311    20934342.5574   20934348.0764
        -0.000          -0.000
 97  3  3 16 18 29.9990000  0  9 22  3 19 27 18 31 29 14 16         -0.000693036
   6495937.329 9   5055183.57645  23100882.239    23100881.2024   23100886.5224
        -0.000          -0.000
  -8902873.246 9  -6924636.43545  23319270.221    23319269.7654   23319274.8534
        -0.000          -0.000
  -8380500.718 9  -6514237.25347  21259941.080    21259940.6694   21259945.5314
        -0.000          -0.000
  -8077079.717 9  -5795489.39645  24127585.675    24127585.2604   24127591.1074
        -0.000          -0.000
  -9455114.628 9  -7358576.08448  20400453.916    20400453.4904   20400457.8024
        -0.000          -0.000
 -11045665.128 9  -8590180.25545  23512730.392    23512729.3254   23512735.0964
        -0.000          -0.000
   2525911.314 9   1947366.43757  22004287.604    22004287.4184   22004291.8265
        -0.000          -0.000
   6472219.563 9   4859753.58356  22312227.919    22312227.4674   22312233.0095
        -0.000          -0.000
    121585.473 9     98609.65848  20940163.974    20940163.2174   20940168.7534
        -0.000          -0.000
 97  3  3 16 18 59.9990000  0  9 22  3 19 27 18 31 29 14 16         -0.000708606
   6571296.028 9   5113904.60855  23115222.792    23115221.6054   23115226.7555
        -0.000          -0.000
  -8972793.250 9  -6979119.54345  23305964.870    23305964.3874   23305969.4814
        -0.000          -0.000
  -8445040.391 9  -6564527.90147  21247659.612    21247659.2024   21247664.0254
        -0.000          -0.000
  -8172704.423 9  -5870002.15045  24109388.939    24109388.6284   24109394.2844
        -0.000          -0.000
  -9526708.571 9  -7414363.57148  20386830.123    20386829.6714   20386833.9184
        -0.000          -0.000
 -11155758.773 9  -8675967.44345  23491780.284    23491779.5104   23491785.1094
        -0.000          -0.000
   2565142.214 9   1977935.94547  22011753.071    22011752.8514   22011757.2534
        -0.000          -0.000
   6548415.360 9   4919126.90146  22326727.544    22326727.0304   22326732.6044
        -0.000          -0.000
    152640.253 9    122808.16748  20946073.564    20946072.8154   20946078.3564
        -0.000          -0.000
 97  3  3 16 19 29.9990000  0  9 22  3 19 27 18 31 29 14 16         -0.000724182
   6646886.365 9   5172806.13746  23129607.241    23129606.1874   23129611.0004
        -0.000          -0.000
  -9042375.270 9  -7033339.32045  23292723.937    23292723.4244   23292728.3994
        -0.000          -0.000
  -8509392.982 9  -6614672.77048  21235413.768    21235413.3494   21235418.1374
        -0.000          -0.000
  -8268262.255 9  -5944462.76745  24091204.829    24091204.2864   24091209.9694
        -0.000          -0.000
  -9597974.565 9  -7469895.51948  20373268.719    20373268.2404   20373272.4764
        -0.000          -0.000
 -11265787.531 9  -8761704.10145  23470842.348    23470841.5454   23470847.3344
        -0.000          -0.000
   2604663.132 9   2008731.44247  22019273.649    22019273.4344   22019277.8554
        -0.000          -0.000
   6624816.814 9   4978660.44047  22341266.146    22341265.7444   22341271.4084
        -0.000          -0.000
    184171.321 9    147377.80948  20952073.691    20952072.9724   20952078.5494
        -0.000          -0.000
 97  3  3 16 19 59.9990000  0  9 22  3 19 27 18 31 29 14 16         -0.000739755
   6722731.062 9   5231905.86346  23144039.977    23144039.0454   23144043.6814
        -0.000          -0.000
  -9111579.670 9  -7087264.80446  23279554.771    23279554.2204   23279559.4484
        -0.000          -0.000
  -8573548.073 9  -6664663.75148  21223205.506    21223205.0814   21223209.8634
        -0.000          -0.000
  -8363733.888 9  -6018856.22346  24073037.381    24073036.7434   24073042.4424
        -0.000          -0.000
  -9668884.471 9  -7525149.99549  20359775.013    20359774.5314   20359778.7934
        -0.000          -0.000
 -11375730.285 9  -8847373.74646  23449920.667    23449919.9894   23449925.9544
        -0.000          -0.000
   2644513.842 9   2039783.91147  22026857.009    22026856.7454   22026861.1484
        -0.000          -0.000
   6701441.116 9   5038367.66147  22355847.388    22355846.9394   22355852.6134
        -0.000          -0.000
    216211.279 9    172343.98648  20958170.721    20958169.9814   20958175.5714
        -0.000          -0.000
 97  3  3 16 20 29.9990000  0  9 22  3 19 27 18 31 29 14 16         -0.000755348
   6798787.266 9   5291170.41146  23158513.077    23158512.0864   23158516.7214
        -0.000          -0.000
  -9180427.943 9  -7140912.78546  23266453.274    23266452.8204   23266458.0794
        -0.000          -0.000
  -8637554.867 9  -6714539.16848  21211025.415    21211025.0034   21211029.7784
        -0.000          -0.000
  -8459154.526 9  -6093209.93846  24054879.545    24054878.8644   24054884.5014
        -0.000          -0.000
  -9739466.515 9  -7580148.99249  20346343.634    20346343.1704   20346347.4624
        -0.000          -0.000
 -11485623.650 9  -8933004.91046  23429008.546    23429007.9664   23429013.9154
        -0.000          -0.000
   2684653.585 9   2071061.60747  22034495.361    22034495.1264   22034499.5584
        -0.000          -0.000
   6778253.247 9   5098221.23247  22370464.224    22370463.7314   22370469.5044
        -0.000          -0.000
    248728.454 9    197682.02548  20964358.548    20964357.8374   20964363.3834
        -0.000          -0.000
 97  3  3 16 20 59.9990000  0  9 22  3 19 27 18 31 29 14 16         -0.000770949
   6875050.782 9   5350596.50446  23173025.698    23173024.5794   23173029.2744
        -0.000          -0.000
  -9248884.771 9  -7194255.76346  23253426.383    23253425.9684   23253431.1934
        -0.000          -0.000
  -8701401.627 9  -6764289.88048  21198875.803    21198875.3744   21198880.1704
        -0.000          -0.000
  -8554504.118 9  -6167508.33246  24036735.125    24036734.4554   24036740.0554
        -0.000          -0.000
  -9809703.149 9  -7634878.84149  20332978.009    20332977.5534   20332981.8974
        -0.000          -0.000
 -11595435.887 9  -9018572.83746  23408112.046    23408111.3914   23408117.3474
        -0.000          -0.000
   2725089.290 9   2102569.91447  22042190.087    22042189.8394   22042194.3134
        -0.000          -0.000
   6855281.024 9   5158242.83147  22385122.031    22385121.6434   22385127.4454
        -0.000          -0.000
    281739.896 9    223405.19848  20970640.465    20970639.7284   20970645.3064
        -0.000          -0.000
 97  3  3 16 21 29.9990000  0  9 22  3 19 27 18 31 29 14 16         -0.000786565
   6951486.872 9   5410157.06946  23187570.965    23187569.8804   23187574.7174
        -0.000          -0.000
  -9316958.958 9  -7247300.57346  23240472.326    23240471.8964   23240477.1714
        -0.000          -0.000
  -8765112.535 9  -6813934.74448  21186752.006    21186751.5974   21186756.3804
        -0.000          -0.000
  -8649795.014 9  -6241760.96446  24018601.890    24018601.2584   24018606.7694
        -0.000          -0.000
  -9879611.775 9  -7689353.09849  20319674.826    20319674.3724   20319678.7354
        -0.000          -0.000
 -11705149.750 9  -9104064.10046  23387234.173    23387233.5464   23387239.4234
        -0.000          -0.000
   2765825.469 9   2134312.35847  22049941.874    22049941.6434   22049946.1754
        -0.000          -0.000
   6932516.355 9   5218426.18847  22399819.521    22399819.1884   22399824.8904
        -0.000          -0.000
    315236.246 9    249506.22448  20977014.601    20977013.8464   20977019.4414
        -0.000          -0.000
 97  3  3 16 21 59.9990000  0  9 22  3 19 27 18 31 29 14 16         -0.000802183
   7028100.584 9   5469856.02646  23202149.919    23202148.9374   23202153.9834
        -0.000          -0.000
  -9384630.665 9  -7300031.74346  23227594.835    23227594.3914   23227599.7694
        -0.000          -0.000
  -8828667.802 9  -6863458.31648  21174657.828    21174657.4104   21174662.2094
        -0.000          -0.000
  -8745014.562 9  -6315958.00446  24000482.223    24000481.6234   24000487.0134
        -0.000          -0.000
  -9949187.346 9  -7743567.83149  20306435.004    20306434.5684   20306438.9284
        -0.000          -0.000
 -11814737.603 9  -9189457.18546  23366380.402    23366379.7924   23366385.5304
        -0.000          -0.000
   2806878.703 9   2166301.86547  22057754.049    22057753.8654   22057758.3664
        -0.000          -0.000
   7009975.973 9   5278784.29347  22414559.658    22414559.2244   22414564.9674
        -0.000          -0.000
    349208.703 9    275978.23948  20983479.319    20983478.5904   20983484.1994
        -0.000          -0.000
 97  3  3 16 22 29.9990000  0  9 22  3 19 27 18 31 29 14 16         -0.000817806
   7104879.016 9   5529683.35146  23216760.348    23216759.4224   23216764.4814
        -0.000          -0.000
  -9451915.684 9  -7352461.62446  23214790.968    23214790.5154   23214795.8044
        -0.000          -0.000
  -8892055.568 9  -6912851.37348  21162595.550    21162595.1204   21162599.9224
        -0.000          -0.000
  -8840169.914 9  -6390105.00846  23982374.585    23982373.9794   23982379.4644
        -0.000          -0.000
 -10018447.141 9  -7797536.50449  20293255.345    20293254.8824   20293259.2114
        -0.000          -0.000
 -11924212.719 9  -9274762.42346  23345548.130    23345547.3934   23345553.0344
        -0.000          -0.000
   2848229.254 9   2198523.04147  22065622.821    22065622.6274   22065627.0894
        -0.000          -0.000
   7087660.554 9   5339317.69147  22429342.450    22429342.0204   22429347.9224
        -0.000          -0.000
    383647.160 9    302813.37748  20990032.805    20990032.0534   20990037.6204
        -0.000          -0.000
 97  3  3 16 22 59.9990000  0  9 22  3 19 27 18 31 29 14 16         -0.000833425
   7181836.207 9   5589649.94646  23231404.917    23231403.8644   23231408.9624
        -0.000          -0.000
  -9518813.731 9  -7404589.95846  23202060.597    23202060.0994   23202065.4044
        -0.000          -0.000
  -8955243.499 9  -6962088.71548  21150571.304    21150570.8754   21150575.6394
        -0.000          -0.000
  -8935250.077 9  -6464193.43346  23964281.293    23964280.7434   23964286.3234
        -0.000          -0.000
 -10087398.108 9  -7851264.52949  20280134.470    20280134.0154   20280138.2694
        -0.000          -0.000
 -12033567.008 9  -9359973.50246  23324738.683    23324737.9704   23324743.6314
        -0.000          -0.000
   2889891.212 9   2230986.88047  22073550.882    22073550.6894   22073555.0934
        -0.000          -0.000
   7165579.922 9   5400034.03947  22444170.019    22444169.6344   22444175.5514
        -0.000          -0.000
    418559.640 9    330017.88148  20996676.433    20996675.7244   20996681.2784
        -0.000          -0.000
 97  3  3 16 23 29.9990000  0  9 22  3 19 27 18 31 29 14 16         -0.000849029
   7259001.026 9   5649778.34646  23246089.057    23246087.9084   23246092.9704
        -0.000          -0.000
  -9585320.196 9  -7456413.15746  23189404.772    23189404.3294   23189409.6464
        -0.000          -0.000
  -9018205.375 9  -7011149.90148  21138590.009    21138589.5994   21138594.3714
        -0.000          -0.000
  -9030244.997 9  -6538215.42346  23946204.430    23946203.9084   23946209.4564
        -0.000          -0.000
 -10156036.728 9  -7904749.16849  20267073.027    20267072.5674   20267076.7954
        -0.000          -0.000
 -12142799.906 9  -9445090.00746  23303952.192    23303951.6304   23303957.2004
        -0.000          -0.000
   2931869.343 9   2263697.08147  22081539.160    22081538.9194   22081543.3224
        -0.000          -0.000
   7243731.980 9   5460931.69447  22459042.006    22459041.5794   22459047.5324
        -0.000          -0.000
    453951.980 9    357596.29648  21003411.395    21003410.6514   21003416.2454
        -0.000          -0.000
 97  3  3 16 23 59.9990000  0  9 22  3 19 27 18 31 29 14 16         -0.000864636
   7336355.248 9   5710054.33146  23260809.028    23260807.9384   23260813.0114
        -0.000          -0.000
  -9651452.138 9  -7507944.52446  23176820.349    23176819.8414   23176825.1424
        -0.000          -0.000
  -9080958.534 9  -7060048.45448  21126648.474    21126648.0664   21126652.8274
        -0.000          -0.000
  -9125181.385 9  -6612191.80946  23928138.626    23928138.1444   23928143.5914
        -0.000          -0.000
 -10224372.875 9  -7957998.11249  20254069.068    20254068.6004   20254072.8494
        -0.000          -0.000
 -12251939.285 9  -9530133.62746  23283183.640    23283182.9984   23283188.6174
        -0.000          -0.000
   2974129.032 9   2296626.67947  22089580.898    22089580.6714   22089585.1314
        -0.000          -0.000
   7322084.826 9   5521985.80547  22473952.070    22473951.6574   22473957.5594
        -0.000          -0.000
    489801.515 9    385530.98048  21010233.395    21010232.6394   21010238.2294
        -0.000          -0.000
 97  3  3 16 24 29.9990000  0  9 22  3 19 27 18 31 29 14 16         -0.000880246
   7413900.217 9   5770478.94646  23275565.262    23275564.2624   23275569.3754
        -0.000          -0.000
  -9717205.064 9  -7559180.56046  23164307.839    23164307.4244   23164312.7314
        -0.000          -0.000
  -9143508.936 9  -7108789.02248  21114745.549    21114745.1264   21114749.8694
        -0.000          -0.000
  -9220050.508 9  -6686115.79446  23910085.625    23910085.2024   23910090.5844
        -0.000          -0.000
 -10292388.548 9  -8010997.33649  20241126.109    20241125.6304   20241129.9054
        -0.000          -0.000
 -12360976.150 9  -9615097.38046  23262434.654    23262434.0724   23262439.6324
        -0.000          -0.000
   3016682.522 9   2329785.19947  22097678.534    22097678.3754   22097682.8634
        -0.000          -0.000
   7400632.871 9   5583192.06247  22488899.262    22488898.9004   22488904.6044
        -0.000          -0.000
    526129.154 9    413838.20448  21017146.328    21017145.5834   21017151.2084
        -0.000          -0.000
 97  3  3 16 24 59.9990000  0  9 22  3 19 27 18 31 29 14 16         -0.000895865
   7491616.466 9   5831037.02146  23290354.195    23290353.2244   23290358.3254
        -0.000          -0.000
  -9782582.330 9  -7610123.85446  23151867.000    23151866.5464   23151871.9144
        -0.000          -0.000
  -9205891.250 9  -7157398.61748  21102874.563    21102874.1744   21102878.8694
        -0.000          -0.000
  -9314866.291 9  -6759998.20346  23892042.876    23892042.3934   23892047.7174
        -0.000          -0.000
 -10360093.228 9  -8063754.23549  20228242.323    20228241.8404   20228246.1564
        -0.000          -0.000
 -12469905.783 9  -9699977.55946  23241706.057    23241705.4924   23241710.9854
        -0.000          -0.000
   3059521.638 9   2363166.29047  22105830.581    22105830.4024   22105834.9104
        -0.000          -0.000
   7479338.876 9   5644521.40147  22503876.569    22503876.1814   22503881.8594
        -0.000          -0.000
    562908.454 9    442497.37848  21024145.212    21024144.4684   21024150.0954
        -0.000          -0.000
 97  3  3 16 25 29.9990000  0  9 22  3 19 27 18 31 29 14 16         -0.000911490
   7569500.194 9   5891725.60546  23305175.120    23305174.0244   23305179.1114
        -0.000          -0.000
  -9847558.438 9  -7660754.57046  23139502.446    23139502.0064   23139507.4284
        -0.000          -0.000
  -9268104.013 9  -7205876.08148  21091035.904    21091035.4804   21091040.2084
        -0.000          -0.000
  -9409614.294 9  -6833827.78846  23874012.827    23874012.4254   23874017.7884
        -0.000          -0.000
 -10427452.477 9  -8116241.96049  20215424.214    20215423.7734   20215428.1264
        -0.000          -0.000
 -12578707.613 9  -9784758.16346  23221001.803    23221001.0954   23221006.5824
        -0.000          -0.000
   3102662.839 9   2396782.78947  22114040.129    22114039.9484   22114044.3844
        -0.000          -0.000
   7558212.041 9   5705980.95047  22518885.630    22518885.2014   22518891.0774
        -0.000          -0.000
    600136.711 9    471506.38048  21031229.537    21031228.8134   21031234.4424
        -0.000          -0.000
 97  3  3 16 25 59.9990000  0  9 22  3 19 27 18 31 29 14 16         -0.000927115
   7647543.792 9   5952538.73446  23320026.342    23320025.1734   23320030.3654
        -0.000          -0.000
  -9912123.370 9  -7711064.88646  23127216.047    23127215.6524   23127221.0614
        -0.000          -0.000
  -9330147.537 9  -7254221.67248  21079229.386    21079228.9734   21079233.7114
        -0.000          -0.000
  -9504283.663 9  -6907596.12046  23855997.822    23855997.4174   23856002.8074
        -0.000          -0.000
 -10494463.447 9  -8168458.30449  20202672.481    20202672.0314   20202676.3974
        -0.000          -0.000
 -12687369.587 9  -9869429.77346  23200324.086    23200323.3704   23200328.8434
        -0.000          -0.000
   3146123.822 9   2430648.45147  22122310.539    22122310.3034   22122314.7724
        -0.000          -0.000
   7637267.570 9   5767582.61447  22533929.451    22533929.0354   22533934.9154
        -0.000          -0.000
    637812.413 9    500864.04648  21038399.013    21038398.2704   21038403.8674
        -0.000          -0.000
 97  3  3 16 26 29.9990000  0  9 22  3 19 27 18 31 29 14 16         -0.000942730
   7725753.008 9   6013480.92846  23334909.083    23334907.8694   23334913.1414
        -0.000          -0.000
  -9976278.396 9  -7761055.80346  23115007.797    23115007.4134   23115012.7874
        -0.000          -0.000
  -9392019.816 9  -7302433.82348  21067455.459    21067455.0544   21067459.8244
        -0.000          -0.000
  -9598865.721 9  -6981296.40546  23837999.309    23837998.9274   23838004.3344
        -0.000          -0.000
 -10561141.674 9  -8220415.36349  20189984.122    20189983.6554   20189987.9924
        -0.000          -0.000
 -12795898.080 9  -9953997.37346  23179671.755    23179671.0874   23179676.6164
        -0.000          -0.000
   3189901.012 9   2464760.51947  22130641.087    22130640.8764   22130645.3494
        -0.000          -0.000
   7716509.475 9   5829329.53347  22549008.808    22549008.3764   22549014.1924
        -0.000          -0.000
    675928.166 9    530564.60548  21045652.207    21045651.4894   21045657.1014
        -0.000          -0.000
 97  3  3 16 26 59.9990000  0  9 22  3 19 27 18 31 29 14 16         -0.000958332
   7804121.476 9   6074547.21946  23349821.998    23349820.9654   23349826.1004
        -0.000          -0.000
 -10040034.376 9  -7810735.75046  23102875.515    23102875.0334   23102880.5044
        -0.000          -0.000
  -9453723.716 9  -7350514.77248  21055713.592    21055713.1634   21055717.9494
        -0.000          -0.000
  -9693367.400 9  -7054934.06946  23820016.253    23820015.8764   23820021.2004
        -0.000          -0.000
 -10627499.098 9  -8272122.44649  20177356.747    20177356.2774   20177360.5624
        -0.000          -0.000
 -12904290.479 9 -10038458.94646  23159045.291    23159044.6584   23159050.1294
        -0.000          -0.000
   3233977.805 9   2499106.04747  22139028.702    22139028.4604   22139032.9064
        -0.000          -0.000
   7795932.221 9   5891217.36547  22564122.506    22564122.0634   22564127.7894
        -0.000          -0.000
    714456.712 9    560586.83148  21052983.950    21052983.2234   21052988.8514
        -0.000          -0.000
 97  3  3 16 27 29.9990000  0  9 22  3 19 27 18 31 29 14 16         -0.000973922
   7882653.516 9   6135740.98746  23364766.146    23364765.1894   23364770.3054
        -0.000          -0.000
 -10103404.773 9  -7860115.27746  23090816.454    23090816.0604   23090821.5234
        -0.000          -0.000
  -9515254.276 9  -7398460.65448  21044004.671    21044004.2594   21044009.0544
        -0.000          -0.000
  -9787786.431 9  -7128507.30446  23802049.010    23802048.5844   23802053.8664
        -0.000          -0.000
 -10693531.885 9  -8323576.56549  20164791.145    20164790.6864   20164794.9484
        -0.000          -0.000
 -13012548.712 9 -10122815.96746  23138444.313    23138443.7494   23138449.1814
        -0.000          -0.000
   3278344.141 9   2533677.18047  22147471.302    22147471.0754   22147475.5494
        -0.000          -0.000
   7875540.072 9   5953249.40147  22579271.294    22579270.8764   22579276.6814
        -0.000          -0.000
    753404.106 9    590935.42948  21060395.476    21060394.7224   21060400.3574
        -0.000          -0.000
 97  3  3 16 27 59.9990000  0  9 22  3 19 27 18 31 29 14 16         -0.000989500
   7961356.383 9   6197067.86645  23379742.776    23379741.9224   23379747.0294
        -0.000          -0.000
 -10166400.770 9  -7909203.04346  23078828.745    23078828.2804   23078833.7034
        -0.000          -0.000
  -9576625.942 9  -7446282.73548  21032326.041    21032325.6644   21032330.4264
        -0.000          -0.000
  -9882129.246 9  -7202021.13845  23784096.005    23784095.5554   23784101.1154
        -0.000          -0.000
 -10759246.730 9  -8374782.93548  20152286.050    20152285.5634   20152289.8504
        -0.000          -0.000
 -13120668.204 9 -10207064.87646  23117869.889    23117869.3524   23117874.8744
        -0.000          -0.000
   3322991.910 9   2568467.61056  22155967.538    22155967.3234   22155971.8235
        -0.000          -0.000
   7955318.830 9   6015414.63056  22594452.745    22594452.3164   22594458.1255
        -0.000          -0.000
    792770.395 9    621610.43148  21067886.585    21067885.8964   21067891.5224
        -0.000          -0.000
 97  3  3 16 28 29.9990000  0  9 22  3 19 27 18 31 29 14 16         -0.001005068
   8040247.085 9   6258541.10245  23394755.151    23394754.2394   23394759.5004
        -0.000          -0.000
 -10229009.982 9  -7957989.41145  23066914.533    23066914.0274   23066919.6484
        -0.000          -0.000
  -9637833.005 9  -7493976.54347  21020678.746    21020678.3374   21020683.0894
        -0.000          -0.000
  -9976393.863 9  -7275474.07745  23766157.960    23766157.5614   23766162.9184
        -0.000          -0.000
 -10824605.219 9  -8425711.62848  20139848.656    20139848.1834   20139852.5024
        -0.000          -0.000
 -13228629.466 9 -10291190.47745  23097325.466    23097324.8154   23097330.3034
        -0.000          -0.000
   3367922.521 9   2603478.44256  22164517.547    22164517.3554   22164521.9445
        -0.000          -0.000
   8035266.10219   6077711.17456         0.000           0.0005          0.0005
        -0.000          -0.000
    832572.172 9    652624.78247  21075460.685    21075459.9534   21075465.6244
        -0.000          -0.000
 97  3  3 16 28 59.9990000  0  9 22  3 19 27 18 31 29 14 16         -0.000020642
   8119303.257 9   6320143.24846  23709591.543    23709590.7224   23709595.9554
        -0.000          -0.000
 -10291235.867 9  -8006477.12146  23354865.828    23354865.4234   23354870.8354
        -0.000          -0.000
  -9698872.918 9  -7541540.10448  21308855.650    21308855.2564   21308860.0134
        -0.000          -0.000
 -10070591.611 9  -7348874.90745  24048025.075    24048024.7194   24048030.1284
        -0.000          -0.000
 -10889591.347 9  -8476350.18049  20427274.665    20427274.2024   20427278.5384
        -0.000          -0.000
 -13336428.261 9 -10375189.51546  23376604.472    23376603.7844   23376609.2254
        -0.000          -0.000
   3413130.930 9   2638705.73947  22472912.855    22472912.6864   22472917.2514
        -0.000          -0.000
   8115364.60419   6140125.56356  22924700.870    22924700.5405   22924706.4695
        -0.000          -0.000
    872811.260 9    683979.88748  21382910.358    21382909.6794   21382915.3354
        -0.000          -0.000
 97  3  3 16 29 29.9990000  0  9 22  3 19 27 18 31 29 14 16         -0.000036234
   8198523.657 9   6381873.38946  23724666.700    23724665.8164   23724671.1774
        -0.000          -0.000
 -10353079.638 9  -8054667.07046  23343097.375    23343096.9214   23343102.2414
        -0.000          -0.000
  -9759742.060 9  -7588970.59348  21297272.602    21297272.2254   21297277.0434
        -0.000          -0.000
 -10164741.394 9  -7422238.36046  24030109.034    24030108.6914   24030114.0594
        -0.000          -0.000
 -10954211.566 9  -8526703.59649  20414977.865    20414977.4054   20414981.7034
        -0.000          -0.000
 -13444086.510 9 -10459079.01446  23356117.679    23356117.0564   23356122.5244
        -0.000          -0.000
   3458619.646 9   2674151.44747  22481569.079    22481568.9134   22481573.4874
        -0.000          -0.000
   8195615.326 9   6202658.54747  22939972.113    22939971.7384   22939977.8294
        -0.000          -0.000
    913500.024 9    715685.38548  21390653.206    21390652.4694   21390658.1824
        -0.000          -0.000
 97  3  3 16 29 59.9990000  0  9 22  3 19 27 18 31 29 14 16         -0.000051851
   8277892.111 9   6443718.88446  23739770.104    23739769.0994   23739774.5914
        -0.000          -0.000
 -10414517.442 9  -8102540.67146  23331406.042    23331405.6444   23331411.0304
        -0.000          -0.000
  -9820426.181 9  -7636256.90948  21285724.819    21285724.4304   21285729.2494
        -0.000          -0.000
 -10258848.647 9  -7495568.67946  24012201.143    24012200.6504   24012205.9774
        -0.000          -0.000
 -11018453.894 9  -8576762.55349  20402752.968    20402752.4984   20402756.8004
        -0.000          -0.000
 -13551592.801 9 -10542850.11346  23335660.003    23335659.3204   23335664.7584
        -0.000          -0.000
   3504400.430 9   2709824.75747  22490280.928    22490280.7534   22490285.2654
        -0.000          -0.000
   8276025.293 9   6265315.62047  22955273.645    22955273.2254   22955279.4134
        -0.000          -0.000
    954640.591 9    747742.94848  21398482.032    21398481.3404   21398487.0294
        -0.000          -0.000
 97  3  3 16 30 29.9990000  0  9 22  3 19 27 18 31 29 14 16         -0.000067495
   8357401.826 9   6505674.45946  23754900.353    23754899.2954   23754904.7724
        -0.000          -0.000
 -10475534.964 9  -8150086.77446  23319794.898    23319794.4324   23319799.8784
        -0.000          -0.000
  -9880903.694 9  -7683382.24448  21274216.396    21274216.0074   21274220.8204
        -0.000          -0.000
 -10352911.148 9  -7568864.12246  23994301.649    23994301.1024   23994306.3844
        -0.000          -0.000
 -11082311.232 9  -8626521.52349  20390601.337    20390600.8914   20390605.1814
        -0.000          -0.000
 -13658952.414 9 -10626506.92046  23315230.018    23315229.3234   23315234.8224
        -0.000          -0.000
   3550472.714 9   2745725.20347  22499048.202    22499048.0834   22499052.5754
        -0.000          -0.000
   8356608.567 9   6328107.72347  22970608.045    22970607.6694   22970613.8594
        -0.000          -0.000
    996244.297 9    780161.39248  21406398.984    21406398.2794   21406403.9714
        -0.000          -0.000
 97  3  3 16 30 59.9990000  0  9 22  3 19 27 18 31 29 14 16         -0.000083161
   8437038.918 9   6567729.30446  23770054.792    23770053.7944   23770059.1714
        -0.000          -0.000
 -10536123.985 9  -8197298.99046  23308265.132    23308264.6844   23308270.1794
        -0.000          -0.000
  -9941171.977 9  -7730344.53948  21262747.761    21262747.3464   21262752.1304
        -0.000          -0.000
 -10446917.607 9  -7642115.88546  23976412.694    23976412.1554   23976417.6964
        -0.000          -0.000
 -11145795.276 9  -8675989.61449  20378520.740    20378520.2844   20378524.5554
        -0.000          -0.000
 -13766167.591 9 -10710051.18046  23294827.566    23294826.8874   23294832.4794
        -0.000          -0.000
   3596841.549 9   2781856.72447  22507871.998    22507871.8744   22507876.3654
        -0.000          -0.000
   8437366.052 9   6391035.60046  22985975.731    22985975.4204   22985981.5104
        -0.000          -0.000
   1038317.136 9    812945.39948  21414405.253    21414404.4964   21414410.1974
        -0.000          -0.000
 97  3  3 16 31 29.9990000  0  9 22  3 19 27 18 31 29 14 16         -0.000098833
   8516811.327 9   6629889.58846  23785234.923    23785233.9854   23785239.2244
        -0.000          -0.000
 -10596274.076 9  -8244169.17346  23296818.931    23296818.4784   23296824.0024
        -0.000          -0.000
 -10001252.591 9  -7777160.60048  21251314.767    21251314.3814   21251319.1304
        -0.000          -0.000
 -10540855.893 9  -7715314.53646  23958536.750    23958536.2704   23958541.7884
        -0.000          -0.000
 -11208911.077 9  -8725170.76049  20366510.187    20366509.7394   20366514.0504
        -0.000          -0.000
 -13873224.807 9 -10793472.36646  23274455.153    23274454.4714   23274460.0454
        -0.000          -0.000
   3643504.265 9   2818217.24547  22516751.628    22516751.4774   22516755.9714
        -0.000          -0.000
   8518293.864 9   6454096.20446  23001375.952    23001375.5894   23001381.5524
        -0.000          -0.000
   1080846.916 9    846085.45848  21422498.331    21422497.6434   21422503.3254
        -0.000          -0.000
 97  3  3 16 31 59.9990000  0  9 22  3 19 27 18 31 29 14 16         -0.000114504
   8596718.568 9   6692154.94346  23800440.687    23800439.8784   23800445.0294
        -0.000          -0.000
 -10655987.913 9  -8290699.41646  23285455.781    23285455.3154   23285460.9564
        -0.000          -0.000
 -10061162.986 9  -7823844.01648  21239914.162    21239913.7944   21239918.4944
        -0.000          -0.000
 -10634714.161 9  -7788450.83846  23940676.130    23940675.6154   23940681.2784
        -0.000          -0.000
 -11271654.298 9  -8774061.58849  20354570.504    20354570.0744   20354574.4334
        -0.000          -0.000
 -13980113.889 9 -10876762.53146  23254114.841    23254114.2424   23254119.7474
        -0.000          -0.000
   3690456.061 9   2854803.02447  22525686.193    22525686.1124   22525690.6334
        -0.000          -0.000
   8599388.034 9   6517286.41947  23016807.711    23016807.3364   23016813.3944
        -0.000          -0.000
   1123822.844 9    879573.15948  21430676.441    21430675.7024   21430681.4144
        -0.000          -0.000
 97  3  3 16 32 29.9990000  0  9 22  3 19 27 18 31 29 14 16         -0.000130161
   8676781.738 9   6754541.78546  23815676.202    23815675.4614   23815680.5614
        -0.000          -0.000
 -10715263.979 9  -8336888.54346  23274175.931    23274175.4544   23274181.0844
        -0.000          -0.000
 -10120898.288 9  -7870391.00348  21228546.889    21228546.5034   21228551.2404
        -0.000          -0.000
 -10728476.264 9  -7861512.18546  23922833.734    23922833.2474   23922838.9424
        -0.000          -0.000
 -11334022.867 9  -8822660.47849  20342702.141    20342701.6914   20342706.0654
        -0.000          -0.000
 -14086831.261 9 -10959918.87346  23233807.260    23233806.5804   23233812.1234
        -0.000          -0.000
   3737691.946 9   2891610.16747  22534674.973    22534674.8094   22534679.3214
        -0.000          -0.000
   8680642.516 9   6580601.53647  23032269.905    23032269.5324   23032275.7544
        -0.000          -0.000
   1167244.864 9    913408.46848  21438939.400    21438938.7114   21438944.3774
        -0.000          -0.000
 97  3  3 16 32 59.9990000  0  9 22  3 19 27 18 31 29 14 16         -0.000145809
   8756992.275 9   6817043.46646  23830939.679    23830938.9444   23830944.1394
        -0.000          -0.000
 -10774121.691 9  -8382751.67946  23262975.693    23262975.2374   23262980.7684
        -0.000          -0.000
 -10180481.134 9  -7916819.19248  21217208.626    21217208.2824   21217213.0514
        -0.000          -0.000
 -10822157.191 9  -7934510.30146  23905006.879    23905006.4194   23905012.0294
        -0.000          -0.000
 -11396030.898 9  -8870978.43349  20330902.362    20330901.9294   20330906.3054
        -0.000          -0.000
 -14193376.843 9 -11042941.36446  23213532.298    23213531.5874   23213537.1014
        -0.000          -0.000
   3785208.169 9   2928635.77747  22543716.979    22543716.8304   22543721.3504
        -0.000          -0.000
   8762030.626 9   6644020.77646  23047757.585    23047757.2094   23047763.3934
        -0.000          -0.000
   1211082.185 9    947567.38248  21447281.421    21447280.7064   21447286.4004
        -0.000          -0.000
 97  3  3 16 33 29.9990000  0  9 22  3 19 27 18 31 29 14 16         -0.000161444
   8837356.946 9   6879665.24046  23846232.582    23846231.7774   23846237.2424
        -0.000          -0.000
 -10832548.420 9  -8428278.98046  23251857.407    23251856.9544   23251862.4814
        -0.000          -0.000
 -10239895.457 9  -7963116.06148  21205902.453    21205902.1094   21205906.9034
        -0.000          -0.000
 -10915753.688 9  -8007442.63446  23887196.053    23887195.6184   23887201.1414
        -0.000          -0.000
 -11457655.992 9  -8918997.98749  20319175.532    20319175.0884   20319179.4404
        -0.000          -0.000
 -14299731.223 9 -11125814.85746  23193293.662    23193292.9874   23193298.5084
        -0.000          -0.000
   3833022.223 9   2965893.43947  22552815.719    22552815.5714   22552820.1644
        -0.000          -0.000
   8843566.643 9   6707555.32246  23063273.539    23063273.0684   23063278.9894
        -0.000          -0.000
   1255327.017 9    982043.84148  21455700.942    21455700.2284   21455705.9454
        -0.000          -0.000
 97  3  3 16 33 59.9990000  0  9 22  3 19 27 18 31 29 14 16         -0.000177083
   8917865.256 9   6942398.94646  23861552.884    23861552.1614   23861557.4864
        -0.000          -0.000
 -10890535.117 9  -8473463.39446  23240822.895    23240822.3944   23240827.9254
        -0.000          -0.000
 -10299115.429 9  -8009261.49148  21194633.273    21194632.9114   21194637.7274
        -0.000          -0.000
 -11009281.823 9  -8080321.68046  23869398.262    23869397.8904   23869403.3704
        -0.000          -0.000
 -11518886.027 9  -8966709.70049  20307523.853    20307523.4044   20307527.7294
        -0.000          -0.000
 -14405901.935 9 -11208545.26546  23173090.064    23173089.4744   23173094.7924
        -0.000          -0.000
   3881150.487 9   3003395.93947  22561974.242    22561974.0904   22561978.7304
        -0.000          -0.000
   8925252.477 9   6771206.61146  23078817.968    23078817.4574   23078823.2164
        -0.000          -0.000
   1299987.735 9   1016844.36348  21464199.535    21464198.8444   21464204.5914
        -0.000          -0.000
 97  3  3 16 34 29.9990000  0  9 22  3 19 27 18 31 29 14 16         -0.000192738
   8998502.011 9   7005232.74246  23876897.582    23876896.9684   23876902.2264
        -0.000          -0.000
 -10948080.528 9  -8518303.96946  23229872.353    23229871.9044   23229877.3034
        -0.000          -0.000
 -10358142.499 9  -8055256.60548  21183400.767    21183400.3974   21183405.2224
        -0.000          -0.000
 -11102762.673 9  -8153163.88846  23851609.354    23851608.9654   23851614.4484
        -0.000          -0.000
 -11579735.977 9  -9014125.24049  20295944.536    20295944.0904   20295948.4024
        -0.000          -0.000
 -14511901.084 9 -11291142.01146  23152919.146    23152918.5384   23152923.6694
        -0.000          -0.000
   3929580.715 9   3041133.74347  22571190.245    22571190.1304   22571194.7014
        -0.000          -0.000
   9007055.906 9   6834949.50846  23094384.610    23094384.1614   23094389.9654
        -0.000          -0.000
   1345044.681 9   1051953.64448  21472773.666    21472772.9894   21472778.6874
        -0.000          -0.000
 97  3  3 16 34 59.9990000  0  9 22  3 19 27 18 31 29 14 16         -0.000208409
   9079246.417 9   7068150.41446  23892262.863    23892262.1504   23892267.3604
        -0.000          -0.000
 -11005187.047 9  -8562802.52046  23219005.347    23219004.8774   23219010.3014
        -0.000          -0.000
 -10416982.557 9  -8101106.00148  21172203.871    21172203.4984   21172208.3234
        -0.000          -0.000
 -11196191.582 9  -8225965.59446  23833830.327    23833829.9734   23833835.6124
        -0.000          -0.000
 -11640209.108 9  -9061247.16749  20284436.878    20284436.4374   20284440.7624
        -0.000          -0.000
 -14617708.250 9 -11373589.13646  23132784.738    23132784.1074   23132789.1804
        -0.000          -0.000
   3978325.678 9   3079116.80447  22580466.199    22580466.0284   22580470.5754
        -0.000          -0.000
   9088973.812 9   6898781.56746  23109973.046    23109972.5994   23109978.5634
        -0.000          -0.000
   1390489.700 9   1087365.31248  21481421.615    21481420.9224   21481426.6384
        -0.000          -0.000
 97  3  3 16 35 29.9990000  0  9 22  3 19 27 18 31 29 14 16         -0.000224087
   9160091.333 9   7131146.41045  23907647.279    23907646.5204   23907651.6524
        -0.000          -0.000
 -11061841.997 9  -8606949.21746  23208224.226    23208223.7914   23208229.2104
        -0.000          -0.000
 -10475635.669 9  -8146809.72848  21161042.570    21161042.2054   21161047.0104
        -0.000          -0.000
 -11289552.286 9  -8298714.18146  23816064.364    23816064.0124   23816069.6544
        -0.000          -0.000
 -11700313.054 9  -9108081.42049  20272999.454    20272999.0154   20273003.4134
        -0.000          -0.000
 -14723314.677 9 -11455879.80046  23112688.479    23112687.7594   23112692.9634
        -0.000          -0.000
   4027387.740 9   3117346.95347  22589802.424    22589802.2554   22589806.8534
        -0.000          -0.000
   9171009.189 9   6962705.18946  23125583.923    23125583.4624   23125589.4794
        -0.000          -0.000
   1436332.299 9   1123086.78948  21490145.239    21490144.5224   21490150.2454
        -0.000          -0.000
 97  3  3 16 35 59.9990000  0  9 22  3 19 27 18 31 29 14 16         -0.000239761
   9241050.610 8   7194231.51445  23923053.337    23923052.7154   23923057.6914
        -0.000          -0.000
 -11118053.039 9  -8650750.01646  23197527.660    23197527.2564   23197532.5294
        -0.000          -0.000
 -10534097.814 9  -8192364.63948  21149917.637    21149917.2574   21149922.0094
        -0.000          -0.000
 -11382838.193 9  -8371404.49746  23798312.780    23798312.3214   23798318.0264
        -0.000          -0.000
 -11760070.352 9  -9154645.56049  20261627.976    20261627.5674   20261631.9964
        -0.000          -0.000
 -14828716.057 9 -11538010.70746  23092631.240    23092630.5344   23092635.7954
        -0.000          -0.000
   4076755.155 9   3155815.02147  22599196.739    22599196.5924   22599201.2614
        -0.000          -0.000
   9253147.196 9   7026708.81046  23141214.306    23141213.8904   23141219.8084
        -0.000          -0.000
   1482582.841 9   1159126.14348  21498946.397    21498945.7004   21498951.4994
        -0.000          -0.000
 97  3  3 16 36 29.9990000  0  9 22  3 19 27 18 31 29 14 16         -0.000255418
   9322123.920 9   7257405.48645  23938481.085    23938480.4454   23938485.5524
        -0.000          -0.000
 -11173828.385 9  -8694211.29846  23186913.933    23186913.5144   23186918.8844
        -0.000          -0.000
 -10592378.625 9  -8237778.25248  21138827.164    21138826.7754   21138831.5094
        -0.000          -0.000
 -11476027.843 9  -8444019.80646  23780579.379    23780578.9384   23780584.7624
        -0.000          -0.000
 -11819487.447 9  -9200944.60449  20250321.297    20250320.8844   20250325.3024
        -0.000          -0.000
 -14933898.045 9 -11619970.67446  23072615.780    23072615.1214   23072620.2774
        -0.000          -0.000
   4126421.981 9   3194516.39447  22608648.136    22608647.8894   22608652.7034
        -0.000          -0.000
   9335396.330 9   7090799.01846  23156865.788    23156865.3964   23156871.2354
        -0.000          -0.000
   1529236.137 9   1195479.32648  21507824.250    21507823.5444   21507829.3384
        -0.000          -0.000
 97  3  3 16 36 59.9990000  0  9 22  3 19 27 18 31 29 14 16         -0.000271065
   9403284.543 8   7320647.49545  23953925.409    23953924.8334   23953930.0464
        -0.000          -0.000
 -11229191.024 9  -8737350.99746  23176378.799    23176378.3784   23176383.7464
        -0.000          -0.000
 -10650510.342 9  -8283075.69048  21127765.107    21127764.7334   21127769.4544
        -0.000          -0.000
 -11569128.741 9  -8516565.94446  23762862.934    23762862.5034   23762868.2244
        -0.000          -0.000
 -11878564.749 9  -9246978.86449  20239079.281    20239078.8574   20239083.2454
        -0.000          -0.000
 -15038869.846 9 -11701766.87846  23052640.343    23052639.6894   23052644.6954
        -0.000          -0.000
   4176376.910 9   3233442.26947  22618154.275    22618154.0284   22618158.9234
        -0.000          -0.000
   9417762.041 9   7154980.04946  23172539.526    23172539.0854   23172544.8554
        -0.000          -0.000
   1576283.852 9   1232139.84648  21516777.120    21516776.4364   21516782.2624
        -0.000          -0.000
 97  3  3 16 37 29.9990000  0  9 22  3 19 27 18 31 29 14 16         -0.000286703
   9484558.549 9   7383977.86545  23969391.456    23969390.7264   23969396.2114
        -0.000          -0.000
 -11284122.310 9  -8780154.57646  23165925.663    23165925.3044   23165930.6274
        -0.000          -0.000
 -10708481.677 9  -8328248.15548  21116733.554    21116733.1704   21116737.8794
        -0.000          -0.000
 -11662146.096 9  -8589046.98646  23745162.217    23745161.7674   23745167.5374
        -0.000          -0.000
 -11937274.107 9  -9292726.41849  20227907.307    20227906.8814   20227911.2084
        -0.000          -0.000
 -15143635.094 9 -11783402.11146  23032704.185    23032703.4614   23032708.5924
        -0.000          -0.000
   4226620.091 9   3272592.77147  22627715.223    22627715.0094   22627719.7624
        -0.000          -0.000
   9500256.088 9   7219261.06046  23188237.559    23188237.1874   23188243.1004
        -0.000          -0.000
   1623746.244 9   1269123.49948  21525808.938    21525808.2334   21525814.0084
        -0.000          -0.000
 97  3  3 16 37 59.9990000  0  9 22  3 19 27 18 31 29 14 16         -0.000302353
   9565942.065 8   7447393.55645  23984878.333    23984877.5254   23984883.1204
        -0.000          -0.000
 -11338641.263 9  -8822636.86246  23155551.144    23155550.7564   23155556.0144
        -0.000          -0.000
 -10766306.451 9  -8373306.40648  21105729.848    21105729.4684   21105734.1904
        -0.000          -0.000
 -11755116.292 9  -8661491.25546  23727470.626    23727470.2344   23727475.8974
        -0.000          -0.000
 -11995606.779 9  -9338180.44849  20216807.012    20216806.5864   20216810.8534
        -0.000          -0.000
 -15248213.217 9 -11864891.50846  23012803.551    23012802.7984   23012808.0424
        -0.000          -0.000
   4277121.923 9   3311944.82247  22637325.424    22637325.2264   22637329.8734
        -0.000          -0.000
   9582858.433 9   7283626.48046  23203956.307    23203955.9454   23203961.9424
        -0.000          -0.000
   1671600.620 9   1306412.59348  21534915.372    21534914.6894   21534920.4624
        -0.000          -0.000
 97  3  3 16 38 29.9990000  0  9 22  3 19 27 18 31 29 14 16         -0.000318011
   9647444.093 9   7510901.58246  24000387.702    24000386.8584   24000392.5964
        -0.000          -0.000
 -11392715.895 9  -8864772.92046  23145261.060    23145260.6894   23145265.8934
        -0.000          -0.000
 -10823980.477 9  -8418247.20648  21094754.828    21094754.4664   21094759.1714
        -0.000          -0.000
 -11848028.565 9  -8733890.39146  23709789.918    23709789.4954   23709795.2524
        -0.000          -0.000
 -12053515.775 9  -9383304.34149  20205787.329    20205786.8954   20205791.1584
        -0.000          -0.000
 -15352577.302 9 -11946214.13646  22992943.617    22992942.9774   22992948.2644
        -0.000          -0.000
   4327910.434 9   3351520.24047  22646990.227    22646989.9854   22646994.7064
        -0.000          -0.000
   9665600.501 9   7348100.76446  23219701.594    23219701.2654   23219707.2834
        -0.000          -0.000
   1719855.204 9   1344013.52648  21544097.998    21544097.2524   21544103.0604
        -0.000          -0.000
 97  3  3 16 38 59.9990000  0  9 22  3 19 27 18 31 29 14 16         -0.000333679
   9729078.909 9   7574513.07846  24015922.409    24015921.5134   24015927.2574
        -0.000          -0.000
 -11446332.354 9  -8906551.96546  23135058.138    23135057.7334   23135062.9394
        -0.000          -0.000
 -10881499.904 9  -8463067.53448  21083809.246    21083808.8734   21083813.5744
        -0.000          -0.000
 -11940901.500 9  -8806258.89646  23692116.695    23692116.3794   23692122.0184
        -0.000          -0.000
 -12110999.035 9  -9428096.49549  20194848.617    20194848.1884   20194852.4724
        -0.000          -0.000
 -15456725.484 9 -12027368.53247  22973124.923    22973124.2674   22973129.4834
        -0.000          -0.000
   4378987.523 9   3391320.52747  22656709.864    22656709.6364   22656714.4154
        -0.000          -0.000
   9748475.351 9   7412678.51546  23235472.125    23235471.7774   23235477.8044
        -0.000          -0.000
   1768512.854 9   1381928.54348  21553357.238    21553356.5424   21553362.3374
        -0.000          -0.000
 97  3  3 16 39 29.9990000  0  9 22  3 19 27 18 31 29 14 16         -0.000349352
   9810852.229 9   7638232.50746  24031483.570    24031482.6014   24031488.2864
        -0.000          -0.000
 -11499482.418 9  -8947967.57146  23124943.943    23124943.5654   23124948.8304
        -0.000          -0.000
 -10938844.576 9  -8507751.68648  21072896.897    21072896.5274   21072901.2414
        -0.000          -0.000
 -12033741.703 9  -8878601.88746  23674449.989    23674449.5604   23674455.0884
        -0.000          -0.000
 -12168079.884 9  -9472575.08449  20183986.492    20183986.0574   20183990.3524
        -0.000          -0.000
 -15560668.016 9 -12108362.69246  22953345.186    22953344.5514   22953349.7724
        -0.000          -0.000
   4430347.436 9   3431341.20147  22666483.352    22666483.1704   22666487.9554
        -0.000          -0.000
   9831472.684 9   7477351.71946  23251266.058    23251265.6244   23251271.7054
        -0.000          -0.000
   1817567.193 9   1420152.66348  21562691.992    21562691.2604   21562697.1294
        -0.000          -0.000
 97  3  3 16 39 59.9990000  0  9 22  3 19 27 18 31 29 14 16         -0.000365023
   9892754.820 9   7702052.66246  24047069.118    24047068.1414   24047073.7944
        -0.000          -0.000
 -11552160.670 9  -8989015.54646  23114919.629    23114919.1954   23114924.4194
        -0.000          -0.000
 -10995998.842 9  -8552287.47748  21062020.725    21062020.3874   21062025.1384
        -0.000          -0.000
 -12126530.986 9  -8950905.20246  23656792.793    23656792.3334   23656797.9234
        -0.000          -0.000
 -12224758.766 9  -9516740.45549  20173200.850    20173200.4244   20173204.7474
        -0.000          -0.000
 -15664386.359 9 -12189182.15246  22933608.050    22933607.5244   22933612.8174
        -0.000          -0.000
   4481994.962 9   3471585.96747  22676311.587    22676311.4174   22676316.1854
        -0.000          -0.000
   9914599.490 9   7542125.79046  23267084.586    23267084.2434   23267090.3404
        -0.000          -0.000
   1867014.298 9   1458682.84348  21572101.475    21572100.7954   21572106.6094
        -0.000          -0.000
 97  3  3 16 40 29.9990000  0  9 22  3 19 27 18 31 29 14 16         -0.000380693
   9974759.754 9   7765952.57046  24062674.085    24062673.1984   24062678.8454
        -0.000          -0.000
 -11604368.856 9  -9029697.23646  23104984.705    23104984.2624   23104989.5494
        -0.000          -0.000
 -11052957.332 9  -8596670.71148  21051181.852    21051181.5304   21051186.2854
        -0.000          -0.000
 -12219263.168 9  -9023164.02246  23639146.392    23639145.9804   23639151.5204
        -0.000          -0.000
 -12281046.990 9  -9560601.41849  20162489.527    20162489.1094   20162493.4474
        -0.000          -0.000
 -15767886.465 9 -12269831.55647  22913912.627    22913912.0794   22913917.4284
        -0.000          -0.000
   4533926.447 9   3512052.02447  22686193.813    22686193.6964   22686198.4044
        -0.000          -0.000
   9997849.200 9   7606995.64446  23282926.514    23282926.1964   23282932.3274
        -0.000          -0.000
   1916843.296 9   1497510.58948  21581583.646    21581582.9514   21581588.8044
        -0.000          -0.000
 97  3  3 16 40 59.9990000  0  9 22  3 19 27 18 31 29 14 16         -0.000396358
  10056861.511 9   7829927.93346  24078297.539    24078296.6724   24078302.4094
        -0.000          -0.000
 -11656113.605 9  -9070017.81646  23095137.997    23095137.5994   23095142.8364
        -0.000          -0.000
 -11109700.192 9  -8640885.92148  21040384.069    21040383.7254   21040388.5124
        -0.000          -0.000
 -12311918.992 9  -9095363.34046  23621514.661    23621514.2274   23621519.7104
        -0.000          -0.000
 -12336952.314 9  -9604164.00849  20151851.109    20151850.7044   20151855.0274
        -0.000          -0.000
 -15871173.219 9 -12350314.70647  22894257.813    22894257.2354   22894262.7144
        -0.000          -0.000
   4586136.726 9   3552735.32247  22696129.155    22696129.0164   22696133.6814
        -0.000          -0.000
  10081205.388 9   7671948.44646  23298788.579    23298788.2954   23298794.5974
        -0.000          -0.000
   1967059.809 9   1536640.30048  21591139.526    21591138.8854   21591144.7344
        -0.000          -0.000
 97  3  3 16 41 29.9990000  0  9 22  3 19 27 18 31 29 14 16         -0.000412022
  10139041.908 9   7893964.57146  24093935.947    24093935.0864   24093940.8444
        -0.000          -0.000
 -11707399.108 9  -9109980.53646  23085378.755    23085378.3154   23085383.5434
        -0.000          -0.000
 -11166218.750 9  -8684926.34748  21029628.930    21029628.5914   21029633.4064
        -0.000          -0.000
 -12404483.118 9  -9167491.20346  23603900.192    23603899.6814   23603905.2864
        -0.000          -0.000
 -12392454.758 9  -9647412.66649  20141289.388    20141288.9864   20141293.2584
        -0.000          -0.000
 -15974233.561 9 -12430621.43547  22874646.070    22874645.4634   22874651.0434
        -0.000          -0.000
   4638625.708 9   3593635.77547  22706117.449    22706117.3224   22706122.0184
        -0.000          -0.000
  10164663.996 9   7736981.06046  23314670.128    23314669.9594   23314676.2614
        -0.000          -0.000
   2017654.927 9   1576065.03648  21600767.506    21600766.8304   21600772.6684
        -0.000          -0.000
 97  3  3 16 41 59.9990000  0  9 22  3 19 27 18 31 29 14 16         -0.000427696
  10221283.597 9   7958048.97246  24109586.004    24109585.1314   24109590.9264
        -0.000          -0.000
 -11758238.219 9  -9149595.41846  23075704.375    23075703.9234   23075709.1684
        -0.000          -0.000
 -11222541.526 9  -8728814.22548  21018911.086    21018910.7514   21018915.5534
        -0.000          -0.000
 -12496967.278 9  -9239556.76846  23586301.074    23586300.5244   23586306.1084
        -0.000          -0.000
 -12447547.107 9  -9690341.77249  20130805.644    20130805.2244   20130809.4794
        -0.000          -0.000
 -16077059.888 9 -12510745.78846  22855078.727    22855078.1694   22855083.6784
        -0.000          -0.000
   4691390.126 9   3634750.85847  22716158.236    22716158.1114   22716162.8374
        -0.000          -0.000
  10248207.453 9   7802079.80446  23330568.052    23330567.8534   23330574.1634
        -0.000          -0.000
   2068613.344 9   1615772.84048  21610464.625    21610463.9674   21610469.8264
        -0.000          -0.000
 97  3  3 16 42 29.9990000  0  9 22  3 19 27 18 31 29 14 16         -0.000443381
  10303581.468 9   8022177.13946  24125246.770    24125245.8704   24125251.7064
        -0.000          -0.000
 -11808623.270 9  -9188856.48246  23066116.359    23066115.9614   23066121.2094
        -0.000          -0.000
 -11278687.891 9  -8772564.63348  21008226.850    21008226.4974   21008231.2534
        -0.000          -0.000
 -12589371.457 9  -9311560.01746  23568717.158    23568716.5474   23568722.1164
        -0.000          -0.000
 -12502233.806 9  -9732954.78549  20120399.065    20120398.6584   20120402.9404
        -0.000          -0.000
 -16179657.385 9 -12590691.88346  22835555.060    22835554.5144   22835559.9134
        -0.000          -0.000
   4744435.918 9   3676085.19447  22726252.557    22726252.4034   22726257.2334
        -0.000          -0.000
  10331829.527 9   7867239.80346  23346480.994    23346480.6974   23346486.9604
        -0.000          -0.000
   2119938.137 9   1655766.15448  21620231.443    21620230.7464   21620236.6284
        -0.000          -0.000
 97  3  3 16 42 59.9990000  0  9 22  3 19 27 18 31 29 14 16         -0.000459073
  10385942.679 9   8086354.67446  24140919.560    24140918.6104   24140924.5244
        -0.000          -0.000
 -11858536.241 9  -9227749.70346  23056618.211    23056617.8264   23056623.0794
        -0.000          -0.000
 -11334675.574 9  -8816191.39948  20997572.779    20997572.4134   20997577.1224
        -0.000          -0.000
 -12681700.812 9  -9383504.95146  23551147.480    23551146.9404   23551152.4064
        -0.000          -0.000
 -12556512.613 9  -9775249.96649  20110070.111    20110069.7184   20110074.0144
        -0.000          -0.000
 -16282007.459 9 -12670445.17447  22816078.596    22816078.0374   22816083.3304
        -0.000          -0.000
   4797764.546 9   3717639.91047  22736400.632    22736400.5274   22736405.3514
        -0.000          -0.000
  10415534.560 9   7932464.45746  23362409.747    23362409.4004   23362415.5734
        -0.000          -0.000
   2171647.539 9   1696059.15448  21630071.370    21630070.7244   21630076.6454
        -0.000          -0.000
 97  3  3 16 43 29.9990000  0  9 22  3 19 27 18 31 29 14 16         -0.000474773
  10468370.038 9   8150583.75246  24156604.981    24156604.1414   24156609.8574
        -0.000          -0.000
 -11907960.726 9  -9266262.27546  23047213.055    23047212.6964   23047217.9084
        -0.000          -0.000
 -11390528.200 9  -8859712.92648  20986944.369    20986944.0214   20986948.7244
        -0.000          -0.000
 -12773970.080 9  -9455403.05446  23533589.174    23533588.6364   23533594.1484
        -0.000          -0.000
 -12610373.264 9  -9817219.30849  20099820.753    20099820.3444   20099824.6924
        -0.000          -0.000
 -16384098.981 9 -12749996.97847  22796651.244    22796650.6274   22796656.0294
        -0.000          -0.000
   4851370.848 9   3759411.00747  22746601.612    22746601.5064   22746606.3584
        -0.000          -0.000
  10499334.584 9   7997763.12146  23378356.452    23378356.1214   23378362.2554
        -0.000          -0.000
   2223742.823 9   1736652.83448  21639984.801    21639984.1214   21639990.0834
        -0.000          -0.000
 97  3  3 16 43 59.9990000  0  9 22  3 19 27 18 31 29 14 16         -0.000490462
  10550889.834 8   8214884.84945  24172308.106    24172307.1204   24172312.8094
        -0.000          -0.000
 -11956886.752 9  -9304386.44046  23037902.840    23037902.4324   23037907.5504
        -0.000          -0.000
 -11446242.295 9  -8903126.50548  20976342.320    20976341.9904   20976346.6684
        -0.000          -0.000
 -12866162.223 9  -9527241.05646  23516045.472    23516045.0014   23516050.6384
        -0.000          -0.000
 -12663808.060 9  -9858856.81849  20089652.441    20089652.0534   20089656.4004
        -0.000          -0.000
 -16485912.095 9 -12829331.81147  22777276.787    22777276.2004   22777281.7074
        -0.000          -0.000
   4905261.988 9   3801404.07147  22756856.846    22756856.7364   22756861.5094
        -0.000          -0.000
  10583243.395 9   8063146.56246  23394323.860    23394323.4974   23394329.6174
        -0.000          -0.000
   2276245.484 9   1777563.96348  21649975.760    21649975.1044   21649980.9994
        -0.000          -0.000
 97  3  3 16 44 29.9990000  0  9 22  3 19 27 18 31 29 14 16         -0.000506149
  10633496.329 8   8279253.47745  24188027.516    24188026.4984   24188032.3154
        -0.000          -0.000
 -12005324.704 9  -9342130.28746  23028685.368    23028684.9634   23028690.0014
        -0.000          -0.000
 -11501810.799 9  -8946426.63748  20965767.986    20965767.6314   20965772.3384
        -0.000          -0.000
 -12958286.639 9  -9599026.26046  23498514.635    23498514.2074   23498519.9814
        -0.000          -0.000
 -12716818.700 9  -9900163.81449  20079564.926    20079564.5274   20079568.8594
        -0.000          -0.000
 -16587457.304 9 -12908457.92347  22757953.345    22757952.8174   22757958.2664
        -0.000          -0.000
   4959413.464 9   3843599.99247  22767161.639    22767161.4924   22767166.3074
        -0.000          -0.000
  10667252.542 9   8128608.18446  23410310.197    23410309.8804   23410316.1504
        -0.000          -0.000
   2329145.864 9   1818784.99848  21660042.480    21660041.7854   21660047.6624
        -0.000          -0.000
 97  3  3 16 44 59.9990000  0  9 22  3 19 27 18 31 29 14 16         -0.000521826
  10716205.396 8   8343702.05445  24203766.479    24203765.4324   24203771.4174
        -0.000          -0.000
 -12053272.150 9  -9379491.92546  23019561.224    23019560.8304   23019565.7604
        -0.000          -0.000
 -11557209.404 9  -8989594.37948  20955225.991    20955225.6194   20955230.3504
        -0.000          -0.000
 -13050339.249 9  -9670755.54446  23480997.607    23480997.1454   23481002.8194
        -0.000          -0.000
 -12769393.897 9  -9941131.50249  20069560.266    20069559.8434   20069564.1564
        -0.000          -0.000
 -16688719.093 9 -12987363.20747  22738683.937    22738683.3374   22738688.6834
        -0.000          -0.000
   5013834.842 9   3886006.20647  22777517.760    22777517.5624   22777522.3954
        -0.000          -0.000
  10751362.596 9   8194148.43546  23426315.739    23426315.5194   23426321.8574
        -0.000          -0.000
   2382433.154 9   1860307.52348  21670182.746    21670182.0454   21670187.9434
        -0.000          -0.000
 97  3  3 16 45 29.9990000  0  9 22  3 19 27 18 31 29 14 16         -0.000537491
  10799018.584 8   8408231.78245  24219525.449    24219524.3824   24219530.3274
        -0.000          -0.000
 -12100762.772 9  -9416497.58846  23010524.023    23010523.6364   23010528.6224
        -0.000          -0.000
 -11612427.633 9  -9032621.57348  20944718.265    20944717.9344   20944722.6874
        -0.000          -0.000
 -13142321.600 9  -9742430.08646  23463493.876    23463493.4724   23463498.9834
        -0.000          -0.000
 -12821555.169 9  -9981776.65349  20059634.341    20059633.9054   20059638.1964
        -0.000          -0.000
 -16789714.635 9 -13066060.99647  22719465.119    22719464.4924   22719469.8504
        -0.000          -0.000
   5068531.758 9   3928627.13347  22787926.249    22787926.1174   22787930.8974
        -0.000          -0.000
  10835562.929 9   8259759.03146  23442338.645    23442338.3274   23442344.6684
        -0.000          -0.000
   2436074.640 9   1902106.04248  21680390.339    21680389.6694   21680395.6084
        -0.000          -0.000
 97  3  3 16 45 59.9990000  0  9 22  3 19 27 18 31 29 14 16         -0.000553139
  10881938.610 8   8472844.74745  24235304.719    24235303.6794   24235309.5094
        -0.000          -0.000
 -12147800.484 9  -9453150.34846  23001572.942    23001572.5734   23001577.6534
        -0.000          -0.000
 -11667448.885 9  -9075495.27548  20934248.097    20934247.7724   20934252.4884
        -0.000          -0.000
 -13234233.781 9  -9814049.94746  23446003.719    23446003.2694   23446008.6634
        -0.000          -0.000
 -12873322.192 9 -10022114.59649  20049783.372    20049782.9744   20049787.2664
        -0.000          -0.000
 -16890445.473 9 -13144552.52947  22700296.641    22700296.0224   22700301.4504
        -0.000          -0.000
   5123517.908 9   3971473.43947  22798389.832    22798389.6834   22798394.4414
        -0.000          -0.000
  10919839.535 9   8325429.04746  23458375.947    23458375.6954   23458382.0514
        -0.000          -0.000
   2490062.363 9   1944174.34348  21690663.848    21690663.2164   21690669.1614
        -0.000          -0.000
 97  3  3 16 46 29.9990000  0  9 22  3 19 27 18 31 29 14 16         -0.000568765
  10964961.761 8   8537538.06745  24251103.649    24251102.4814   24251108.3414
        -0.000          -0.000
 -12194350.801 9  -9489423.30546  22992714.745    22992714.3354   22992719.4964
        -0.000          -0.000
 -11722261.560 9  -9118206.45048  20923817.569    20923817.2434   20923822.0134
        -0.000          -0.000
 -13326073.771 9  -9885613.57346  23428527.255    23428526.6794   23428532.0884
        -0.000          -0.000
 -12924700.934 9 -10062149.99049  20040006.342    20040005.9234   20040010.2084
        -0.000          -0.000
 -16990915.150 9 -13222840.56547  22681177.926    22681177.3384   22681182.6694
        -0.000          -0.000
   5178808.349 9   4014556.84947  22808911.305    22808911.1094   22808915.9374
        -0.000          -0.000
  11004194.474 9   8391160.09446  23474428.242    23474427.9624   23474434.3284
        -0.000          -0.000
   2544389.595 9   1986507.21548  21701002.022    21701001.3794   21701007.3024
        -0.000          -0.000
 97  3  3 16 46 59.9990000  0  9 22  3 19 27 18 31 29 14 16         -0.000584371
  11048074.851 8   8602301.49545  24266919.642    24266918.6124   24266924.2834
        -0.000          -0.000
 -12240409.280 9  -9525313.01846  22983950.150    22983949.7634   22983954.8464
        -0.000          -0.000
 -11776883.547 9  -9160769.03548  20913423.309    20913422.9894   20913427.7664
        -0.000          -0.000
 -13417837.071 9  -9957117.45146  23411065.268    23411064.6874   23411069.9244
        -0.000          -0.000
 -12975700.772 9 -10101890.12449  20030301.376    20030300.9814   20030305.2644
        -0.000          -0.000
 -17091124.256 9 -13300925.55847  22662108.801    22662108.1294   22662113.4424
        -0.000          -0.000
   5234411.173 9   4057883.67547  22819492.210    22819492.0444   22819496.9144
        -0.000          -0.000
  11088614.763 9   8456942.09946  23490493.025    23490492.5904   23490498.9174
        -0.000          -0.000
   2599043.925 9   2029094.95648  21711402.555    21711401.8594   21711407.8294
        -0.000          -0.000
 97  3  3 16 47 29.9990000  0  9 22  3 19 27 18 31 29 14 16         -0.000599956
  11131283.353 8   8667139.23945  24282753.624    24282752.4404   24282758.3774
        -0.000          -0.000
 -12285962.475 9  -9560808.99546  22975281.619    22975281.2044   22975286.3434
        -0.000          -0.000
 -11831316.773 9  -9203184.53548  20903064.994    20903064.6694   20903069.4444
        -0.000          -0.000
 -13509515.884 9 -10028555.44546  23393619.239    23393618.7154   23393624.0014
        -0.000          -0.000
 -13026296.866 9 -10141315.65649  20020673.291    20020672.8864   20020677.1414
        -0.000          -0.000
 -17191055.891 9 -13378794.33447  22643092.363    22643091.7144   22643097.0714
        -0.000          -0.000
   5290334.748 9   4101460.43047  22830134.131    22830134.0074   22830138.8474
        -0.000          -0.000
  11173103.143 9   8522777.12446  23506570.737    23506570.2304   23506576.5004
        -0.000          -0.000
   2654048.199 9   2071955.39048  21721869.546    21721868.8334   21721874.8064
        -0.000          -0.000
 97  3  3 16 47 59.9990000  0  9 22  3 19 27 18 31 29 14 16         -0.000615538
  11214557.363 8   8732028.04145  24298600.088    24298598.8804   24298604.8524
        -0.000          -0.000
 -12331003.534 9  -9595905.92146  22966710.610    22966710.1974   22966715.3284
        -0.000          -0.000
 -11885586.474 9  -9245472.61248  20892737.840    20892737.4794   20892742.2344
        -0.000          -0.000
 -13601121.613 9 -10099936.52446  23376187.259    23376186.7434   23376192.2064
        -0.000          -0.000
 -13076473.637 9 -10180414.44249  20011125.040    20011124.6274   20011128.8744
        -0.000          -0.000
 -17290702.027 9 -13456440.64847  22624130.215    22624129.6314   22624134.9904
        -0.000          -0.000
   5346550.885 9   4145265.17547  22840831.800    22840831.5914   22840836.4804
        -0.000          -0.000
  11257636.476 9   8588647.18546  23522656.841    23522656.5144   23522662.7274
        -0.000          -0.000
   2709393.122 9   2115081.26048  21732401.396    21732400.6924   21732406.6354
        -0.000          -0.000
 97  3  3 16 48 29.9990000  0  9 22  3 19 27 18 31 29 14 16         -0.000631124
  11297892.807 9   8796964.72245  24314458.222    24314457.0804   24314463.0854
        -0.000          -0.000
 -12375529.826 9  -9630601.71946  22958237.592    22958237.1634   22958242.2934
        -0.000          -0.000
 -11939689.864 9  -9287631.10248  20882442.296    20882441.9564   20882446.6954
        -0.000          -0.000
 -13692646.601 9 -10171254.67046  23358770.700    23358770.1504   23358775.6574
        -0.000          -0.000
 -13126192.593 9 -10219156.49249  20001663.889    20001663.4574   20001667.6824
        -0.000          -0.000
 -17390051.541 9 -13533855.81847  22605224.753    22605224.1694   22605229.5484
        -0.000          -0.000
   5403051.382 9   4189291.48447  22851583.510    22851583.3494   22851588.2594
        -0.000          -0.000
  11342225.260 9   8654560.45246  23538753.492    23538753.2704   23538759.4594
        -0.000          -0.000
   2765079.735 9   2158473.37148  21742998.199    21742997.5164   21743003.5134
        -0.000          -0.000
 97  3  3 16 48 59.9990000  0  9 22  3 19 27 18 31 29 14 16         -0.000646727
  11381280.760 9   8861942.32645  24330326.587    24330325.6664   24330331.2754
        -0.000          -0.000
 -12419572.087 9  -9664920.35646  22949856.634    22949856.2654   22949861.3074
        -0.000          -0.000
 -11993636.659 9  -9329667.56248  20872176.566    20872176.2434   20872181.0134
        -0.000          -0.000
 -13784108.059 9 -10242523.31146  23341366.169    23341365.6294   23341371.1014
        -0.000          -0.000
 -13175438.396 9 -10257529.84549  19992292.755    19992292.3244   19992296.5694
        -0.000          -0.000
 -17489106.277 9 -13611041.29647  22586375.288    22586374.6484   22586379.9584
        -0.000          -0.000
   5459820.036 9   4233526.75247  22862386.269    22862386.0994   22862391.0604
        -0.000          -0.000
  11426855.693 9   8720506.14446  23554858.282    23554857.9414   23554864.3684
        -0.000          -0.000
   2821108.595 9   2202132.18948  21753660.170    21753659.5154   21753665.4264
        -0.000          -0.000
 97  3  3 16 49 29.9990000  0  9 22  3 19 27 18 31 29 14 16         -0.000662346
  11464724.918 9   8926963.71345  24346205.638    24346204.6634   24346210.0724
        -0.000          -0.000
 -12463125.853 9  -9698858.34946  22941568.612    22941568.1934   22941573.3084
        -0.000          -0.000
 -12047412.034 9  -9371570.44648  20861943.483    20861943.1574   20861947.9364
        -0.000          -0.000
 -13875512.326 9 -10313747.40246  23323972.547    23323972.0504   23323977.3404
        -0.000          -0.000
 -13224209.955 9 -10295533.66649  19983011.826    19983011.3994   19983015.6564
        -0.000          -0.000
 -17587848.465 9 -13687983.23247  22567585.269    22567584.6274   22567589.8304
        -0.000          -0.000
   5516854.984 9   4277969.51947  22873239.662    22873239.5064   22873244.4834
        -0.000          -0.000
  11511544.230 9   8786497.13246  23570974.096    23570973.7544   23570980.2084
        -0.000          -0.000
   2877495.516 9   2246070.00348  21764390.364    21764389.6474   21764395.5794
        -0.000          -0.000
 97  3  3 16 49 59.9990000  0  9 22  3 19 27 18 31 29 14 16         -0.000677966
  11548229.813 9   8992032.43445  24362096.193    24362095.1224   24362100.5384
        -0.000          -0.000
 -12506173.925 9  -9732402.30346  22933376.777    22933376.4234   22933381.4694
        -0.000          -0.000
 -12100990.955 9  -9413320.25848  20851747.763    20851747.4254   20851752.1964
        -0.000          -0.000
 -13966837.018 9 -10384909.50046  23306594.181    23306593.6414   23306598.8884
        -0.000          -0.000
 -13272502.355 9 -10333164.11749  19973822.084    19973821.6414   19973825.9224
        -0.000          -0.000
 -17686263.893 9 -13764670.55247  22548857.354    22548856.8014   22548861.8494
        -0.000          -0.000
   5574150.775 9   4322615.53746  22884142.778    22884142.5284   22884147.4624
        -0.000          -0.000
  11596313.296 9   8852550.89846  23587105.098    23587104.7774   23587111.2204
        -0.000          -0.000
   2934241.954 9   2290287.96148  21775188.797    21775188.1514   21775194.1424
        -0.000          -0.000
 97  3  3 16 50 29.9990000  0  9 22  3 19 27 18 31 29 14 16         -0.000693593
  11631784.960 9   9057140.30945  24377996.208    24377995.2254   24378000.6384
        -0.000          -0.000
 -12548739.451 9  -9765570.22846  22925276.847    22925276.4124   22925281.5224
        -0.000          -0.000
 -12154375.549 9  -9454918.63748  20841589.108    20841588.7384   20841593.4734
        -0.000          -0.000
 -14058098.175 9 -10456022.08146  23289227.628    23289227.1244   23289232.3454
        -0.000          -0.000
 -13320340.406 9 -10370440.52749  19964718.791    19964718.3634   19964722.6634
        -0.000          -0.000
 -17784385.128 9 -13841128.61847  22530185.532    22530184.9674   22530190.0564
        -0.000          -0.000
   5631699.252 9   4367458.44047  22895093.825    22895093.6864   22895098.6744
        -0.000          -0.000
  11681148.223 9   8918655.93946  23603248.619    23603248.3614   23603254.8834
        -0.000          -0.000
   2991329.676 9   2334771.86348  21786052.361    21786051.6204   21786057.5614
        -0.000          -0.000
 97  3  3 16 50 59.9990000  0  9 22  3 19 27 18 31 29 14 16         -0.000709214
  11715398.292 9   9122293.51545  24393907.323    24393906.3104   24393911.7884
        -0.000          -0.000
 -12590816.037 9  -9798357.17546  22917269.883    22917269.5244   22917274.6184
        -0.000          -0.000
 -12207562.795 9  -9496363.24448  20831467.913    20831467.5454   20831472.2684
        -0.000          -0.000
 -14149290.098 9 -10527080.72146  23271874.248    23271873.7374   23271878.9614
        -0.000          -0.000
 -13367746.645 9 -10407380.45549  19955697.694    19955697.2784   19955701.5524
        -0.000          -0.000
 -17882205.919 9 -13917352.58847  22511570.914    22511570.2844   22511575.3814
        -0.000          -0.000
   5689504.697 9   4412501.60447  22906093.959    22906093.8114   22906098.7794
        -0.000          -0.000
  11766043.011 9   8984807.68646  23619403.658    23619403.3374   23619409.7704
        -0.000          -0.000
   3048767.689 9   2379528.70948  21796982.481    21796981.7634   21796987.7524
        -0.000          -0.000
 97  3  3 16 51 29.9990000  0  8  3 19 27 18 31 29 14 16            -0.000724936
 -12632396.736 9  -9830757.70446  22909357.371    22909356.9524   22909362.0834
        -0.000          -0.000
 -12260560.441 9  -9537660.10648  20821382.805    20821382.4474   20821387.1404
        -0.000          -0.000
 -14240413.924 9 -10598086.29646  23254534.050    23254533.4924   23254538.6704
        -0.000          -0.000
 -13414736.595 9 -10443996.00349  19946755.815    19946755.3794   19946759.6164
        -0.000          -0.000
 -17979727.196 9 -13993343.16747  22493013.148    22493012.5424   22493017.6004
        -0.000          -0.000
   5747563.633 9   4457742.28147  22917142.439    22917142.1734   22917147.0964
        -0.000          -0.000
  11850991.821 9   9051001.48346  23635568.924    23635568.5874   23635574.9694
        -0.000          -0.000
   3106534.436 9   2424541.72048  21807975.118    21807974.4134   21807980.4404
        -0.000          -0.000
 97  3  3 16 51 59.9990000  0  8  3 19 27 18 31 29 14 16            -0.000740517
 -12673428.640 9  -9862730.62446  22901549.277    22901548.9084   22901553.9604
        -0.000          -0.000
 -12313322.691 9  -9578773.55348  20811342.502    20811342.1584   20811346.8314
        -0.000          -0.000
 -14331408.532 9 -10668991.17346  23237218.257    23237217.6894   23237223.0784
        -0.000          -0.000
 -13461246.946 9 -10480237.84449  19937905.193    19937904.7764   19937908.9754
        -0.000          -0.000
 -18076919.275 9 -14069077.22847  22474518.172    22474517.5354   22474522.5404
        -0.000          -0.000
   5805924.006 9   4503217.83046  22928247.963    22928247.7754   22928252.7434
        -0.000          -0.000
  11936023.849 9   9117260.12346  23651750.115    23651749.7144   23651756.2184
        -0.000          -0.000
   3164665.268 9   2469838.43248  21819037.101    21819036.3854   21819042.3554
        -0.000          -0.000
 97  3  3 16 52 29.9990000  0  8  3 19 27 18 31 29 14 16            -0.000756062
 -12713910.679 9  -9894275.06146  22893845.832    22893845.4304   22893850.5054
        -0.000          -0.000
 -12365856.535 9  -9619709.02248  20801345.675    20801345.3084   20801349.9784
        -0.000          -0.000
 -14422287.500 9 -10739805.95146  23219924.662    23219924.1114   23219929.3634
        -0.000          -0.000
 -13507278.951 9 -10516106.94649  19929145.598    19929145.1804   19929149.4034
        -0.000          -0.000
 -18173784.451 9 -14144556.57447  22456085.264    22456084.6874   22456089.7264
        -0.000          -0.000
   5864596.175 9   4548936.34646  22939412.935    22939412.7254   22939417.7234
        -0.000          -0.000
  12021127.003 9   9183574.18046  23667944.721    23667944.3134   23667950.8774
        -0.000          -0.000
   3223151.008 9   2515411.68048  21830166.528    21830165.8614   21830171.8774
        -0.000          -0.000
 97  3  3 16 52 59.9990000  0  8  3 19 27 18 31 29 14 16            -0.000771590
 -12753862.244 9  -9925406.15446  22886243.252    22886242.8344   22886247.9744
        -0.000          -0.000
 -12418203.592 9  -9660498.93548  20791384.360    20791384.0044   20791388.6514
        -0.000          -0.000
 -14513089.062 9 -10810560.40847  23202645.770    23202645.1834   23202650.4684
        -0.000          -0.000
 -13552864.957 9 -10551628.52349  19920470.856    19920470.4454   19920474.6994
        -0.000          -0.000
 -18270344.534 9 -14219798.15447  22437710.429    22437709.8174   22437714.9544
        -0.000          -0.000
   5923545.718 9   4594871.00346  22950630.640    22950630.5094   22950635.5054
        -0.000          -0.000
  12106260.824 9   9249912.13946  23684145.239    23684144.8374   23684151.4814
        -0.000          -0.000
   3281951.601 9   2561230.26948  21841355.996    21841355.3144   21841361.2794
        -0.000          -0.000
 97  3  3 16 53 29.9990000  0  8  3 19 27 18 31 29 14 16            -0.000787109
 -12793294.901 9  -9956132.88646  22878739.430    22878739.0194   22878744.1564
        -0.000          -0.000
 -12470378.681 9  -9701154.84548  20781455.770    20781455.3884   20781460.0394
        -0.000          -0.000
 -14603819.062 9 -10881259.10046  23185380.406    23185379.7864   23185385.1794
        -0.000          -0.000
 -13597998.615 9 -10586797.62349  19911882.201    19911881.7814   19911886.0674
        -0.000          -0.000
 -18366606.931 9 -14294807.79847  22419392.233    22419391.6984   22419396.7684
        -0.000          -0.000
   5982761.076 9   4641012.77646  22961898.975    22961898.8384   22961903.8534
        -0.000          -0.000
  12191412.392 8   9316263.90846  23700349.032    23700348.6604   23700355.2554
        -0.000          -0.000
   3341048.230 9   2607279.56147  21852601.788    21852601.0994   21852607.0184
        -0.000          -0.000
 97  3  3 16 53 59.9990000  0  8  3 19 27 18 31 29 14 16            -0.000802619
 -12832204.668 9  -9986452.20146  22871335.160    22871334.7444   22871339.8524
        -0.000          -0.000
 -12522367.965 9  -9741665.97548  20771562.540    20771562.1874   20771566.8554
        -0.000          -0.000
 -14694461.153 9 -10951889.27746  23168131.706    23168131.1374   23168136.5814
        -0.000          -0.000
 -13642659.365 9 -10621598.21849  19903383.503    19903383.1054   19903387.4074
        -0.000          -0.000
 -18462544.011 9 -14369563.94747  22401136.035    22401135.4574   22401140.4704
        -0.000          -0.000
   6042257.329 9   4687373.41847  22973220.723    22973220.6704   22973225.7124
        -0.000          -0.000
  12276594.964 9   9382639.86046  23716558.773    23716558.4184   23716564.9904
        -0.000          -0.000
   3400463.564 9   2653577.15847  21863908.166    21863907.5024   21863913.5074
        -0.000          -0.000
 97  3  3 16 54 29.9990000  0  8  3 19 27 18 31 29 14 16            -0.000818127
 -12870606.248 9 -10016375.50346  22864027.609    22864027.1944   22864032.3014
        -0.000          -0.000
 -12574181.422 9  -9782040.09448  20761702.693    20761702.3434   20761707.0954
        -0.000          -0.000
 -14785032.611 9 -11022464.42246  23150896.441    23150895.8794   23150901.3534
        -0.000          -0.000
 -13686863.992 9 -10656043.38649  19894971.684    19894971.2784   19894975.5384
        -0.000          -0.000
 -18558136.275 9 -14444051.40247  22382945.476    22382944.8694   22382949.7974
        -0.000          -0.000
   6102033.398 9   4733952.12146  22984595.742    22984595.7154   22984600.7364
        -0.000          -0.000
  12361804.952 9   9449037.18346  23732773.689    23732773.4424   23732779.9614
        -0.000          -0.000
   3460196.376 9   2700122.17347  21875275.067    21875274.3624   21875280.3594
        -0.000          -0.000
 97  3  3 16 54 59.9990000  0  8  3 19 27 18 31 29 14 16            -0.000833641
 -12908510.386 9 -10045911.20446  22856814.669    22856814.2864   22856819.3504
        -0.000          -0.000
 -12625821.443 9  -9822279.07248  20751875.890    20751875.5464   20751880.3284
        -0.000          -0.000
 -14875519.852 9 -11092973.95546  23133677.019    23133676.5894   23133682.1504
        -0.000          -0.000
 -13730601.054 9 -10690124.22349  19886648.870    19886648.4404   19886652.6744
        -0.000          -0.000
 -18653362.101 9 -14518253.31847  22364824.475    22364823.9154   22364828.8614
        -0.000          -0.000
   6162092.532 9   4780751.38946  22996024.658    22996024.5944   22996029.6074
        -0.000          -0.000
  12447045.048 9   9515457.95646  23748994.469    23748994.3034   23749000.7134
        -0.000          -0.000
   3520273.890 9   2746935.78347  21886707.433    21886706.7184   21886712.7924
        -0.000          -0.000
 97  3  3 16 55 29.9990000  0  8  3 19 27 18 31 29 14 16            -0.000849167
 -12945929.513 9 -10075068.97146  22849694.035    22849693.6364   22849698.6524
        -0.000          -0.000
 -12677286.184 9  -9862381.46048  20742082.468    20742082.1354   20742086.9184
        -0.000          -0.000
 -14965926.554 9 -11163420.71746  23116473.232    23116472.8284   23116478.2724
        -0.000          -0.000
 -13773871.044 9 -10723841.10149  19878414.884    19878414.4704   19878418.6504
        -0.000          -0.000
 -18748219.349 9 -14592168.03647  22346773.656    22346773.1114   22346778.1104
        -0.000          -0.000
   6222420.383 9   4827760.05846  23007504.740    23007504.6364   23007509.7234
        -0.000          -0.000
  12532313.669 9   9581901.00946  23765220.672    23765220.5504   23765226.8514
        -0.000          -0.000
   3580701.097 9   2794021.85847  21898206.362    21898205.6484   21898211.7914
        -0.000          -0.000
 97  3  3 16 55 59.9990000  0  8  3 19 27 18 31 29 14 16            -0.000864714
 -12982869.866 9 -10103853.66846  22842664.547    22842664.1134   22842669.1444
        -0.000          -0.000
 -12728584.789 9  -9902354.39848  20732320.654    20732320.3434   20732325.1304
        -0.000          -0.000
 -15056266.913 9 -11233815.79746  23099282.121    23099281.6204   23099287.0224
        -0.000          -0.000
 -13816683.230 9 -10757201.25149  19870268.019    19870267.5904   19870271.7654
        -0.000          -0.000
 -18842712.809 9 -14665799.27047  22328792.119    22328791.5294   22328796.6364
        -0.000          -0.000
   6283004.546 9   4874968.43646  23019033.504    23019033.4444   23019038.5534
        -0.000          -0.000
  12617598.251 8   9648356.41046  23781449.910    23781449.7254   23781456.1484
        -0.000          -0.000
   3641459.181 9   2841365.78347  21909768.213    21909767.5044   21909773.5984
        -0.000          -0.000
 97  3  3 16 56 29.9990000  0  8  3 19 27 18 31 29 14 16            -0.000880260
 -13019297.227 9 -10132238.62546  22835732.683    22835732.2114   22835737.2304
        -0.000          -0.000
 -12779691.916 9  -9942178.13048  20722595.333    20722594.9964   20722599.7584
        -0.000          -0.000
 -15146519.528 9 -11304142.50947  23082107.700    23082107.2094   23082112.5064
        -0.000          -0.000
 -13859017.808 9 -10790189.23649  19862211.968    19862211.5374   19862215.7434
        -0.000          -0.000
 -18936830.984 9 -14739138.08947  22310882.059    22310881.4484   22310886.5824
        -0.000          -0.000
   6343859.373 9   4922387.72446  23030613.984    23030613.8284   23030618.9294
        -0.000          -0.000
  12702916.711 8   9714838.24646  23797685.546    23797685.3654   23797691.8454
        -0.000          -0.000
   3702556.101 9   2888973.73947  21921394.580    21921393.9344   21921399.9964
        -0.000          -0.000
 97  3  3 16 56 59.9990000  0  8  3 19 27 18 31 29 14 16            -0.000895792
 -13055185.481 9 -10160203.49946  22828903.420    22828902.9494   22828907.9854
        -0.000          -0.000
 -12830596.436 9  -9981843.98348  20712908.542    20712908.2024   20712912.8944
        -0.000          -0.000
 -15236677.651 9 -11374395.57447  23064951.290    23064950.7874   23064956.0474
        -0.000          -0.000
 -13900869.588 9 -10822801.02349  19854247.809    19854247.4014   19854251.6424
        -0.000          -0.000
 -19030588.083 9 -14812195.54447  22293040.676    22293040.0704   22293045.1844
        -0.000          -0.000
   6404988.960 9   4970021.11046  23042246.579    23042246.3754   23042251.5604
        -0.000          -0.000
  12788280.914 8   9781355.72145  23813929.877    23813929.6304   23813936.2474
        -0.000          -0.000
   3763988.895 9   2936843.40047  21933084.999    21933084.3214   21933090.4044
        -0.000          -0.000
 97  3  3 16 57 29.9990000  0  8  3 19 27 18 31 29 14 16            -0.000911293
 -13090509.228 9 -10187728.50446  22822181.510    22822181.0834   22822186.0174
        -0.000          -0.000
 -12881299.587 9 -10021352.93148  20703260.015    20703259.6924   20703264.3824
        -0.000          -0.000
 -15326750.797 9 -11444582.40747  23047810.865    23047810.3534   23047815.7324
        -0.000          -0.000
 -13942256.150 9 -10855050.30149  19846372.213    19846371.8134   19846376.0804
        -0.000          -0.000
 -19124013.886 9 -14884994.84847  22275262.357    22275261.8274   22275266.8804
        -0.000          -0.000
   6466390.597 9   5017866.49546  23053930.868    23053930.7464   23053935.8124
        -0.000          -0.000
  12873686.037 9   9847905.05746  23830182.003    23830181.7984   23830188.4214
        -0.000          -0.000
   3825727.848 9   2984951.63547  21944833.540    21944832.8384   21944838.9744
        -0.000          -0.000
 97  3  3 16 57 59.9990000  0  8  3 19 27 18 31 29 14 16            -0.000926745
 -13125257.790 9 -10214805.29846  22815569.050    22815568.5714   22815573.5694
        -0.000          -0.000
 -12931810.029 9 -10060711.71348  20693648.157    20693647.8364   20693652.5104
        -0.000          -0.000
 -15416723.561 9 -11514691.01347  23030689.434    23030689.0264   23030694.5444
        -0.000          -0.000
 -13983176.773 9 -10886936.50749  19838585.310    19838584.9034   19838589.1804
        -0.000          -0.000
 -19217113.712 9 -14957540.15147  22257546.050    22257545.4924   22257550.5224
        -0.000          -0.000
   6528084.806 9   5065939.86246  23065671.035    23065670.8784   23065675.8784
        -0.000          -0.000
  12959137.172 9   9914490.26846  23846442.950    23846442.6614   23846449.3334
        -0.000          -0.000
   3887761.869 9   3033289.80247  21956638.274    21956637.5764   21956643.6854
        -0.000          -0.000
 97  3  3 16 58 29.9990000  0  8  3 19 27 18 31 29 14 16            -0.000942144
 -13159426.608 9 -10241430.35246  22809066.980    22809066.5324   22809071.5024
        -0.000          -0.000
 -12982117.104 9 -10099912.03048  20684075.041    20684074.7034   20684079.4044
        -0.000          -0.000
 -15506598.408 9 -11584723.31947  23013586.884    23013586.4464   23013591.9774
        -0.000          -0.000
 -14023633.645 9 -10918461.35549  19830886.632    19830886.2334   19830890.5114
        -0.000          -0.000
 -19309894.073 9 -15029836.52247  22239890.479    22239889.9154   22239894.9674
        -0.000          -0.000
   6590085.541 9   5114252.06846  23077469.469    23077469.3604   23077474.3264
        -0.000          -0.000
  13044634.860 9   9981111.77245  23862712.710    23862712.4284   23862719.0484
        -0.000          -0.000
   3950102.507 9   3081866.86247  21968501.266    21968500.5944   21968506.8794
        -0.000          -0.000
 97  3  3 16 58 59.9990000  0  8  3 19 27 18 31 29 14 16            -0.000957512
 -13193048.891 9 -10267629.53546  22802668.825    22802668.4814   22802673.4274
        -0.000          -0.000
 -13032262.178 9 -10138986.10748  20674532.740    20674532.3894   20674537.1214
        -0.000          -0.000
 -15596400.159 9 -11654698.66146  22996498.154    22996497.6864   22996503.1934
        -0.000          -0.000
 -14063656.125 9 -10949647.70649  19823270.669    19823270.2464   19823274.4904
        -0.000          -0.000
 -19402369.017 9 -15101894.88647  22222293.034    22222292.4574   22222297.5604
        -0.000          -0.000
   6652366.850 9   5162782.88446  23089321.337    23089321.1954   23089326.2184
        -0.000          -0.000
  13130144.534 9  10047742.62745  23878984.679    23878984.4024   23878990.9024
        -0.000          -0.000
   4012727.646 9   3130665.64447  21980418.456    21980417.8534   21980423.9914
        -0.000          -0.000
 97  3  3 16 59 29.9990000  0  8  3 19 27 18 31 29 14 16            -0.000972847
 -13226126.078 9 -10293403.96546  22796374.444    22796374.0994   22796379.0484
        -0.000          -0.000
 -13082237.226 9 -10177927.70148  20665022.781    20665022.4434   20665027.1974
        -0.000          -0.000
 -15686110.893 9 -11724603.09847  22979426.755    22979426.3544   22979431.7344
        -0.000          -0.000
 -14103217.240 9 -10980474.55649  19815742.436    19815742.0374   19815746.2674
        -0.000          -0.000
 -19494492.567 9 -15173679.45047  22204762.521    22204761.9344   22204767.0164
        -0.000          -0.000
   6714933.294 9   5211535.87946  23101227.350    23101227.1634   23101232.2584
        -0.000          -0.000
  13215668.919 8  10114384.91445  23895259.369    23895259.0264   23895265.7594
        -0.000          -0.000
   4075638.443 9   3179687.01647  21992390.106    21992389.4064   21992395.4794
        -0.000          -0.000
 97  3  3 16 59 59.9990000  0  8  3 19 27 18 31 29 14 16            -0.000988183
 -13258697.902 9 -10318784.61046  22790176.185    22790175.9094   22790180.8734
        -0.000          -0.000
 -13132050.125 9 -10216742.94548  20655543.751    20655543.4154   20655548.1554
        -0.000          -0.000
 -15775751.512 9 -11794452.91147  22962368.803    22962368.3534   22962373.5544
        -0.000          -0.000
 -14142307.091 9 -11010934.18349  19808303.905    19808303.4774   19808307.6914
        -0.000          -0.000
 -19586239.657 9 -15245170.66147  22187303.614    22187303.0604   22187308.1344
        -0.000          -0.000
   6777772.486 9   5260501.45046  23113185.233    23113185.1244   23113190.1844
        -0.000          -0.000
  13301189.686 8  10181024.39945  23911533.278    23911532.9494   23911539.8114
        -0.000          -0.000
   4138819.859 9   3228919.21847  22004413.045    22004412.4124   22004418.6364
        -0.000          -0.000
 97  3  3 17  0 29.9990000  0  8  3 19 27 18 31 29 14 16            -0.001003526
 -13290755.093 9 -10343764.24146  22784075.964    22784075.6734   22784080.6124
        -0.000          -0.000
 -13181684.662 9 -10255419.20048  20646098.560    20646098.2444   20646102.9884
        -0.000          -0.000
 -15865324.841 9 -11864250.29847  22945323.629    22945323.1734   22945328.2154
        -0.000          -0.000
 -14180907.447 9 -11041012.39049  19800958.448    19800958.0424   19800962.2384
        -0.000          -0.000
 -19677575.825 9 -15316341.68047  22169922.955    22169922.3924   22169927.4644
        -0.000          -0.000
   6840883.024 9   5309678.44046  23125194.848    23125194.7104   23125199.6164
        -0.000          -0.000
  13386712.617 9  10247665.58045  23927807.748    23927807.4744   23927814.2964
        -0.000          -0.000
   4202284.107 9   3278371.84547  22016489.937    22016489.3024   22016495.5254
        -0.000          -0.000
 97  3  3 17  0 59.9980000  0  8  3 19 27 18 31 29 14 16            -0.001018878
 -13322300.847 9 -10368345.33746  22778073.043    22778072.7084   22778077.6414
        -0.000          -0.000
 -13231145.960 9 -10293960.46348  20636686.445    20636686.1194   20636690.8324
        -0.000          -0.000
 -15954825.409 9 -11933990.95747  22928292.268    22928291.7644   22928296.7954
        -0.000          -0.000
 -14219012.575 9 -11070704.70049  19793707.294    19793706.8824   19793711.1024
        -0.000          -0.000
 -19768494.198 9 -15387187.14347  22152621.727    22152621.1794   22152626.2304
        -0.000          -0.000
   6904236.070 9   5359044.37546  23137250.512    23137250.3444   23137255.4364
        -0.000          -0.000
  13472237.013 9  10314307.84945  23944082.604    23944082.3264   23944089.3364
        -0.000          -0.000
   4266011.173 9   3328029.25747  22028616.741    22028616.0964   22028622.4004
        -0.000          -0.000
 97  3  3 17  1 29.9980000  0  8  3 19 27 18 31 29 14 16            -0.001034235
 -13353320.928 9 -10392516.82446  22772170.159    22772169.8154   22772174.7904
        -0.000          -0.000
 -13280396.867 9 -10332337.79448  20627314.385    20627314.0384   20627318.7174
        -0.000          -0.000
 -16044244.640 9 -12003668.24347  22911276.244    22911275.7844   22911280.8614
        -0.000          -0.000
 -14256593.164 9 -11099988.28349  19786555.922    19786555.5334   19786559.7544
        -0.000          -0.000
 -19858993.576 9 -15457706.10647  22135400.319    22135399.6924   22135404.7414
        -0.000          -0.000
   6967858.159 9   5408619.95246  23149357.423    23149357.2944   23149362.4934
        -0.000          -0.000
  13557787.427 9  10380970.39145  23960362.459    23960362.1764   23960369.2024
        -0.000          -0.000
   4330023.567 9   3377908.98847  22040797.946    22040797.3434   22040803.7364
        -0.000          -0.000
 97  3  3 17  1 59.9980000  0  8  3 19 27 18 31 29 14 16            -0.001049587
 -13383805.624 9 -10416271.12746  22766369.118    22766368.7614   22766373.7154
        -0.000          -0.000
 -13329430.534 9 -10370545.84449  20617983.612    20617983.2674   20617987.9384
        -0.000          -0.000
 -16133571.115 9 -12073273.25747  22894277.910    22894277.4614   22894282.5964
        -0.000          -0.000
 -14293652.079 9 -11128865.36749  19779503.876    19779503.4754   19779507.7144
        -0.000          -0.000
 -19949092.525 9 -15527913.06847  22118255.024    22118254.4314   22118259.4864
        -0.000          -0.000
   7031756.518 9   5458410.80346  23161516.870    23161516.7264   23161522.0484
        -0.000          -0.000
  13643367.124 9  10447655.80846  23976647.905    23976647.6524   23976654.5784
        -0.000          -0.000
   4394333.142 9   3428020.30547  22053035.784    22053035.1424   22053041.4964
        -0.000          -0.000
 97  3  3 17  2 29.9980000  0  8  3 19 27 18 31 29 14 16            -0.001064927
 -13413753.601 9 -10439607.20546  22760670.120    22760669.8264   22760674.7794
        -0.000          -0.000
 -13378266.097 9 -10408599.52349  20608690.515    20608690.1914   20608694.8454
        -0.000          -0.000
 -16222808.136 9 -12142808.54747  22877296.578    22877296.1284   22877301.3094
        -0.000          -0.000
 -14330218.307 9 -11157358.53449  19772545.534    19772545.1424   19772549.3974
        -0.000          -0.000
 -20038820.207 9 -15597830.71847  22101180.319    22101179.7624   22101184.7694
        -0.000          -0.000
   7095900.634 9   5508393.16646  23173723.080    23173722.9164   23173728.3184
        -0.000          -0.000
  13728961.078 9  10514352.31146  23992935.978    23992935.7364   23992942.5584
        -0.000          -0.000
   4458935.882 9   3478360.06247  22065329.176    22065328.5414   22065334.8804
        -0.000          -0.000
 97  3  3 17  2 59.9980000  0  8  3 19 27 18 31 29 14 16            -0.001080282
 -13443201.056 9 -10462553.27246  22755066.466    22755066.1364   22755071.0874
        -0.000          -0.000
 -13426950.518 9 -10446535.42649  20599426.164    20599425.8344   20599430.4644
        -0.000          -0.000
 -16312002.193 9 -12212310.35247  22860323.369    22860322.9584   22860328.2474
        -0.000          -0.000
 -14366342.599 9 -11185507.33049  19765671.337    19765670.9514   19765675.2294
        -0.000          -0.000
 -20128225.880 9 -15667497.45647  22084167.028    22084166.4004   22084171.3564
        -0.000          -0.000
   7160252.148 9   5558537.13046  23185968.612    23185968.5484   23185974.0254
        -0.000          -0.000
  13814523.159 9  10581023.96146  24009217.959    24009217.7844   24009224.5244
        -0.000          -0.000
   4523797.041 9   3528901.19247  22077671.872    22077671.2364   22077677.5624
        -0.000          -0.000
 97  3  3 17  3 29.9980000  0  9  3 19 27 18  2 31 29 14 16         -0.001095623
 -13472138.980 9 -10485102.30946  22749559.794    22749559.4084   22749564.3644
        -0.000          -0.000
 -13475488.670 9 -10484357.35349  20590189.676    20590189.3684   20590193.9864
        -0.000          -0.000
 -16401156.165 9 -12281780.93047  22843357.991    22843357.6334   22843362.8784
        -0.000          -0.000
 -14402029.884 9 -11213315.60549  19758880.271    19758879.8624   19758884.1574
        -0.000          -0.000
  -2203885.42418  -1411314.52155  24610060.624    24610059.8605   24610067.4475
        -0.000          -0.000
 -20217291.061 9 -15736898.86547  22067218.420    22067217.8634   22067222.7994
        -0.000          -0.000
   7224830.241 9   5608857.64346  23198257.447    23198257.4304   23198262.9624
        -0.000          -0.000
  13900041.919 9  10647661.86346  24025491.738    24025491.5384   24025498.3204
        -0.000          -0.000
   4588915.577 9   3579642.86247  22090063.573    22090062.9384   22090069.2854
        -0.000          -0.000
 97  3  3 17  3 59.9980000  0  9  3 19 27 18  2 31 29 14 16         -0.001110969
 -13500526.688 9 -10507222.60146  22744157.850    22744157.4274   22744162.3254
        -0.000          -0.000
 -13523878.646 9 -10522063.82049  20580981.393    20580981.0534   20580985.6664
        -0.000          -0.000
 -16490247.435 9 -12351202.66147  22826404.542    22826404.1004   22826409.3174
        -0.000          -0.000
 -14437272.687 9 -11240777.53049  19752173.786    19752173.3654   19752177.6844
        -0.000          -0.000
  -2320392.143 8  -1502098.96545  24587890.152    24587889.3984   24587896.8814
        -0.000          -0.000
 -20305971.107 9 -15806000.15947  22050343.162    22050342.6064   22050347.5424
        -0.000          -0.000
   7289653.184 9   5659368.96546  23210593.172    23210593.0604   23210598.5174
        -0.000          -0.000
  13985537.780 8  10714281.92045  24041761.137    24041760.8954   24041767.6214
        -0.000          -0.000
   4654306.490 9   3630596.79947  22102507.157    22102506.5434   22102512.7874
        -0.000          -0.000
 97  3  3 17  4 29.9980000  0  9  3 19 27 18  2 31 29 14 16         -0.001126272
 -13528306.424 9 -10528869.13246  22738871.505    22738871.1274   22738876.0954
        -0.000          -0.000
 -13572066.357 9 -10559612.68149  20571811.564    20571811.2414   20571815.8404
        -0.000          -0.000
 -16579234.097 9 -12420542.91947  22809470.940    22809470.5024   22809475.5454
        -0.000          -0.000
 -14472002.306 9 -11267839.57249  19745564.945    19745564.5404   19745568.8264
        -0.000          -0.000
  -2436712.490 9  -1592738.20945  24565755.388    24565754.5224   24565762.0704
        -0.000          -0.000
 -20394191.413 9 -15874743.23047  22033555.471    22033554.8674   22033559.7584
        -0.000          -0.000
   7354771.143 9   5710110.15446  23222984.836    23222984.7324   23222990.1064
        -0.000          -0.000
  14071055.255 8  10780918.81845  24058034.612    24058034.4394   24058041.2224
        -0.000          -0.000
   4720010.882 9   3681794.98747  22115010.506    22115009.7974   22115016.0014
        -0.000          -0.000
 97  3  3 17  4 59.9980000  0  9  3 19 27 18  2 31 29 14 16         -0.001141554
 -13555512.862 9 -10550068.94046  22733694.261    22733693.8914   22733698.8864
        -0.000          -0.000
 -13620070.217 9 -10597018.28149  20562676.753    20562676.4054   20562681.0114
        -0.000          -0.000
 -16668139.765 9 -12489820.03747  22792552.752    22792552.2754   22792557.3244
        -0.000          -0.000
 -14506244.406 9 -11294521.72849  19739048.929    19739048.5114   19739052.7704
        -0.000          -0.000
  -2552892.456 9  -1683268.05145  24543647.034    24543646.2084   24543653.5964
        -0.000          -0.000
 -20481983.286 9 -15943152.46147  22016849.268    22016848.6834   22016853.5204
        -0.000          -0.000
   7420164.077 9   5761065.61246  23235428.742    23235428.6274   23235434.0444
        -0.000          -0.000
  14156555.700 8  10847542.45745  24074304.882    24074304.6964   24074311.6974
        -0.000          -0.000
   4785982.145 9   3733201.09347  22127564.284    22127563.6174   22127569.9914
        -0.000          -0.000
 97  3  3 17  5 29.9980000  0  9  3 19 27 18  2 31 29 14 16         -0.001156805
 -13582145.920 9 -10570821.95646  22728626.098    22728625.7604   22728630.7614
        -0.000          -0.000
 -13667861.544 9 -10634258.26849  20553582.357    20553581.9914   20553586.6134
        -0.000          -0.000
 -16756942.159 9 -12559016.66647  22775654.109    22775653.6234   22775658.7764
        -0.000          -0.000
 -14539987.157 9 -11320814.78149  19732627.904    19732627.5064   19732631.7484
        -0.000          -0.000
  -2668922.459 9  -1773681.09145  24521567.437    24521566.7234   24521573.6064
        -0.000          -0.000
 -20569341.174 9 -16011223.51147  22000225.556    22000224.9814   22000229.8504
        -0.000          -0.000
   7485830.914 9   5812234.50346  23247924.721    23247924.5174   23247930.0424
        -0.000          -0.000
  14242044.565 8  10914157.05345  24090572.989    24090572.6744   24090579.8424
        -0.000          -0.000
   4852209.741 9   3784806.97647  22140166.985    22140166.3614   22140172.6514
        -0.000          -0.000
 97  3  3 17  5 59.9980000  0  9  3 19 27 18  2 31 29 14 16         -0.001172032
 -13608217.189 9 -10591137.21846  22723664.966    22723664.5544   22723669.5874
        -0.000          -0.000
 -13715432.648 9 -10671326.65449  20544529.869    20544529.5084   20544534.1504
        -0.000          -0.000
 -16845641.826 9 -12628133.25447  22758775.000    22758774.5184   22758779.7514
        -0.000          -0.000
 -14573216.682 9 -11346707.91649  19726304.542    19726304.1444   19726308.3914
        -0.000          -0.000
  -2784781.479 9  -1863960.90945  24499520.057    24499519.5264   24499526.1344
        -0.000          -0.000
 -20656260.984 9 -16078953.20047  21983685.236    21983684.6524   21983689.5594
        -0.000          -0.000
   7551761.651 9   5863609.04946  23260471.034    23260470.8414   23260476.3184
        -0.000          -0.000
  14327526.612 8  10980766.34045  24106839.804    24106839.4024   24106846.5774
        -0.000          -0.000
   4918701.262 9   3836618.51347  22152820.003    22152819.3224   22152825.5574
        -0.000          -0.000
 97  3  3 17  6 29.9980000  0  9  3 19 27 18  2 31 29 14 16         -0.001187232
 -13633729.789 9 -10611017.16146  22718810.113    22718809.7154   22718814.7664
        -0.000          -0.000
 -13762750.160 9 -10708197.43949  20535525.667    20535525.3124   20535529.9694
        -0.000          -0.000
 -16934223.157 9 -12697157.63447  22741918.475    22741918.0174   22741923.2184
        -0.000          -0.000
 -14605913.215 9 -11372185.73749  19720082.604    19720082.1914   19720086.4664
        -0.000          -0.000
  -2900448.445 9  -1954091.02145  24477509.335    24477508.7034   24477515.5074
        -0.000          -0.000
 -20742736.475 9 -16146336.67547  21967229.444    21967228.8544   21967233.7334
        -0.000          -0.000
   7617968.613 9   5915198.84446  23273069.846    23273069.7694   23273075.1604
        -0.000          -0.000
  14413011.558 8  11047377.90845  24123107.004    24123106.7814   24123113.8564
        -0.000          -0.000
   4985465.323 9   3888642.40547  22165524.820    22165524.1364   22165530.4484
        -0.000          -0.000
 97  3  3 17  6 59.9980000  0  9  3 19 27 18  2 31 29 14 16         -0.001202411
 -13658710.270 9 -10630482.45846  22714056.425    22714056.0774   22714061.1264
        -0.000          -0.000
 -13809829.142 9 -10744882.35549  20526566.844    20526566.4644   20526571.1464
        -0.000          -0.000
 -17022706.771 9 -12766105.86947  22725080.676    22725080.1854   22725085.3554
        -0.000          -0.000
 -14638120.049 9 -11397281.97849  19713953.833    19713953.4344   19713957.7374
        -0.000          -0.000
  -3015938.417 9  -2044083.19445  24455532.366    24455531.6084   24455538.6044
        -0.000          -0.000
 -20828797.431 9 -16213397.13547  21950852.504    21950851.9414   21950856.8284
        -0.000          -0.000
   7684435.251 9   5966990.96146  23285718.101    23285718.1024   23285723.4504
        -0.000          -0.000
  14498479.427 8  11113976.15045  24139370.961    24139370.7124   24139377.9604
        -0.000          -0.000
   5052481.503 9   3940862.75347  22178277.646    22178276.9484   22178283.2554
        -0.000          -0.000
 97  3  3 17  7 29.9980000  0  9  3 19 27 18  2 31 29 14 16         -0.001217574
 -13683150.328 9 -10649526.66046  22709405.610    22709405.2764   22709410.2524
        -0.000          -0.000
 -13856684.162 9 -10781392.75649  20517650.585    20517650.2564   20517654.9314
        -0.000          -0.000
 -17111101.813 9 -12834985.09947  22708259.685    22708259.2194   22708264.3674
        -0.000          -0.000
 -14669815.027 9 -11421979.37349  19707922.430    19707922.0504   19707926.4014
        -0.000          -0.000
  -3131231.986 9  -2133922.31845  24433592.885    24433592.0964   24433598.9874
        -0.000          -0.000
 -20914409.157 9 -16280107.54347  21934561.157    21934560.5704   21934565.4824
        -0.000          -0.000
   7751178.400 9   6018998.52446  23298418.886    23298418.9304   23298424.3624
        -0.000          -0.000
  14583940.318 8  11180568.91945  24155633.559    24155633.3634   24155640.7424
        -0.000          -0.000
   5119760.821 9   3993288.16547  22191080.433    22191079.7764   22191086.1654
        -0.000          -0.000
 97  3  3 17  7 59.9980000  0  9  3 19 27 18  2 31 29 14 16         -0.001232735
 -13707056.943 9 -10668155.18246  22704856.385    22704856.0064   22704860.9434
        -0.000          -0.000
 -13903348.651 9 -10817754.69249  20508770.617    20508770.2844   20508774.9714
        -0.000          -0.000
 -17199430.999 9 -12903813.01847  22691451.235    22691450.7664   22691455.8644
        -0.000          -0.000
 -14700998.027 9 -11446277.82249  19701988.485    19701988.1174   19701992.4724
        -0.000          -0.000
  -3246346.851 9  -2223622.22245  24411687.381    24411686.5404   24411693.4934
        -0.000          -0.000
 -20999578.874 9 -16346473.53647  21918353.879    21918353.3204   21918358.2014
        -0.000          -0.000
   7818197.728 9   6071221.28746  23311172.229    23311172.3314   23311177.7014
        -0.000          -0.000
  14669369.924 8  11247137.29045  24171890.407    24171890.2784   24171897.6184
        -0.000          -0.000
   5187289.156 9   4045907.58247  22203930.753    22203930.0594   22203936.4834
        -0.000          -0.000
 97  3  3 17  8 29.9980000  0  9  3 19 27 18  2 31 29 14 16         -0.001247882
 -13730408.700 9 -10686351.35246  22700412.700    22700412.3024   22700417.2564
        -0.000          -0.000
 -13949811.765 9 -10853959.71649  20499928.980    20499928.6554   20499933.3184
        -0.000          -0.000
 -17287678.785 9 -12972577.50047  22674658.288    22674657.8014   22674662.8774
        -0.000          -0.000
 -14731663.422 9 -11470172.94349  19696153.094    19696152.7174   19696157.0564
        -0.000          -0.000
  -3361295.325 9  -2313192.47345  24389813.466    24389812.6244   24389819.5894
        -0.000          -0.000
 -21084317.948 9 -16412503.95947  21902228.582    21902227.9834   21902232.8674
        -0.000          -0.000
   7885505.656 9   6123668.99946  23323980.669    23323980.7044   23323985.7964
        -0.000          -0.000
  14754767.950 8  11313681.09945  24188141.369    24188141.1584   24188148.5374
        -0.000          -0.000
   5255059.595 9   4098715.67447  22216827.013    22216826.3614   22216832.8114
        -0.000          -0.000
 97  3  3 17  8 59.9980000  0  9  3 19 27 18  2 31 29 14 16         -0.001263031
 -13753206.943 9 -10704116.21746  22696074.382    22696073.9754   22696078.9474
        -0.000          -0.000
 -13996088.664 9 -10890019.63449  20491122.756    20491122.4614   20491127.1024
        -0.000          -0.000
 -17375862.988 9 -13041292.43647  22657877.442    22657876.9384   22657881.8774
        -0.000          -0.000
 -14761803.548 9 -11493658.75749  19690417.662    19690417.2984   19690421.5814
        -0.000          -0.000
  -3476087.805 8  -2402641.14945  24367969.079    24367968.3274   24367975.3634
        -0.000          -0.000
 -21168633.082 9 -16478204.04347  21886183.909    21886183.2914   21886188.1574
        -0.000          -0.000
   7953088.288 9   6176330.70746  23336841.284    23336841.3414   23336846.4954
        -0.000          -0.000
  14840129.530 8  11380196.49045  24204385.305    24204385.0134   24204392.2844
        -0.000          -0.000
   5323074.944 9   4151714.61047  22229769.882    22229769.2614   22229775.6614
        -0.000          -0.000
 97  3  3 17  9 29.9980000  0  9  3 19 27 18  2 31 29 14 16         -0.001278185
 -13775447.512 9 -10721446.52446  22691842.122    22691841.7164   22691846.7084
        -0.000          -0.000
 -14042186.502 9 -10925940.02349  20482350.610    20482350.3144   20482354.9774
        -0.000          -0.000
 -17463976.953 9 -13109952.63947  22641109.780    22641109.2764   22641114.2714
        -0.000          -0.000
 -14791398.480 9 -11516719.74849  19684785.986    19684785.6064   19684789.8364
        -0.000          -0.000
  -3590721.465 8  -2491966.06145  24346154.792    24346154.2584   24346161.3164
        -0.000          -0.000
 -21252520.574 9 -16543570.90047  21870220.592    21870220.0224   21870224.8474
        -0.000          -0.000
   8020921.888 9   6229187.99746  23349749.609    23349749.7344   23349754.7644
        -0.000          -0.000
  14925446.844 8  11446677.38945  24220620.760    24220620.4834   24220627.8204
        -0.000          -0.000
   5391327.507 9   4204898.40347  22242758.001    22242757.3894   22242763.7534
        -0.000          -0.000
 97  3  3 17  9 59.9980000  0  9  3 19 27 18  2 31 29 14 16         -0.001293332
 -13797125.234 9 -10738338.24146  22687716.941    22687716.5704   22687721.5664
        -0.000          -0.000
 -14088085.234 9 -10961705.26349  20473616.368    20473616.0914   20473620.7374
        -0.000          -0.000
 -17551998.495 9 -13178540.83247  22624359.734    22624359.2524   22624364.2974
        -0.000          -0.000
 -14820459.925 9 -11539365.03549  19679255.810    19679255.4254   19679259.6694
        -0.000          -0.000
  -3705198.493 8  -2581168.85945  24324370.207    24324369.7104   24324377.1084
        -0.000          -0.000
 -21336000.425 9 -16608620.11947  21854334.859    21854334.3494   21854339.1534
        -0.000          -0.000
   8088982.742 9   6282222.31246  23362701.307    23362701.2984   23362706.4464
        -0.000          -0.000
  15010720.729 8  11513124.44445  24236847.950    24236847.6994   24236855.0744
        -0.000          -0.000
   5459808.111 9   4258259.86147  22255789.409    22255788.7784   22255795.2934
        -0.000          -0.000
 97  3  3 17 10 29.9980000  0  9  3 19 27 18  2 31 29 14 16         -0.001308464
 -13818234.356 9 -10754786.90546  22683700.062    22683699.6524   22683704.6614
        -0.000          -0.000
 -14133789.342 9 -10997318.84949  20464919.187    20464918.8914   20464923.5344
        -0.000          -0.000
 -17639923.005 9 -13247053.40147  22607628.137    22607627.6764   22607632.8624
        -0.000          -0.000
 -14848996.352 9 -11561601.21949  19673825.478    19673825.0944   19673829.3754
        -0.000          -0.000
  -3819509.803 8  -2670242.58245  24302617.470    24302616.7894   24302624.2164
        -0.000          -0.000
 -21419070.121 9 -16673349.72947  21838527.241    21838526.7034   21838531.5394
        -0.000          -0.000
   8157253.929 9   6335420.52446  23375692.895    23375692.9544   23375698.2714
        -0.000          -0.000
  15095961.238 9  11579545.51845  24253068.892    24253068.5204   24253076.0284
        -0.000          -0.000
   5528522.947 9   4311803.83647  22268865.424    22268864.7954   22268871.3604
        -0.000          -0.000
 97  3  3 17 10 59.9980000  0  8  3 19 27 18  2 31 29 16            -0.001323572
 -13838768.536 9 -10770787.55646  22679792.482    22679792.1374   22679797.1424
        -0.000          -0.000
 -14179314.555 9 -11032793.04249  20456255.993    20456255.6894   20456260.3464
        -0.000          -0.000
 -17727747.552 9 -13315488.09047  22590915.624    22590915.2154   22590920.3814
        -0.000          -0.000
 -14877007.332 9 -11583427.97049  19668495.108    19668494.7444   19668499.0684
        -0.000          -0.000
  -3933633.979 8  -2759170.46845  24280900.419    24280899.7924   24280907.1334
        -0.000          -0.000
 -21501703.707 9 -16737739.51047  21822802.528    21822801.9994   21822806.8584
        -0.000          -0.000
   8225739.019 9   6388785.46146  23388725.309    23388725.1834   23388730.5114
        -0.000          -0.000
   5597481.138 9   4365537.47447  22281987.847    22281987.2014   22281993.6424
        -0.000          -0.000
 97  3  3 17 11 29.9980000  0  8  3 19 27 18  2 31 29 16            -0.001338651
 -13858722.793 9 -10786336.32946  22675995.340    22675994.9464   22675999.9674
        -0.000          -0.000
 -14224672.905 9 -11068137.20749  20447624.607    20447624.3044   20447628.9324
        -0.000          -0.000
 -17815447.868 9 -13383825.97447  22574226.801    22574226.3784   22574231.5804
        -0.000          -0.000
 -14904506.508 9 -11604855.91149  19663262.185    19663261.8174   19663266.1414
        -0.000          -0.000
  -4047570.393 8  -2847952.01845  24259219.011    24259218.4234   24259225.6504
        -0.000          -0.000
 -21583894.396 9 -16801784.19647  21807162.198    21807161.6764   21807166.4524
        -0.000          -0.000
   8294449.821 9   6442326.30445  23401800.671    23401800.4004   23401805.6264
        -0.000          -0.000
   5666663.976 9   4419446.14347  22295152.930    22295152.2474   22295158.7564
        -0.000          -0.000
 97  3  3 17 11 59.9980000  0  8  3 19 27 18  2 31 29 16            -0.001353689
 -13878096.613 9 -10801432.81946  22672308.672    22672308.3184   22672313.2504
        -0.000          -0.000
 -14269871.345 9 -11103356.77149  20439023.641    20439023.3194   20439027.9344
        -0.000          -0.000
 -17903030.594 9 -13452072.22747  22557560.350    22557559.9264   22557565.1614
        -0.000          -0.000
 -14931502.101 9 -11625891.45249  19658125.076    19658124.7334   19658129.0604
        -0.000          -0.000
  -4161319.654 8  -2936587.76845  24237573.147    24237572.6084   24237579.9594
        -0.000          -0.000
 -21665641.070 9 -16865482.88647  21791606.314    21791605.8054   21791610.6074
        -0.000          -0.000
   8363409.579 9   6496061.11445  23414923.279    23414923.0174   23414928.3454
        -0.000          -0.000
   5736076.957 9   4473534.11647  22308361.814    22308361.1534   22308367.6834
        -0.000          -0.000
 97  3  3 17 12 29.9980000  0  8  3 19 27 18  2 31 29 16            -0.001368684
 -13896873.521 9 -10816064.17246  22668735.544    22668735.1614   22668740.1714
        -0.000          -0.000
 -14314907.295 9 -11138449.71649  20430453.582    20430453.2624   20430457.8934
        -0.000          -0.000
 -17990507.900 9 -13520236.33247  22540914.063    22540913.6204   22540918.8584
        -0.000          -0.000
 -14957983.118 9 -11646526.01749  19653085.920    19653085.5824   19653089.8764
        -0.000          -0.000
  -4274870.314 8  -3025068.71245  24215965.104    24215964.5474   24215971.8464
        -0.000          -0.000
 -21746931.814 9 -16928826.30547  21776137.149    21776136.6644   21776141.5014
        -0.000          -0.000
   8432645.534 9   6550011.15745  23428098.352    23428098.1154   23428103.6734
        -0.000          -0.000
   5805742.810 9   4527819.17147  22321618.851    22321618.1854   22321624.6404
        -0.000          -0.000
 97  3  3 17 12 59.9980000  0  8  3 19 27 18  2 31 29 16            -0.001383641
 -13915070.948 9 -10830243.97546  22665272.581    22665272.1984   22665277.2284
        -0.000          -0.000
 -14359751.837 9 -11173393.51549  20421919.900    20421919.6094   20421924.2764
        -0.000          -0.000
 -18077870.434 9 -13588311.01947  22524289.523    22524289.0794   22524294.3494
        -0.000          -0.000
 -14983946.596 9 -11666757.30549  19648145.334    19648144.9824   19648149.2404
        -0.000          -0.000
  -4388226.482 8  -3113398.13645  24194394.075    24194393.4804   24194400.9354
        -0.000          -0.000
 -21827750.402 9 -16991801.82047  21760757.862    21760757.3314   21760762.1394
        -0.000          -0.000
   8502164.409 9   6604181.60646  23441327.292    23441327.1574   23441332.8634
        -0.000          -0.000
   5875655.047 9   4582296.20847  22334922.645    22334922.0164   22334928.4894
        -0.000          -0.000
 97  3  3 17 13 29.9980000  0  8  3 19 27 18  2 31 29 16            -0.001398580
 -13932719.187 9 -10843995.85446  22661914.229    22661913.8344   22661918.8064
        -0.000          -0.000
 -14404405.348 9 -11208188.45549  20413422.598    20413422.3024   20413427.0104
        -0.000          -0.000
 -18165141.416 9 -13656314.35347  22507682.326    22507681.9164   22507687.2734
        -0.000          -0.000
 -15009403.974 9 -11686594.22749  19643300.976    19643300.6364   19643304.8744
        -0.000          -0.000
  -4501409.247 9  -3201592.45046  24172856.166    24172855.4514   24172862.9614
        -0.000          -0.000
 -21908114.778 9 -17054423.38947  21745465.006    21745464.5084   21745469.3104
        -0.000          -0.000
   8571935.011 9   6658548.19946  23454604.185    23454604.1254   23454609.9414
        -0.000          -0.000
   5945782.247 9   4636940.72547  22348267.382    22348266.7974   22348273.2894
        -0.000          -0.000
 97  3  3 17 13 59.9980000  0  8  3 19 27 18  2 31 29 16            -0.001413507
 -13949813.361 9 -10857315.98146  22658661.285    22658660.9254   22658665.8734
        -0.000          -0.000
 -14448844.027 9 -11242815.99149  20404966.195    20404965.9064   20404970.6424
        -0.000          -0.000
 -18252328.000 9 -13724251.91647  22491091.109    22491090.7324   22491096.1254
        -0.000          -0.000
 -15034341.364 9 -11706025.96449  19638555.576    19638555.2114   19638559.4324
        -0.000          -0.000
  -4614402.561 9  -3289639.15246  24151354.331    24151353.6064   24151361.0074
        -0.000          -0.000
 -21988008.601 9 -17116678.30247  21730261.750    21730261.2534   21730266.0254
        -0.000          -0.000
   8641957.621 9   6713111.19446  23467929.132    23467929.1214   23467934.8534
        -0.000          -0.000
   6016132.361 9   4691758.97247  22361654.596    22361654.0794   22361660.5204
        -0.000          -0.000
 97  3  3 17 14 29.9980000  0  8  3 19 27 18  2 31 29 16            -0.001428424
 -13966361.259 9 -10870210.44646  22655512.289    22655511.9354   22655516.9554
        -0.000          -0.000
 -14493045.829 9 -11277258.95349  20396554.844    20396554.5594   20396559.2874
        -0.000          -0.000
 -18339422.170 9 -13792117.47747  22474517.553    22474517.2254   22474522.5544
        -0.000          -0.000
 -15058752.554 9 -11725047.68149  19633910.223    19633909.8574   19633914.1424
        -0.000          -0.000
  -4727201.850 9  -3377534.62946  24129889.480    24129888.6464   24129896.0054
        -0.000          -0.000
 -22067406.124 9 -17178546.49647  21715152.948    21715152.4434   21715157.2054
        -0.000          -0.000
   8712215.758 9   6767857.71046  23481299.093    23481299.0244   23481304.5804
        -0.000          -0.000
   6086693.815 9   4746741.87747  22375082.112    22375081.5434   22375087.9024
        -0.000          -0.000
 97  3  3 17 14 59.9980000  0  8  3 19 27 18  2 31 29 16            -0.001443349
 -13982387.098 9 -10882698.12246  22652462.597    22652462.2974   22652467.3474
        -0.000          -0.000
 -14537026.704 9 -11311529.76849  20388185.529    20388185.2734   20388189.9994
        -0.000          -0.000
 -18426436.008 9 -13859920.44047  22457959.512    22457959.1084   22457964.3604
        -0.000          -0.000
 -15082650.180 9 -11743669.21749  19629362.641    19629362.2954   19629366.6314
        -0.000          -0.000
  -4839827.717 9  -3465294.98646  24108457.506    24108456.6034   24108463.9964
        -0.000          -0.000
 -22146309.161 9 -17240029.35747  21700138.148    21700137.6384   21700142.5014
        -0.000          -0.000
   8782680.981 9   6822765.58646  23494708.371    23494708.2124   23494713.6714
        -0.000          -0.000
   6157434.648 9   4801864.54747  22388543.644    22388543.0644   22388549.4364
        -0.000          -0.000
 97  3  3 17 15 29.9980000  0  8  3 19 27 18  2 31 29 16            -0.001458253
 -13997830.439 9 -10894731.88646  22649523.911    22649523.5214   22649528.5544
        -0.000          -0.000
 -14580775.307 9 -11345619.58549  20379860.464    20379860.2064   20379864.9124
        -0.000          -0.000
 -18513350.185 9 -13927645.74247  22441420.384    22441419.9284   22441425.1104
        -0.000          -0.000
 -15106002.230 9 -11761865.62549  19624918.851    19624918.5324   19624922.8754
        -0.000          -0.000
  -4952246.149 9  -3552893.70846  24087064.732    24087063.9834   24087071.4854
        -0.000          -0.000
 -22224697.991 9 -17301111.54947  21685221.189    21685220.7544   21685225.6034
        -0.000          -0.000
   8853389.747 9   6877863.24146  23508163.905    23508163.7374   23508169.1274
        -0.000          -0.000
   6228390.586 9   4857154.86247  22402046.227    22402045.6164   22402051.9654
        -0.000          -0.000
 97  3  3 17 15 59.9980000  0  8  3 19 27 18  2 31 29 16            -0.001473138
 -14012691.776 9 -10906312.14446  22646695.854    22646695.4994   22646700.5524
        -0.000          -0.000
 -14624299.377 9 -11379534.44149  20371578.133    20371577.8704   20371582.5524
        -0.000          -0.000
 -18600172.789 9 -13995299.70747  22424898.581    22424898.1964   22424903.1834
        -0.000          -0.000
 -15128825.649 9 -11779650.11749  19620575.709    19620575.3684   19620579.7064
        -0.000          -0.000
  -5064474.138 9  -3640344.05846  24065708.337    24065707.7284   24065715.1534
        -0.000          -0.000
 -22302585.461 9 -17361803.06847  21670399.664    21670399.2254   21670404.1164
        -0.000          -0.000
   8924342.558 9   6933151.07346  23521665.710    23521665.5694   23521671.0334
        -0.000          -0.000
   6299577.207 9   4912624.91647  22415592.669    22415592.0784   22415598.4074
        -0.000          -0.000
 97  3  3 17 16 29.9980000  0  9  3 19 10 27 18  2 31 29 16         -0.001487926
 -14026974.091 9 -10917441.22546  22643977.989    22643977.6614   22643982.6904
        -0.000          -0.000
 -14667618.259 9 -11413289.40949  20363334.858    20363334.5774   20363339.2654
        -0.000          -0.000
  -4534048.41118  -2989419.35055  24276823.538    24276822.6955   24276828.5515
        -0.000          -0.000
 -18686914.742 9 -14062890.82847  22408392.257    22408391.8534   22408396.6314
        -0.000          -0.000
 -15151135.498 9 -11797034.41949  19616330.312    19616329.9874   19616334.3174
        -0.000          -0.000
  -5176529.607 9  -3727659.98246  24044385.035    24044384.3394   24044391.6504
        -0.000          -0.000
 -22379989.585 9 -17422117.94647  21655670.099    21655669.6424   21655674.5894
        -0.000          -0.000
   8995521.800 9   6988615.32946  23535210.819    23535210.6824   23535216.2194
        -0.000          -0.000
   6370989.771 9   4968271.02147  22429182.099    22429181.4314   22429187.7904
        -0.000          -0.000
 97  3  3 17 16 59.9980000  0  9  3 19 10 27 18  2 31 29 16         -0.001502773
 -14040654.542 9 -10928101.31546  22641374.713    22641374.3934   22641379.4034
        -0.000          -0.000
 -14710738.978 9 -11446889.96649  20355129.204    20355128.9574   20355133.6564
        -0.000          -0.000
  -4622122.736 8  -3058048.68645  24260063.666    24260062.9084   24260068.5734
        -0.000          -0.000
 -18773560.652 9 -14130407.11047  22391904.109    22391903.6884   22391908.4674
        -0.000          -0.000
 -15172915.061 9 -11814005.51149  19612185.844    19612185.5064   19612189.8024
        -0.000          -0.000
  -5288389.201 9  -3814823.24146  24023098.844    24023098.1254   24023105.3324
        -0.000          -0.000
 -22456912.709 9 -17482058.03047  21641032.130    21641031.6654   21641036.5924
        -0.000          -0.000
   9066956.228 8   7044278.41846  23548804.244    23548804.0634   23548809.8044
        -0.000          -0.000
   6442652.782 9   5024112.29147  22442819.104    22442818.4804   22442824.8894
        -0.000          -0.000
 97  3  3 17 17 29.9980000  0  9  3 19 10 27 18  2 31 29 16         -0.001517593
 -14053735.783 9 -10938294.49246  22638885.473    22638885.0964   22638890.0674
        -0.000          -0.000
 -14753666.033 9 -11480339.61949  20346960.494    20346960.2334   20346964.9304
        -0.000          -0.000
  -4709763.399 8  -3126340.11545  24243386.355    24243385.4834   24243390.8824
        -0.000          -0.000
 -18860104.781 9 -14197844.06247  22375435.190    22375434.7994   22375439.7484
        -0.000          -0.000
 -15194164.530 9 -11830563.54549  19608142.194    19608141.8664   19608146.1624
        -0.000          -0.000
  -5400041.688 9  -3901825.11846  24001851.999    24001851.3144   24001858.5154
        -0.000          -0.000
 -22533362.737 9 -17541629.46547  21626484.218    21626483.7174   21626488.5584
        -0.000          -0.000
   9138652.761 9   7100145.76846  23562447.554    23562447.4674   23562453.4114
        -0.000          -0.000
   6514564.334 9   5080147.22347  22456503.473    22456502.8174   22456509.2834
        -0.000          -0.000
 97  3  3 17 17 59.9980000  0  9  3 19 10 27 18  2 31 29 16         -0.001532396
 -14066246.504 9 -10948043.11646  22636504.740    22636504.3744   22636509.3334
        -0.000          -0.000
 -14796408.240 9 -11513645.23849  20338826.914    20338826.6534   20338831.3314
        -0.000          -0.000
  -4796974.032 8  -3194296.44145  24226790.636    24226789.6834   24226795.3274
        -0.000          -0.000
 -18946561.076 9 -14265212.56647  22358982.989    22358982.5894   22358987.7474
        -0.000          -0.000
 -15214898.032 9 -11846719.52349  19604196.737    19604196.3874   19604200.7024
        -0.000          -0.000
  -5511496.927 9  -3988673.30946  23980642.805    23980642.0784   23980649.3224
        -0.000          -0.000
 -22609345.980 9 -17600837.17947  21612025.055    21612024.5774   21612029.3764
        -0.000          -0.000
   9210586.882 9   7156198.24546  23576136.228    23576136.1004   23576142.1864
        -0.000          -0.000
   6586690.820 9   5136349.62347  22470228.722    22470228.0854   22470234.5384
        -0.000          -0.000
 97  3  3 17 18 29.9980000  0  9  3 19 10 27 18  2 31 29 16         -0.001547177
 -14078181.305 9 -10957342.95546  22634233.656    22634233.2574   22634238.1644
        -0.000          -0.000
 -14838963.124 9 -11546804.88549  20330728.989    20330728.7494   20330733.3944
        -0.000          -0.000
  -4883739.164 8  -3261905.62945  24210279.674    24210278.7934   24210284.4104
        -0.000          -0.000
 -19032923.216 9 -14332507.70547  22342548.729    22342548.3564   22342553.6384
        -0.000          -0.000
 -15235097.619 9 -11862459.46849  19600352.853    19600352.5084   19600356.8394
        -0.000          -0.000
  -5622735.677 9  -4075352.83145  23959474.782    23959474.0524   23959481.1954
        -0.000          -0.000
 -22684854.799 9 -17659675.20247  21597656.214    21597655.6944   21597660.4894
        -0.000          -0.000
   9282756.929 9   7212434.53146  23589869.797    23589869.7324   23589875.8424
        -0.000          -0.000
   6659003.804 9   5192697.37347  22483989.400    22483988.8184   22483995.1954
        -0.000          -0.000
 97  3  3 17 18 59.9980000  0  9  3 19 10 27 18  2 31 29 16         -0.001561931
 -14089534.304 9 -10966189.46746  22632073.170    22632072.8524   22632077.7404
        -0.000          -0.000
 -14881317.602 9 -11579808.37549  20322669.201    20322668.9594   20322673.6094
        -0.000          -0.000
  -4970036.391 8  -3329150.22645  24193857.585    24193856.7224   24193862.6204
        -0.000          -0.000
 -19119186.262 9 -14399725.65147  22326133.317    22326132.9904   22326138.3174
        -0.000          -0.000
 -15254734.011 9 -11877760.56149  19596616.110    19596615.8054   19596620.1754
        -0.000          -0.000
  -5733739.259 9  -4161849.09545  23938351.364    23938350.6344   23938357.7454
        -0.000          -0.000
 -22759876.109 9 -17718133.35447  21583380.084    21583379.6274   21583384.4334
        -0.000          -0.000
   9355176.649 9   7268865.42046  23603650.986    23603651.0124   23603656.8934
        -0.000          -0.000
   6731511.586 9   5249196.91147  22497787.225    22497786.6264   22497792.9944
        -0.000          -0.000
 97  3  3 17 19 29.9980000  0  9  3 19 10 27 18  2 31 29 16         -0.001576683
 -14100326.122 9 -10974598.67546  22630019.550    22630019.2534   22630024.1254
        -0.000          -0.000
 -14923485.091 9 -11612666.16049  20314644.993    20314644.7544   20314649.3694
        -0.000          -0.000
  -5055900.301 8  -3396057.16645  24177518.418    24177517.5134   24177523.2574
        -0.000          -0.000
 -19205388.652 9 -14466896.33047  22309729.578    22309729.2264   22309734.4374
        -0.000          -0.000
 -15273836.418 9 -11892645.56049  19592981.039    19592980.7324   19592985.1224
        -0.000          -0.000
  -5844548.948 9  -4248194.28645  23917265.026    23917264.3324   23917271.2254
        -0.000          -0.000
 -22834429.886 9 -17776227.19047  21569193.017    21569192.5294   21569197.3504
        -0.000          -0.000
   9427798.170 9   7325453.53346  23617470.561    23617470.5854   23617476.3574
        -0.000          -0.000
   6804184.026 9   5305824.70847  22511616.328    22511615.6724   22511622.2324
        -0.000          -0.000
 97  3  3 17 19 59.9980000  0  9  3 19 10 27 18  2 31 29 16         -0.001591417
 -14110538.545 9 -10982556.40846  22628076.283    22628075.9194   22628080.8524
        -0.000          -0.000
 -14965437.307 9 -11645356.20349  20306661.738    20306661.5214   20306666.1344
        -0.000          -0.000
  -5141297.527 8  -3462600.44745  24161268.019    24161266.9624   24161272.8884
        -0.000          -0.000
 -19291501.433 9 -14533997.17847  22293342.934    22293342.5704   22293347.6354
        -0.000          -0.000
 -15292380.350 9 -11907095.38649  19589452.244    19589451.9454   19589456.3274
        -0.000          -0.000
  -5955136.781 8  -4334366.57145  23896220.777    23896220.1214   23896226.9774
        -0.000          -0.000
 -22908485.668 9 -17833932.98647  21555100.661    21555100.1354   21555104.9794
        -0.000          -0.000
   9500638.356 9   7382212.01046  23631331.720    23631331.7094   23631337.5634
        -0.000          -0.000
   6877044.234 9   5362598.82747  22525481.086    22525480.4644   22525487.2104
        -0.000          -0.000
 97  3  3 17 20 29.9980000  0  9  3 19 10 27 18  2 31 29 16         -0.001606114
 -14120155.276 9 -10990049.96146  22626246.302    22626245.9364   22626250.8564
        -0.000          -0.000
 -15007161.104 9 -11677868.25049  20298722.019    20298721.7774   20298726.3554
        -0.000          -0.000
  -5226190.718 8  -3528751.00645  24145113.527    24145112.5764   24145118.2784
        -0.000          -0.000
 -19377505.394 9 -14601013.22347  22276977.053    22276976.6404   22276981.5314
        -0.000          -0.000
 -15310340.721 9 -11921090.48949  19586034.570    19586034.2704   19586038.6174
        -0.000          -0.000
  -6065475.892 8  -4420345.06945  23875223.831    23875223.1974   23875230.0634
        -0.000          -0.000
 -22982013.676 9 -17891227.52747  21541108.751    21541108.2214   21541113.0634
        -0.000          -0.000
   9573724.946 9   7439162.48846  23645239.713    23645239.6714   23645245.4364
        -0.000          -0.000
   6950131.327 9   5419549.77047  22539389.119    22539388.5164   22539395.2904
        -0.000          -0.000
 97  3  3 17 20 59.9980000  0  9  3 19 10 27 18  2 31 29 16         -0.001620792
 -14129223.913 9 -10997116.44046  22624520.577    22624520.2404   22624525.1334
        -0.000          -0.000
 -15048699.126 9 -11710235.54449  20290817.574    20290817.3594   20290821.9594
        -0.000          -0.000
  -5310608.423 9  -3594531.03445  24129049.409    24129048.4074   24129054.0934
        -0.000          -0.000
 -19463440.809 9 -14667975.88147  22260624.173    22260623.7414   22260628.4544
        -0.000          -0.000
 -15327761.129 9 -11934664.83849  19582719.608    19582719.3054   19582723.6424
        -0.000          -0.000
  -6175593.703 9  -4506151.08245  23854269.060    23854268.3244   23854275.4074
        -0.000          -0.000
 -23055035.688 9 -17948127.77447  21527213.039    21527212.5514   21527217.4144
        -0.000          -0.000
   9647027.323 8   7496281.10745  23659188.644    23659188.6644   23659194.3844
        -0.000          -0.000
   7023419.976 9   5476657.76347  22553335.554    22553334.9314   22553341.6824
        -0.000          -0.000
 97  3  3 17 21 29.9980000  0  9  3 19 10 27 18  2 31 29 16         -0.001635443
 -14137739.654 9 -11003752.08946  22622900.101    22622899.7834   22622904.6224
        -0.000          -0.000
 -15090037.946 9 -11742447.61349  20282951.041    20282950.8354   20282955.4334
        -0.000          -0.000
  -5394544.965 9  -3659936.12745  24113076.839    24113075.7354   24113081.4214
        -0.000          -0.000
 -19549292.257 9 -14734873.10047  22244287.115    22244286.6914   22244291.3554
        -0.000          -0.000
 -15344651.704 9 -11947826.33549  19579505.448    19579505.1214   19579509.4624
        -0.000          -0.000
  -6285480.031 9  -4591776.80146  23833358.539    23833357.7894   23833364.7164
        -0.000          -0.000
 -23127532.580 9 -18004618.85247  21513417.308    21513416.8414   21513421.6874
        -0.000          -0.000
   9720560.703 8   7553579.72845  23673181.636    23673181.6084   23673187.3244
        -0.000          -0.000
   7096903.326 9   5533917.45347  22567319.052    22567318.4104   22567325.1534
        -0.000          -0.000
 97  3  3 17 21 59.9980000  0  9  3 19 10 27 18  2 31 29 16         -0.001650064
 -14145718.424 9 -11009969.33146  22621381.862    22621381.4634   22621386.3594
        -0.000          -0.000
 -15131186.194 9 -11774511.18949  20275120.842    20275120.6164   20275125.2084
        -0.000          -0.000
  -5477993.437 9  -3724960.89945  24097196.968    24097195.9294   24097201.6244
        -0.000          -0.000
 -19635059.977 9 -14801705.06747  22227965.938    22227965.5904   22227970.2504
        -0.000          -0.000
 -15361014.332 9 -11960576.44549  19576391.739    19576391.4164   19576395.7784
        -0.000          -0.000
  -6395135.744 9  -4677222.77646  23812491.791    23812491.0564   23812497.9894
        -0.000          -0.000
 -23199502.957 9 -18060699.65047  21499721.894    21499721.3824   21499726.1464
        -0.000          -0.000
   9794333.329 8   7611064.77545  23687220.255    23687220.1694   23687225.8694
        -0.000          -0.000
   7170553.203 9   5591306.90847  22581334.211    22581333.5784   22581340.2914
        -0.000          -0.000
 97  3  3 17 22 29.9980000  0  9  3 19 10 27 18  2 31 29 16         -0.001664661
 -14153140.785 9 -11015752.98246  22619969.434    22619969.1414   22619973.9304
        -0.000          -0.000
 -15172133.675 9 -11806418.31649  20267328.783    20267328.5604   20267333.1594
        -0.000          -0.000
  -5560960.571 9  -3789610.60445  24081408.698    24081407.7784   24081413.3234
        -0.000          -0.000
 -19720747.933 9 -14868474.88047  22211660.076    22211659.7084   22211664.4744
        -0.000          -0.000
 -15376835.545 9 -11972904.67749  19573381.110    19573380.7804   19573385.1714
        -0.000          -0.000
  -6504570.712 9  -4762496.70746  23791667.040    23791666.2424   23791673.3354
        -0.000          -0.000
 -23270934.626 9 -18116360.67747  21486128.900    21486128.3834   21486133.1534
        -0.000          -0.000
   9868344.699 8   7668735.85745  23701304.148    23701304.0294   23701309.7194
        -0.000          -0.000
   7244361.689 9   5648819.96447  22595379.568    22595378.9244   22595385.6264
        -0.000          -0.000
 97  3  3 17 22 59.9980000  0  9  3 19 10 27 18  2 31 29 16         -0.001679240
 -14159991.414 9 -11021091.14846  22618665.859    22618665.5144   22618670.3404
        -0.000          -0.000
 -15212863.404 9 -11838155.76749  20259578.178    20259577.9464   20259582.5614
        -0.000          -0.000
  -5643460.503 9  -3853896.28646  24065709.490    24065708.4674   24065714.0464
        -0.000          -0.000
 -19806343.429 9 -14935172.64447  22195371.771    22195371.3644   22195376.3004
        -0.000          -0.000
 -15392120.547 9 -11984815.08249  19570472.466    19570472.1344   19570476.5154
        -0.000          -0.000
  -6613806.281 9  -4847615.31246  23770880.177    23770879.4134   23770886.5064
        -0.000          -0.000
 -23341835.970 9 -18171608.45947  21472636.768    21472636.2834   21472641.1044
        -0.000          -0.000
   9942586.557 9   7726586.56245  23715431.954    23715431.8484   23715437.6144
        -0.000          -0.000
   7318307.596 9   5706440.09647  22609450.910    22609450.3034   22609457.0834
        -0.000          -0.000
 97  3  3 17 23 29.9980000  0  9  3 19 10 27 18  2 31 29 16         -0.001693807
 -14166258.146 9 -11025974.31146  22617473.347    22617473.0894   22617477.8684
        -0.000          -0.000
 -15253365.459 9 -11869715.81449  20251870.879    20251870.6424   20251875.3014
        -0.000          -0.000
  -5725495.623 9  -3917819.74946  24050098.607    24050097.6844   24050103.2214
        -0.000          -0.000
 -19891827.488 9 -15001783.57547  22179104.579    22179104.2064   22179109.2884
        -0.000          -0.000
 -15406858.763 9 -11996299.41349  19567667.827    19567667.5164   19567671.8814
        -0.000          -0.000
  -6722865.893 9  -4932596.84446  23750126.791    23750126.0304   23750133.0614
        -0.000          -0.000
 -23412209.129 9 -18226444.67047  21459245.158    21459244.6744   21459249.5434
        -0.000          -0.000
  10017049.574 8   7784609.57845  23729601.874    23729601.7494   23729607.6604
        -0.000          -0.000
   7392379.662 9   5764158.52647  22623546.361    22623545.7954   22623552.6624
        -0.000          -0.000
 97  3  3 17 23 59.9980000  0  9  3 19 10 27 18  2 31 29 16         -0.001708356
 -14171918.379 9 -11030384.88346  22616396.209    22616395.9754   22616400.7904
        -0.000          -0.000
 -15293634.957 9 -11901094.64849  20244207.838    20244207.6074   20244212.2564
        -0.000          -0.000
  -5807045.353 9  -3981364.99646  24034580.166    24034579.2174   24034585.0984
        -0.000          -0.000
 -19977172.854 9 -15068286.42947  22162863.791    22162863.4294   22162868.5714
        -0.000          -0.000
 -15421032.327 9 -12007343.75049  19564970.701    19564970.3934   19564974.7684
        -0.000          -0.000
  -6831743.116 9  -5017436.21446  23729408.117    23729407.3734   23729414.4514
        -0.000          -0.000
 -23482048.254 9 -18280864.74247  21445955.194    21445954.7044   21445959.6154
        -0.000          -0.000
  10091723.140 9   7842796.62745  23743811.722    23743811.8514   23743817.7284
        -0.000          -0.000
   7466589.541 9   5821984.33947  22637668.203    22637667.5994   22637674.4314
        -0.000          -0.000
 97  3  3 17 24 29.9980000  0  9  3 19 10 27 18  2 31 29 16         -0.001722889
 -14176967.594 9 -11034319.32246  22615435.351    22615435.1204   22615440.0564
        -0.000          -0.000
 -15333688.179 9 -11932304.95049  20236585.998    20236585.7334   20236590.3854
        -0.000          -0.000
  -5888122.839 9  -4044542.28846  24019151.535    24019150.7884   24019156.6834
        -0.000          -0.000
 -20062376.883 9 -15134679.14447  22146650.067    22146649.6944   22146654.7634
        -0.000          -0.000
 -15434654.750 9 -12017958.63449  19562378.485    19562378.1774   19562382.5194
        -0.000          -0.000
  -6940439.831 9  -5102134.90846  23708723.657    23708723.0334   23708730.2634
        -0.000          -0.000
 -23551368.060 9 -18334880.15747  21432764.147    21432763.6164   21432768.5044
        -0.000          -0.000
  10166585.954 9   7901131.19545  23758057.825    23758057.8684   23758063.8054
        -0.000          -0.000
   7540945.339 9   5879923.87047  22651817.749    22651817.1334   22651823.9244
        -0.000          -0.000
 97  3  3 17 24 59.9980000  0  9  3 19 10 27 18  2 31 29 16         -0.001737398
 -14181418.356 9 -11037787.45246  22614588.392    22614588.1764   22614593.1104
        -0.000          -0.000
 -15373540.395 9 -11963358.63249  20229002.395    20229002.1334   20229006.7864
        -0.000          -0.000
  -5968724.015 9  -4107348.40545  24003813.653    24003812.9374   24003818.8014
        -0.000          -0.000
 -20147432.013 9 -15200955.86547  22130464.691    22130464.2984   22130469.3214
        -0.000          -0.000
 -15447732.580 9 -12028149.15749  19559889.876    19559889.5604   19559893.9094
        -0.000          -0.000
  -7048930.836 9  -5186673.34446  23688078.534    23688077.9254   23688085.0464
        -0.000          -0.000
 -23620163.091 9 -18388486.66147  21419672.907    21419672.3994   21419677.2484
        -0.000          -0.000
  10241648.939 9   7959621.73945  23772342.055    23772342.0504   23772348.0144
        -0.000          -0.000
   7615464.384 9   5937990.59946  22665998.255    22665997.6674   22666004.3654
        -0.000          -0.000
 97  3  3 17 25 29.9980000  0  9  3 19 10 27 18  2 31 29 16         -0.001751885
 -14185292.858 9 -11040806.55546  22613851.053    22613850.8874   22613855.7864
        -0.000          -0.000
 -15413220.898 9 -11994278.50749  20221451.451    20221451.1614   20221455.8124
        -0.000          -0.000
  -6048844.616 9  -4169780.03545  23988567.130    23988566.4814   23988572.3034
        -0.000          -0.000
 -20232351.160 9 -15267126.61447  22114305.117    22114304.7354   22114309.7414
        -0.000          -0.000
 -15460269.859 9 -12037918.47849  19557504.130    19557503.8024   19557508.1744
        -0.000          -0.000
  -7157203.235 9  -5271041.45046  23667475.109    23667474.4494   23667481.4334
        -0.000          -0.000
 -23688436.677 9 -18441686.83947  21406680.947    21406680.4534   21406685.2784
        -0.000          -0.000
  10316905.562 8   8018263.16645  23786663.168    23786663.0564   23786669.0254
        -0.000          -0.000
   7690143.257 9   5996181.90646  22680209.290    22680208.6484   22680215.2894
        -0.000          -0.000
 97  3  3 17 25 59.9980000  0  9  3 19 10 27 18  2 31 29 16         -0.001766337
 -14188585.402 9 -11043372.17946  22613224.571    22613224.3804   22613229.2114
        -0.000          -0.000
 -15452731.708 9 -12025066.15349  20213932.783    20213932.5264   20213937.1624
        -0.000          -0.000
  -6128479.064 9  -4231832.85145  23973413.278    23973412.5724   23973418.0784
        -0.000          -0.000
 -20317148.970 9 -15333202.80647  22098168.661    22098168.2764   22098173.2194
        -0.000          -0.000
 -15472274.027 9 -12047272.38649  19555219.803    19555219.5034   19555223.8784
        -0.000          -0.000
  -7265225.712 9  -5355214.78646  23646919.107    23646918.3194   23646925.3134
        -0.000          -0.000
 -23756186.110 9 -18494478.58447  21393788.595    21393788.1294   21393792.9194
        -0.000          -0.000
  10392372.846 8   8077068.74245  23801024.134    23801024.1544   23801030.1124
        -0.000          -0.000
   7764992.688 9   6054506.06746  22694452.587    22694451.9584   22694458.7404
        -0.000          -0.000
 97  3  3 17 26 29.9980000  0  9  3 19 10 27 18  2 31 29 16         -0.001780751
 -14191309.129 9 -11045494.56446  22612706.288    22612706.0494   22612710.8674
        -0.000          -0.000
 -15492057.037 9 -12055709.26449  20206449.456    20206449.1764   20206453.8124
        -0.000          -0.000
  -6207618.626 9  -4293500.03745  23958353.699    23958352.8584   23958358.1464
        -0.000          -0.000
 -20401842.442 9 -15399197.71347  22082051.972    22082051.6444   22082056.4964
        -0.000          -0.000
 -15483737.194 9 -12056204.73749  19553038.435    19553038.1234   19553042.5244
        -0.000          -0.000
  -7372974.929 9  -5439175.17946  23626414.920    23626414.2844   23626421.3894
        -0.000          -0.000
 -23823397.784 9 -18546851.29747  21380998.573    21380998.0934   21381002.8754
        -0.000          -0.000
  10468071.864 8   8136054.93545  23815429.128    23815429.1314   23815435.1994
        -0.000          -0.000
   7840025.904 9   6112973.43146  22708730.879    22708730.3134   22708737.2194
        -0.000          -0.000
 97  3  3 17 26 59.9980000  0  9  3 19 10 27 18  2 31 29 16         -0.001795131
 -14193480.642 9 -11047186.66246  22612293.114    22612292.8764   22612297.6534
        -0.000          -0.000
 -15531190.204 9 -12086202.64549  20199002.695    20199002.4324   20199007.0404
        -0.000          -0.000
  -6286263.000 8  -4354781.36745  23943388.188    23943387.3394   23943392.4824
        -0.000          -0.000
 -20486450.905 9 -15465126.37247  22065951.544    22065951.2104   22065955.9194
        -0.000          -0.000
 -15494664.350 9 -12064719.42049  19550959.035    19550958.7434   19550963.1644
        -0.000          -0.000
  -7480466.594 9  -5522934.90446  23605959.977    23605959.3644   23605966.4144
        -0.000          -0.000
 -23890071.993 9 -18598805.20847  21368310.849    21368310.3474   21368315.1304
        -0.000          -0.000
  10544006.303 8   8195224.51345  23829878.801    23829878.9684   23829885.0984
        -0.000          -0.000
   7915228.013 9   6171572.41646  22723041.540    22723040.8764   22723047.7724
        -0.000          -0.000
 97  3  3 17 27 29.9980000  0  9  3 19 10 27 18  2 31 29 16         -0.001809480
 -14195082.395 9 -11048434.78246  22611988.303    22611988.0474   22611992.8464
        -0.000          -0.000
 -15570114.360 9 -12116533.15749  20191595.684    20191595.4294   20191600.0144
        -0.000          -0.000
  -6364407.546 8  -4415673.20245  23928517.777    23928516.8324   23928522.0304
        -0.000          -0.000
 -20570978.816 9 -15530992.25747  22049866.316    22049865.9964   22049870.6864
        -0.000          -0.000
 -15505054.721 9 -12072815.82149  19548981.821    19548981.5324   19548985.9424
        -0.000          -0.000
  -7587714.212 9  -5606504.43146  23585551.450    23585550.7334   23585557.8234
        -0.000          -0.000
 -23956214.078 9 -18650344.47247  21355724.362    21355723.8604   21355728.6254
        -0.000          -0.000
  10620170.796 9   8254573.34945  23844372.608    23844372.6444   23844378.8964
        -0.000          -0.000
   7990581.979 9   6230289.75746  22737381.043    22737380.3984   22737387.1384
        -0.000          -0.000
 97  3  3 17 27 59.9980000  0  9  3 19 10 27 18  2 31 29 16         -0.001823789
 -14196099.641 9 -11049227.43346  22611794.688    22611794.4104   22611799.2754
        -0.000          -0.000
 -15608804.469 9 -12146681.29349  20184233.195    20184232.9564   20184237.5174
        -0.000          -0.000
  -6442040.469 8  -4476166.41245  23913744.828    23913743.8704   23913749.0184
        -0.000          -0.000
 -20655419.626 9 -15596790.27147  22033797.669    22033797.3394   22033802.1094
        -0.000          -0.000
 -15514899.228 9 -12080486.87249  19547108.508    19547108.2294   19547112.6224
        -0.000          -0.000
  -7694713.953 9  -5689880.83446  23565189.892    23565189.2194   23565196.3924
        -0.000          -0.000
 -24021808.231 9 -18701456.78047  21343242.167    21343241.6714   21343246.4554
        -0.000          -0.000
  10696580.447 9   8314113.23046  23858913.124    23858912.9984   23858919.3814
        -0.000          -0.000
   8066096.634 9   6289132.30546  22751751.065    22751750.4114   22751757.1354
        -0.000          -0.000
 97  3  3 17 28 29.9980000  0  9  3 19 10 27 18  2 31 29 16         -0.001838078
 -14196547.794 9 -11049576.64346  22611709.477    22611709.2294   22611714.0514
        -0.000          -0.000
 -15647271.304 9 -12176655.45349  20176913.255    20176913.0044   20176917.5714
        -0.000          -0.000
  -6519176.100 9  -4536272.10145  23899066.454    23899065.5114   23899070.7374
        -0.000          -0.000
 -20739782.389 9 -15662527.45947  22017743.925    22017743.5834   22017748.4664
        -0.000          -0.000
 -15524197.987 9 -12087732.66349  19545339.077    19545338.7644   19545343.1274
        -0.000          -0.000
  -7801509.078 9  -5773097.80646  23544867.394    23544866.7884   23544873.9764
        -0.000          -0.000
 -24086868.126 9 -18752152.77847  21330861.664    21330861.1724   21330865.9454
        -0.000          -0.000
  10773206.787 9   8373821.95746  23873494.779    23873494.6934   23873500.8524
        -0.000          -0.000
   8141753.465 9   6348085.61746  22766147.956    22766147.3244   22766154.1934
        -0.000          -0.000
 97  3  3 17 28 59.9980000  0  9  3 19 10 27 18  2 31 29 16         -0.001852339
 -14196399.291 9 -11049460.92046  22611737.782    22611737.4904   22611742.3484
        -0.000          -0.000
 -15685513.956 9 -12206454.92349  20169635.930    20169635.6824   20169640.2464
        -0.000          -0.000
  -6595802.661 8  -4595981.09345  23884484.901    23884483.9764   23884489.0974
        -0.000          -0.000
 -20824047.610 9 -15728188.65447  22001708.849    22001708.4844   22001713.3974
        -0.000          -0.000
 -15532926.597 9 -12094534.18549  19543678.095    19543677.7834   19543682.1284
        -0.000          -0.000
  -7908097.853 9  -5856153.93346  23524584.351    23524583.6404   23524590.8234
        -0.000          -0.000
 -24151381.739 9 -18802423.10847  21318585.208    21318584.6814   21318589.4544
        -0.000          -0.000
  10850060.891 9   8433708.15046  23888119.715    23888119.7084   23888125.8244
        -0.000          -0.000
   8217549.276 9   6407147.20746  22780571.397    22780570.7884   22780577.7734
        -0.000          -0.000
 97  3  3 17 29 29.9980000  0  9  3 19 10 27 18  2 31 29 16         -0.001866579
 -14195662.123 9 -11048886.51646  22611878.042    22611877.7234   22611882.5954
        -0.000          -0.000
 -15723546.989 9 -12236091.05049  20162398.515    20162398.2524   20162402.8354
        -0.000          -0.000
  -6671921.817 8  -4655294.77845  23869999.826    23869998.7654   23870003.8524
        -0.000          -0.000
 -20908228.503 9 -15793784.14247  21985689.790    21985689.3944   21985694.2794
        -0.000          -0.000
 -15541093.128 9 -12100897.72749  19542124.067    19542123.7594   19542128.1244
        -0.000          -0.000
  -8014476.267 9  -5939046.17546  23504341.112    23504340.4844   23504347.4344
        -0.000          -0.000
 -24215352.601 9 -18852270.50647  21306411.906    21306411.4184   21306416.2084
        -0.000          -0.000
  10927113.945 9   8493749.35246  23902782.621    23902782.5784   23902788.6654
        -0.000          -0.000
   8293463.235 9   6466300.89546  22795017.454    22795016.8684   22795023.7584
        -0.000          -0.000
 97  3  3 17 29 59.9980000  0  9  3 19 10 27 18  2 31 29 16         -0.001880810
 -14194361.049 9 -11047872.70146  22612125.596    22612125.2514   22612130.1074
        -0.000          -0.000
 -15761374.602 9 -12265567.11449  20155200.113    20155199.8464   20155204.4704
        -0.000          -0.000
  -6747546.060 8  -4714222.76245  23855608.984    23855607.6874   23855612.8184
        -0.000          -0.000
 -20992329.312 9 -15859317.21647  21969685.895    21969685.5344   21969690.4414
        -0.000          -0.000
 -15548689.500 9 -12106816.99349  19540678.521    19540678.2104   19540682.5854
        -0.000          -0.000
  -8120643.717 9  -6021774.06246  23484138.202    23484137.5904   23484144.2804
        -0.000          -0.000
 -24278770.744 9 -18901687.22647  21294343.871    21294343.3434   21294348.0534
        -0.000          -0.000
  11004348.656 9   8553932.12546  23917480.067    23917480.0734   23917486.0014
        -0.000          -0.000
   8369490.647 9   6525542.99246  22809485.123    22809484.5434   22809491.2364
        -0.000          -0.000
 97  3  3 17 30 29.9980000  0  9  3 19 10 27 18  2 31 29 16         -0.001895035
 -14192490.058 9 -11046414.79246  22612481.545    22612481.2554   22612486.0884
        -0.000          -0.000
 -15798987.906 9 -12294876.18249  20148042.538    20148042.2814   20148046.9424
        -0.000          -0.000
  -6822676.696 8  -4772766.13145  23841312.040    23841310.5254   23841315.8304
        -0.000          -0.000
 -21076346.304 9 -15924784.99047  21953697.920    21953697.6214   21953702.5584
        -0.000          -0.000
 -15555701.436 9 -12112280.85649  19539344.211    19539343.9144   19539348.3124
        -0.000          -0.000
  -8226582.349 8  -6104323.62146  23463978.680    23463978.0174   23463984.9574
        -0.000          -0.000
 -24341620.092 9 -18950660.72347  21282384.021    21282383.4924   21282388.1924
        -0.000          -0.000
  11081761.590 8   8614253.71545  23932211.320    23932211.3844   23932217.3084
        -0.000          -0.000
   8445637.484 9   6584878.12046  22823975.433    22823974.7914   22823981.5994
        -0.000          -0.000
 97  3  3 17 30 59.9980000  0  9  3 19 10 27 18  2 31 29 16         -0.001909257
 -14190064.271 9 -11044524.57846  22612943.094    22612942.8554   22612947.7094
        -0.000          -0.000
 -15836404.341 9 -12324031.84749  20140922.401    20140922.1504   20140926.8114
        -0.000          -0.000
  -6897327.640 8  -4830935.69245  23827106.383    23827105.1674   23827109.9384
        -0.000          -0.000
 -21160294.970 9 -15990199.51447  21937723.103    21937722.7514   21937727.7044
        -0.000          -0.000
 -15562148.251 9 -12117304.36249  19538117.452    19538117.1534   19538121.5404
        -0.000          -0.000
  -8332273.817 9  -6186680.53846  23443865.998    23443865.3904   23443872.5974
        -0.000          -0.000
 -24403900.627 9 -18999190.99347  21270532.286    21270531.8274   21270536.5414
        -0.000          -0.000
  11159346.685 8   8674709.51245  23946975.250    23946975.3844   23946981.3344
        -0.000          -0.000
   8521887.779 9   6644293.86546  22838485.332    22838484.7564   22838491.6294
        -0.000          -0.000
 97  3  3 17 31 29.9980000  0  9  3 19 10 27 18  2 31 29 16         -0.001923469
 -14187075.401 9 -11042195.59346  22613511.840    22613511.5724   22613516.4904
        -0.000          -0.000
 -15873602.679 9 -12353017.56549  20133843.758    20133843.5204   20133848.1904
        -0.000          -0.000
  -6971498.030 8  -4888730.77245  23812992.312    23812991.1694   23812996.1404
        -0.000          -0.000
 -21244154.035 9 -16055544.21947  21921765.345    21921764.9784   21921769.9334
        -0.000          -0.000
 -15568023.632 9 -12121882.59249  19536999.454    19536999.1474   19537003.5254
        -0.000          -0.000
  -8437701.953 9  -6268832.34446  23423803.715    23423803.1284   23423810.0844
        -0.000          -0.000
 -24465596.227 9 -19047265.46847  21258792.032    21258791.5754   21258796.2144
        -0.000          -0.000
  11237111.932 8   8735305.67845  23961773.672    23961773.6894   23961779.7594
        -0.000          -0.000
   8598262.582 9   6703806.63446  22853018.934    22853018.3654   22853025.4634
        -0.000          -0.000
 97  3  3 17 31 59.9980000  0  9  3 19 10 27 18  2 31 29 16         -0.001937664
 -14183512.777 9 -11039419.53546  22614189.815    22614189.5324   22614194.4404
        -0.000          -0.000
 -15910561.826 9 -12381816.89949  20126810.666    20126810.4294   20126815.1154
        -0.000          -0.000
  -7045184.287 8  -4946148.65545  23798970.201    23798969.2274   23798974.4674
        -0.000          -0.000
 -21327902.188 9 -16120802.50947  21905828.674    21905828.2714   21905833.1984
        -0.000          -0.000
 -15573314.143 9 -12126005.08049  19535992.689    19535992.3944   19535996.7704
        -0.000          -0.000
  -8542857.001 9  -6350771.33346  23403793.326    23403792.7424   23403799.6164
        -0.000          -0.000
 -24526708.793 9 -19094885.63347  21247162.723    21247162.2364   21247166.8514
        -0.000          -0.000
  11315091.819 8   8796069.10245  23976612.873    23976612.9354   23976619.0144
        -0.000          -0.000
   8674779.519 9   6763430.17346  22867579.657    22867579.1044   22867586.2304
        -0.000          -0.000
 97  3  3 17 32 29.9980000  0  9  3 19 10 27 18  2 31 29 16         -0.001951842
 -14179381.725 9 -11036200.53746  22614975.926    22614975.6784   22614980.6274
        -0.000          -0.000
 -15947306.231 9 -12410448.91049  20119818.388    20119818.1704   20119822.8874
        -0.000          -0.000
  -7118396.179 8  -5003196.87945  23785038.113    23785037.2224   23785042.9584
        -0.000          -0.000
 -21411561.957 9 -16185991.92347  21889908.675    21889908.3024   21889913.2374
        -0.000          -0.000
 -15578060.234 9 -12129703.34749  19535089.572    19535089.2694   19535093.6224
        -0.000          -0.000
  -8647764.805 9  -6432517.59346  23383829.912    23383829.3724   23383836.4224
        -0.000          -0.000
 -24587280.170 9 -19142084.08948  21235636.344    21235635.8554   21235640.5704
        -0.000          -0.000
  11393278.923 8   8856993.98145  23991491.209    23991491.3774   23991497.8774
        -0.000          -0.000
   8751411.402 9   6823143.24346  22882162.267    22882161.6994   22882168.8624
        -0.000          -0.000
 97  3  3 17 32 59.9980000  0  8  3 19 10 27 18  2 31 16            -0.001965961
 -14174667.674 9 -11032527.25546  22615873.021    22615872.7674   22615877.7244
        -0.000          -0.000
 -15983824.265 9 -12438904.52649  20112869.203    20112868.9914   20112873.7344
        -0.000          -0.000
  -7191107.165 8  -5059854.80745  23771201.532    23771200.6404   23771206.5984
        -0.000          -0.000
 -21495105.137 9 -16251090.48547  21874010.767    21874010.4684   21874015.3964
        -0.000          -0.000
 -15582258.289 9 -12132974.57149  19534290.716    19534290.3924   19534294.7584
        -0.000          -0.000
  -8752405.163 9  -6514055.50946  23363917.704    23363917.0974   23363924.1244
        -0.000          -0.000
 -24647300.161 9 -19188852.89148  21224214.927    21224214.4424   21224219.1934
        -0.000          -0.000
   8828155.831 9   6882944.04846  22896766.336    22896765.7684   22896772.8554
        -0.000          -0.000
 97  3  3 17 33 29.9980000  0  8  3 19 10 27 18  2 31 16            -0.001980088
 -14169378.717 9 -11028405.98346  22616879.411    22616879.1704   22616884.2194
        -0.000          -0.000
 -16020102.635 9 -12467173.39249  20105965.682    20105965.4504   20105970.2244
        -0.000          -0.000
  -7263306.472 8  -5116114.01345  23757462.296    23757461.4634   23757467.7184
        -0.000          -0.000
 -21578523.630 9 -16316091.90247  21858136.767    21858136.4474   21858141.3284
        -0.000          -0.000
 -15585910.838 9 -12135820.72549  19533595.641    19533595.3534   19533599.7384
        -0.000          -0.000
  -8856795.612 9  -6595398.71746  23344052.741    23344052.2094   23344059.0974
        -0.000          -0.000
 -24706773.179 9 -19235195.49248  21212897.560    21212897.0874   21212901.8544
        -0.000          -0.000
   8905008.317 9   6942829.04446  22911391.061    22911390.4254   22911397.4814
        -0.000          -0.000
 97  3  3 17 33 59.9980000  0  8  3 19 10 27 18  2 31 16            -0.001994187
 -14163510.105 9 -11023833.05446  22617996.157    22617995.9374   22618000.9954
        -0.000          -0.000
 -16056149.795 9 -12495262.08949  20099106.077    20099105.8594   20099110.6634
        -0.000          -0.000
  -7334976.030 8  -5171960.41845  23743823.927    23743823.1134   23743829.3264
        -0.000          -0.000
 -21661819.738 9 -16380997.94147  21842286.004    21842285.6504   21842290.5994
        -0.000          -0.000
 -15589020.284 9 -12138243.68249  19533003.898    19533003.6134   19533008.0184
        -0.000          -0.000
  -8960946.296 9  -6676555.08646  23324233.530    23324233.0004   23324239.9134
        -0.000          -0.000
 -24765694.069 9 -19281107.85248  21201685.351    21201684.8194   21201689.6284
        -0.000          -0.000
   8981967.636 9   7002797.29046  22926036.014    22926035.4564   22926042.4974
        -0.000          -0.000
 97  3  3 17 34 29.9980000  0  8  3 19 10 27 18  2 31 16            -0.002008244
 -14157051.316 9 -11018800.24046  22619225.214    22619225.0264   22619230.0444
        -0.000          -0.000
 -16091990.221 9 -12523189.69949  20092285.823    20092285.6404   20092290.4664
        -0.000          -0.000
  -7406106.647 8  -5227386.87345  23730288.235    23730287.5244   23730293.4754
        -0.000          -0.000
 -21744992.777 9 -16445808.07147  21826458.613    21826458.2774   21826463.2144
        -0.000          -0.000
 -15591584.463 9 -12140241.75749  19532515.957    19532515.6814   19532520.0564
        -0.000          -0.000
  -9064853.530 9  -6757521.73946  23304460.760    23304460.1984   23304467.0774
        -0.000          -0.000
 -24824037.161 9 -19326569.99248  21190582.932    21190582.4554   21190587.2154
        -0.000          -0.000
   9059031.625 9   7062847.06046  22940700.805    22940700.2644   22940707.4534
        -0.000          -0.000
 97  3  3 17 34 59.9970000  0  8  3 19 10 27 18  2 31 16            -0.002022270
 -14150026.146 9 -11013326.09946  22620562.155    22620561.8614   22620566.8904
        -0.000          -0.000
 -16127646.294 9 -12550973.65449  20085500.685    20085500.4874   20085505.3254
        -0.000          -0.000
  -7476707.384 8  -5282400.42845  23716853.615    23716852.9144   23716858.4404
        -0.000          -0.000
 -21828041.113 9 -16510521.04047  21810655.005    21810654.6584   21810659.5964
        -0.000          -0.000
 -15593595.868 9 -12141809.09949  19532133.221    19532132.9564   19532137.3054
        -0.000          -0.000
  -9168525.120 9  -6838304.74246  23284732.653    23284732.0454   23284739.0874
        -0.000          -0.000
 -24881787.057 9 -19371569.89447  21179593.439    21179593.0134   21179597.7234
        -0.000          -0.000
   9136187.191 9   7122968.18846  22955383.071    22955382.5594   22955389.7064
        -0.000          -0.000
 97  3  3 17 35 29.9970000  0  8  3 19 10 27 18  2 31 16            -0.002036270
 -14142431.084 9 -11007407.88146  22622007.449    22622007.2004   22622012.2124
        -0.000          -0.000
 -16163124.442 9 -12578618.96649  20078749.396    20078749.2014   20078754.0384
        -0.000          -0.000
  -7546788.118 8  -5337008.78445  23703517.755    23703517.1564   23703522.6734
        -0.000          -0.000
 -21910981.290 9 -16575149.73147  21794871.951    21794871.6744   21794876.5814
        -0.000          -0.000
 -15595052.255 9 -12142943.95949  19531856.124    19531855.8384   19531860.1614
        -0.000          -0.000
  -9271997.269 9  -6918932.39146  23265042.551    23265042.0274   23265048.9264
        -0.000          -0.000
 -24938955.429 9 -19416116.66948  21168714.708    21168714.2444   21168718.8984
        -0.000          -0.000
   9213443.005 9   7183167.47946  22970084.518    22970083.9924   22970090.9444
        -0.000          -0.000
 97  3  3 17 35 59.9970000  0  8  3 19 10 27 18  2 31 16            -0.002050234
 -14134250.258 9 -11001033.20646  22623564.296    22623564.0324   22623569.0014
        -0.000          -0.000
 -16198434.138 9 -12606133.02849  20072030.179    20072029.9834   20072034.8024
        -0.000          -0.000
  -7616349.384 8  -5391212.38845  23690280.814    23690280.1604   23690285.8924
        -0.000          -0.000
 -21993808.152 9 -16639690.14147  21779110.595    21779110.2764   21779115.1234
        -0.000          -0.000
 -15595951.564 9 -12143644.73749  19531684.980    19531684.7064   19531689.0594
        -0.000          -0.000
  -9375250.154 9  -6999389.14546  23245394.274    23245393.5894   23245400.5734
        -0.000          -0.000
 -24995530.242 9 -19460200.92948  21157948.906    21157948.4174   21157953.0204
        -0.000          -0.000
   9290797.625 9   7243443.76146  22984804.603    22984804.1314   22984811.0284
        -0.000          -0.000
 97  3  3 17 36 29.9970000  0  8  3 19 10 27 18  2 31 16            -0.002064165
 -14125489.180 9 -10994206.38746  22625231.445    22625231.2084   22625236.2334
        -0.000          -0.000
 -16233561.994 9 -12633505.38949  20065345.615    20065345.3714   20065350.2084
        -0.000          -0.000
  -7685390.974 8  -5445011.06045  23677142.502    23677141.8564   23677147.8744
        -0.000          -0.000
 -22076521.091 9 -16704141.76447  21763370.855    21763370.5524   21763375.3874
        -0.000          -0.000
 -15596287.211 9 -12143906.29249  19531621.120    19531620.8304   19531625.2024
        -0.000          -0.000
  -9478258.349 9  -7079655.21446  23225792.364    23225791.7394   23225798.8784
        -0.000          -0.000
 -25051499.591 9 -19503813.40048  21147298.260    21147297.7904   21147302.3844
        -0.000          -0.000
   9368246.514 9   7303793.47046  22999542.657    22999542.1584   22999549.1284
        -0.000          -0.000
 97  3  3 17 36 59.9970000  0  8  3 19 10 27 18  2 31 16            -0.002078077
 -14116169.750 9 -10986944.50446  22627004.918    22627004.6414   22627009.7124
        -0.000          -0.000
 -16268489.224 9 -12660721.41649  20058699.229    20058699.0024   20058703.8144
        -0.000          -0.000
  -7753915.816 8  -5498407.05545  23664102.782    23664102.1024   23664108.3294
        -0.000          -0.000
 -22159126.812 9 -16768509.84447  21747651.496    21747651.2144   21747656.0174
        -0.000          -0.000
 -15596061.413 9 -12143730.35849  19531664.101    19531663.8304   19531668.2024
        -0.000          -0.000
  -9581032.423 9  -7159738.88946  23206235.099    23206234.5394   23206241.5274
        -0.000          -0.000
 -25106873.321 9 -19546961.74848  21136760.978    21136760.5254   21136765.1274
        -0.000          -0.000
   9445776.730 9   7364206.54846  23014296.304    23014295.7254   23014302.6964
        -0.000          -0.000
 97  3  3 17 37 29.9970000  0  8  3 19 10 27 18  2 31 16            -0.002091969
 -14106284.477 9 -10979241.69646  22628885.889    22628885.6484   22628890.7674
        -0.000          -0.000
 -16303195.080 9 -12687764.94449  20052094.916    20052094.6944   20052099.4784
        -0.000          -0.000
  -7821921.832 9  -5551398.75445  23651161.865    23651161.1124   23651167.2644
        -0.000          -0.000
 -22241630.201 9 -16832798.18147  21731951.709    21731951.4034   21731956.1984
        -0.000          -0.000
 -15595274.037 9 -12143116.83349  19531813.970    19531813.6974   19531818.0724
        -0.000          -0.000
  -9683563.300 9  -7239633.03746  23186724.014    23186723.4754   23186730.4534
        -0.000          -0.000
 -25161657.166 9 -19589650.44648  21126335.954    21126335.4734   21126340.1404
        -0.000          -0.000
   9523392.545 9   7424686.31546  23029066.122    23029065.5594   23029072.5284
        -0.000          -0.000
 97  3  3 17 37 59.9970000  0  8  3 19 10 27 18  2 31 16            -0.002105844
 -14095849.056 9 -10971110.21746  22630871.777    22630871.5644   22630876.5304
        -0.000          -0.000
 -16337690.022 9 -12714644.12049  20045530.801    20045530.5684   20045535.3254
        -0.000          -0.000
  -7889417.167 9  -5603992.49846  23638318.211    23638317.4734   23638323.2254
        -0.000          -0.000
 -22324035.142 9 -16897009.80847  21716270.610    21716270.2594   21716275.0634
        -0.000          -0.000
 -15593919.330 9 -12142061.23149  19532071.805    19532071.4984   19532075.8484
        -0.000          -0.000
  -9785828.701 9  -7319320.29746  23167263.518    23167262.9674   23167270.0864
        -0.000          -0.000
 -25215838.138 9 -19631869.37548  21116025.566    21116025.1104   21116029.8304
        -0.000          -0.000
   9601091.343 9   7485230.74446  23043851.786    23043851.1944   23043858.1354
        -0.000          -0.000
 97  3  3 17 38 29.9970000  0  8  3 19 10 27 18  2 31 16            -0.002119713
 -14084876.011 9 -10962559.80646  22632959.870    22632959.6294   22632964.5684
        -0.000          -0.000
 -16371972.039 9 -12741357.38049  20039007.156    20039006.9244   20039011.6704
        -0.000          -0.000
  -7956409.224 9  -5656194.08745  23625570.167    23625569.4484   23625574.9474
        -0.000          -0.000
 -22406350.893 9 -16961151.94047  21700606.455    21700606.1234   21700610.9564
        -0.000          -0.000
 -15592000.243 9 -12140565.85149  19532437.011    19532436.7054   19532441.0294
        -0.000          -0.000
  -9887836.830 9  -7398807.11646  23147852.111    23147851.4264   23147858.5234
        -0.000          -0.000
 -25269426.679 9 -19673626.66248  21105828.049    21105827.5704   21105832.2984
        -0.000          -0.000
   9678858.776 9   7545828.71646  23058650.522    23058649.8694   23058656.7274
        -0.000          -0.000
 97  3  3 17 38 59.9970000  0  8  3 19 10 27 18  2 31 16            -0.002133576
 -14073358.463 9 -10953585.10346  22635151.593    22635151.3714   22635156.3844
        -0.000          -0.000
 -16406051.135 9 -12767912.52149  20032522.149    20032521.9244   20032526.6304
        -0.000          -0.000
  -8022907.444 8  -5708010.89445  23612915.841    23612915.2094   23612920.5994
        -0.000          -0.000
 -22488579.056 9 -17025225.81347  21684958.918    21684958.5564   21684963.4794
        -0.000          -0.000
 -15589524.651 9 -12138636.83449  19532908.134    19532907.8094   19532912.1304
        -0.000          -0.000
  -9989604.571 9  -7478106.63546  23128486.312    23128485.7024   23128492.6524
        -0.000          -0.000
 -25322434.369 9 -19714931.34348  21095741.027    21095740.5834   21095745.2714
        -0.000          -0.000
   9756698.637 9   7606483.09946  23073462.842    23073462.2354   23073469.2344
        -0.000          -0.000
 97  3  3 17 39 29.9970000  0  8  3 19 10 27 18  2 31 16            -0.002147405
 -14061249.034 9 -10944149.17046  22637455.887    22637455.6764   22637460.8654
        -0.000          -0.000
 -16439905.189 9 -12794292.30649  20026079.985    20026079.7434   20026084.4234
        -0.000          -0.000
  -8088894.344 8  -5759429.25445  23600358.592    23600357.9934   23600363.6834
        -0.000          -0.000
 -22570701.140 9 -17089217.03847  21669331.506    21669331.1654   21669336.1644
        -0.000          -0.000
 -15586481.621 9 -12136265.65749  19533487.181    19533486.8784   19533491.2264
        -0.000          -0.000
 -10091101.698 9  -7557195.25846  23109172.157    23109171.4844   23109178.3764
        -0.000          -0.000
 -25374846.497 9 -19755771.94648  21085767.342    21085766.8774   21085771.5734
        -0.000          -0.000
   9834648.135 9   7667222.90046  23088296.093    23088295.4864   23088302.4994
        -0.000          -0.000
 97  3  3 17 39 59.9970000  0  8  3 19 10 27 18  2 31 16            -0.002161199
 -14048556.724 9 -10934259.05946  22639871.133    22639870.9634   22639876.2924
        -0.000          -0.000
 -16473556.179 9 -12820513.86149  20019676.438    20019676.2164   20019680.8604
        -0.000          -0.000
  -8154380.090 8  -5810457.12246  23587897.034    23587896.4094   23587902.3844
        -0.000          -0.000
 -22652734.777 9 -17153139.33447  21653720.889    21653720.5514   21653725.6634
        -0.000          -0.000
 -15582896.292 9 -12133471.90649  19534169.417    19534169.1364   19534173.4844
        -0.000          -0.000
 -10192333.700 9  -7636077.29746  23089908.235    23089907.5514   23089914.5504
        -0.000          -0.000
 -25426672.017 9 -19796155.45948  21075905.307    21075904.8454   21075909.5024
        -0.000          -0.000
   9912688.466 9   7728033.46246  23103146.773    23103146.1454   23103153.2664
        -0.000          -0.000
 97  3  3 17 40 29.9970000  0  8  3 19 10 27 18  2 31 16            -0.002174961
 -14035279.458 9 -10923913.15046  22642397.739    22642397.5544   22642402.9324
        -0.000          -0.000
 -16506985.508 9 -12846562.69149  20013315.061    20013314.8204   20013319.4464
        -0.000          -0.000
  -8219353.257 9  -5861085.56146  23575533.127    23575532.3994   23575538.5474
        -0.000          -0.000
 -22734679.510 9 -17216992.35947  21638127.257    21638126.9364   21638132.0234
        -0.000          -0.000
 -15578774.259 9 -12130259.94449  19534953.812    19534953.5334   19534957.8934
        -0.000          -0.000
 -10293317.590 9  -7714766.01446  23070691.447    23070690.8844   23070697.8564
        -0.000          -0.000
 -25477919.142 9 -19836088.27448  21066153.275    21066152.7864   21066157.4684
        -0.000          -0.000
   9990814.972 9   7788911.16846  23118013.901    23118013.2034   23118020.3324
        -0.000          -0.000
 97  3  3 17 40 59.9970000  0  8  3 19 10 27 18  2 31 16            -0.002188681
 -14021410.962 9 -10913106.54346  22645036.873    22645036.6784   22645041.9524
        -0.000          -0.000
 -16540179.685 9 -12872428.28549  20006998.463    20006998.2234   20007002.8494
        -0.000          -0.000
  -8283784.876 9  -5911292.02446  23563272.394    23563271.5864   23563277.7494
        -0.000          -0.000
 -22816524.263 9 -17280767.47247  21622552.625    21622552.3584   21622557.4624
        -0.000          -0.000
 -15574096.568 9 -12126615.00249  19535844.034    19535843.7374   19535848.0544
        -0.000          -0.000
 -10394045.676 9  -7793255.38946  23051523.635    23051522.9324   23051530.0054
        -0.000          -0.000
 -25528573.715 9 -19875559.36348  21056514.011    21056513.5194   21056518.1844
        -0.000          -0.000
  10069039.467 9   7849865.24946  23132899.546    23132898.9584   23132906.0374
        -0.000          -0.000
 97  3  3 17 41 29.9970000  0  8  3 19 10 27 18  2 31 16            -0.002202375
 -14006974.840 9 -10901857.62946  22647783.970    22647783.7864   22647789.0074
        -0.000          -0.000
 -16573140.979 9 -12898112.41249  20000726.140    20000725.9164   20000730.5414
        -0.000          -0.000
  -8347676.186 9  -5961077.45246  23551114.404    23551113.5634   23551119.7014
        -0.000          -0.000
 -22898275.361 9 -17344469.61147  21606995.894    21606995.6084   21607000.6884
        -0.000          -0.000
 -15568870.251 9 -12122542.55949  19536838.556    19536838.2784   19536842.6064
        -0.000          -0.000
 -10494525.410 9  -7871551.21946  23032402.853    23032402.2604   23032409.3624
        -0.000          -0.000
 -25578647.205 9 -19914577.65048  21046985.336    21046984.8554   21046989.5414
        -0.000          -0.000
  10147327.837 9   7910869.09646  23147797.426    23147796.7734   23147803.9064
        -0.000          -0.000
 97  3  3 17 41 59.9970000  0  8  3 19 10 27 18  2 31 16            -0.002216049
 -13991986.447 9 -10890178.37646  22650636.207    22650635.9114   22650641.0874
        -0.000          -0.000
 -16605873.326 9 -12923618.13849  19994497.387    19994497.1484   19994501.7834
        -0.000          -0.000
  -8411012.056 9  -6010430.09146  23539061.970    23539061.0674   23539067.1304
        -0.000          -0.000
 -22979904.031 9 -17408076.35047  21591462.498    21591462.1924   21591467.2414
        -0.000          -0.000
 -15563073.865 9 -12118025.91449  19537941.583    19537941.2854   19537945.6274
        -0.000          -0.000
 -10594753.060 9  -7949650.67446  23013330.259    23013329.6934   23013336.5604
        -0.000          -0.000
 -25628113.057 9 -19953122.45448  21037572.295    21037571.8224   21037576.4834
        -0.000          -0.000
  10225667.280 9   7971912.75346  23162705.053    23162704.3234   23162711.4684
        -0.000          -0.000
 97  3  3 17 42 29.9970000  0  8  3 19 10 27 18  2 31 16            -0.002229708
 -13976455.107 9 -10878076.03746  22653591.671    22653591.4854   22653596.6094
        -0.000          -0.000
 -16638368.577 9 -12948939.11549  19988313.661    19988313.4494   19988318.1174
        -0.000          -0.000
  -8473786.985 9  -6059345.63446  23527116.297    23527115.4274   23527121.3164
        -0.000          -0.000
 -23061396.561 9 -17471577.01247  21575955.024    21575954.7174   21575959.6874
        -0.000          -0.000
 -15556700.455 9 -12113059.63549  19539154.399    19539154.1054   19539158.4934
        -0.000          -0.000
 -10694741.109 9  -8027563.38646  22994303.335    22994302.6564   22994309.4854
        -0.000          -0.000
 -25676964.980 9 -19991188.87648  21028276.011    21028275.5784   21028280.2674
        -0.000          -0.000
  10304052.754 9   8032992.28446  23177621.318    23177620.7074   23177627.7204
        -0.000          -0.000
 97  3  3 17 42 59.9970000  0  8  3 19 10 27 18  2 31 16            -0.002243350
 -13960375.675 9 -10865546.62246  22656651.508    22656651.2874   22656656.4114
        -0.000          -0.000
 -16670641.717 9 -12974087.02249  19982172.314    19982172.1004   19982176.7944
        -0.000          -0.000
  -8536013.555 9  -6107833.88146  23515274.927    23515274.1344   23515279.8604
        -0.000          -0.000
 -23142759.437 9 -17534976.65547  21560472.261    21560471.9464   21560476.7874
        -0.000          -0.000
 -15549766.307 9 -12107656.42649  19540473.889    19540473.5924   19540478.0084
        -0.000          -0.000
 -10794477.737 9  -8105280.18946  22975324.103    22975323.4544   22975330.1804
        -0.000          -0.000
 -25725206.249 9 -20028779.46848  21019096.040    21019095.5934   21019100.2184
        -0.000          -0.000
  10382476.157 9   8094101.37346  23192544.957    23192544.3654   23192551.2574
        -0.000          -0.000
 97  3  3 17 43 29.9970000  0  8  3 19 10 27 18  2 31 16            -0.002256978
 -13943753.854 9 -10852594.56746  22659814.519    22659814.3674   22659819.4184
        -0.000          -0.000
 -16702700.508 9 -12999067.90449  19976071.710    19976071.4844   19976076.2204
        -0.000          -0.000
  -8597715.934 9  -6155913.66646  23503533.485    23503532.6734   23503538.3114
        -0.000          -0.000
 -23224007.670 9 -17598286.94447  21545011.335    21545010.9694   21545015.6964
        -0.000          -0.000
 -15542294.914 9 -12101834.58049  19541895.685    19541895.3974   19541899.8114
        -0.000          -0.000
 -10893973.208 9  -8182809.11546  22956390.739    22956390.0424   22956396.6754
        -0.000          -0.000
 -25772845.073 9 -20065900.62148  21010030.690    21010030.2284   21010034.8104
        -0.000          -0.000
  10460929.857 9   8155234.05346  23207474.336    23207473.7304   23207480.6714
        -0.000          -0.000
 97  3  3 17 43 59.9970000  0  8  3 19 10 27 18  2 31 16            -0.002270584
 -13926577.825 9 -10839210.65446  22663083.064    22663082.8644   22663087.9014
        -0.000          -0.000
 -16734539.011 9 -13023877.13249  19970013.003    19970012.8284   19970017.6084
        -0.000          -0.000
  -8658886.061 9  -6203578.71046  23491893.270    23491892.5114   23491898.1184
        -0.000          -0.000
 -23305152.667 9 -17661516.81047  21529569.948    21529569.6194   21529574.2534
        -0.000          -0.000
 -15534275.432 9 -12095585.65049  19543421.727    19543421.4514   19543425.8614
        -0.000          -0.000
 -10993217.519 9  -8260142.28746  22937505.084    22937504.4264   22937511.0654
        -0.000          -0.000
 -25819865.470 9 -20102539.87848  21001082.981    21001082.5234   21001087.1124
        -0.000          -0.000
  10539426.185 9   8216399.96146  23222411.705    23222411.1394   23222418.0844
        -0.000          -0.000
 97  3  3 17 44 29.9970000  0  8  3 19 10 27 18  2 31 16            -0.002284180
 -13908861.797 9 -10825405.96046  22666454.284    22666454.0804   22666459.1204
        -0.000          -0.000
 -16766165.691 9 -13048521.30749  19963994.644    19963994.4444   19963999.2424
        -0.000          -0.000
  -8719557.839 9  -6250855.42446  23480347.888    23480347.0344   23480352.7654
        -0.000          -0.000
 -23386237.060 9 -17724699.44847  21514140.134    21514139.7914   21514144.3704
        -0.000          -0.000
 -15525731.422 9 -12088928.00049  19545047.611    19545047.3454   19545051.7424
        -0.000          -0.000
 -11092214.076 9  -8337282.45146  22918666.686    22918666.0784   22918672.6634
        -0.000          -0.000
 -25866306.228 9 -20138727.47348  20992245.615    20992245.1214   20992249.7314
        -0.000          -0.000
  10617948.747 9   8277586.27646  23237354.178    23237353.5754   23237360.5134
        -0.000          -0.000
 97  3  3 17 44 59.9970000  0  8  3 19 10 27 18  2 31 16            -0.002297760
 -13890592.297 9 -10811170.00946  22669930.865    22669930.6744   22669935.5974
        -0.000          -0.000
 -16797576.738 9 -13072997.45349  19958017.319    19958017.1124   19958021.9374
        -0.000          -0.000
  -8779729.060 9  -6297742.11246  23468897.500    23468896.6514   23468902.6364
        -0.000          -0.000
 -23467251.559 9 -17787827.62447  21498723.681    21498723.3234   21498727.8164
        -0.000          -0.000
 -15516658.098 9 -12081857.89149  19546774.266    19546773.9904   19546778.3804
        -0.000          -0.000
 -11190941.706 9  -8414213.03246  22899879.298    22899878.6944   22899885.3034
        -0.000          -0.000
 -25912166.203 9 -20174462.50848  20983518.790    20983518.2634   20983522.8994
        -0.000          -0.000
  10696507.376 9   8338800.71246  23252303.461    23252302.9154   23252309.7704
        -0.000          -0.000
 97  3  3 17 45 29.9970000  0  8  3 19 10 27 18  2 31 16            -0.002311327
 -13871781.444 9 -10796512.22346  22673510.488    22673510.1954   22673515.1514
        -0.000          -0.000
 -16828776.968 9 -13097309.32949  19952080.091    19952079.8734   19952084.7384
        -0.000          -0.000
  -8839388.583 9  -6344230.06346  23457544.602    23457543.6904   23457549.7494
        -0.000          -0.000
 -23548184.993 9 -17850892.62847  21483322.558    21483322.1764   21483326.7434
        -0.000          -0.000
 -15507032.641 9 -12074357.54949  19548605.952    19548605.6824   19548610.0754
        -0.000          -0.000
 -11289400.135 9  -8490933.84747  22881143.295    22881142.6754   22881149.2974
        -0.000          -0.000
 -25957441.740 9 -20209742.13848  20974903.104    20974902.6174   20974907.2784
        -0.000          -0.000
  10775100.998 9   8400042.42446  23267259.516    23267258.8924   23267265.8134
        -0.000          -0.000
 97  3  3 17 45 59.9970000  0  8  3 19 10 27 18  2 31 16            -0.002324887
 -13852443.069 9 -10781443.38046  22677190.520    22677190.2184   22677195.1074
        -0.000          -0.000
 -16859788.146 9 -13121473.89149  19946178.835    19946178.6484   19946183.5244
        -0.000          -0.000
  -8898535.885 9  -6390318.87946  23446289.304    23446288.4424   23446294.1744
        -0.000          -0.000
 -23629014.815 9 -17913876.88747  21467941.110    21467940.7444   21467945.3564
        -0.000          -0.000
 -15496851.236 9 -12066424.00349  19550543.375    19550543.1214   19550547.5584
        -0.000          -0.000
 -11387586.032 9  -8567442.29246  22862459.075    22862458.5104   22862465.0814
        -0.000          -0.000
 -26002140.602 9 -20244572.41348  20966397.232    20966396.7454   20966401.3654
        -0.000          -0.000
  10853717.562 9   8461301.99746  23282219.842    23282219.2354   23282226.2434
        -0.000          -0.000
 97  3  3 17 46 29.9970000  0  8  3 19 10 27 18  2 31 16            -0.002338431
 -13832569.146 9 -10765957.23246  22680972.427    22680972.1204   22680977.0624
        -0.000          -0.000
 -16890599.956 9 -13145483.09649  19940315.537    19940315.3274   19940320.2204
        -0.000          -0.000
  -8957152.282 9  -6435993.99146  23435135.141    23435134.2934   23435139.6784
        -0.000          -0.000
 -23709705.272 9 -17976752.55947  21452586.218    21452585.8544   21452590.4854
        -0.000          -0.000
 -15486103.568 9 -12058049.20949  19552588.615    19552588.3254   19552592.7344
        -0.000          -0.000
 -11485481.953 9  -8643724.81847  22843830.211    22843829.6164   22843836.0104
        -0.000          -0.000
 -26046253.534 9 -20278946.11548  20958002.793    20958002.3374   20958006.9474
        -0.000          -0.000
  10932370.220 9   8522589.73046  23297186.877    23297186.2844   23297193.4154
        -0.000          -0.000
 97  3  3 17 46 59.9970000  0  8  3 19 10 27 18  2 31 16            -0.002351955
 -13812166.163 9 -10750058.82046  22684854.970    22684854.7024   22684859.7284
        -0.000          -0.000
 -16921223.434 9 -13169345.55449  19934488.104    19934487.9214   19934492.7974
        -0.000          -0.000
  -9015214.933 9  -6481237.60746  23424086.351    23424085.5734   23424090.7624
        -0.000          -0.000
 -23790250.477 9 -18039515.04547  21437258.940    21437258.6054   21437263.3024
        -0.000          -0.000
 -15474794.043 9 -12049236.60849  19554740.742    19554740.4654   19554744.8424
        -0.000          -0.000
 -11583114.946 9  -8719802.43247  22825251.320    22825250.6684   22825257.0314
        -0.000          -0.000
 -26089768.753 9 -20312854.07648  20949722.106    20949721.6504   20949726.2464
        -0.000          -0.000
  11011050.054 9   8583898.55746  23312159.157    23312158.4494   23312165.8484
        -0.000          -0.000
 97  3  3 17 47 29.9970000  0  8  3 19 10 27 18  2 31 16            -0.002365462
 -13791239.957 9 -10733752.69746  22688837.167    22688836.8654   22688841.9794
        -0.000          -0.000
 -16951657.454 9 -13193060.37249  19928696.731    19928696.5304   19928701.3894
        -0.000          -0.000
  -9072725.293 9  -6526050.89646  23413142.446    23413141.6794   23413147.0674
        -0.000          -0.000
 -23870665.716 9 -18102176.25147  21421956.336    21421955.9894   21421960.8044
        -0.000          -0.000
 -15462921.695 9 -12039985.44849  19557000.013    19556999.7414   19557004.0964
        -0.000          -0.000
 -11680491.737 9  -8795680.42747  22806720.991    22806720.4164   22806726.7634
        -0.000          -0.000
 -26132673.940 9 -20346286.68348  20941557.438    20941557.0224   20941561.6664
        -0.000          -0.000
  11089753.988 9   8645226.19146  23327136.068    23327135.3504   23327142.8454
        -0.000          -0.000
 97  3  3 17 47 59.9970000  0  8  3 19 10 27 18  2 31 16            -0.002378951
 -13769784.023 9 -10717033.79446  22692919.984    22692919.6384   22692924.9944
        -0.000          -0.000
 -16981883.606 9 -13216613.22549  19922944.911    19922944.7024   19922949.5164
        -0.000          -0.000
  -9129690.250 9  -6570439.19246  23402302.219    23402301.4544   23402307.2404
        -0.000          -0.000
 -23950960.162 9 -18164743.33447  21406676.725    21406676.3964   21406681.3064
        -0.000          -0.000
 -15450500.705 9 -12030306.77349  19559363.667    19559363.3944   19559367.7974
        -0.000          -0.000
 -11777614.430 9  -8871360.40847  22788239.101    22788238.5014   22788244.9284
        -0.000          -0.000
 -26174951.707 9 -20379230.39448  20933512.265    20933511.8314   20933516.3954
        -0.000          -0.000
  11168475.536 9   8706567.54346  23342116.350    23342115.5204   23342123.1234
        -0.000          -0.000
 97  3  3 17 48 29.9970000  0  8  3 19 10 27 18  2 31 16            -0.002392417
 -13747784.789 9 -10699891.56046  22697106.279    22697105.9604   22697111.3094
        -0.000          -0.000
 -17011875.632 9 -13239983.63349  19917237.658    19917237.4534   19917242.2144
        -0.000          -0.000
  -9186111.725 9  -6614404.00946  23391565.417    23391564.6474   23391570.6854
        -0.000          -0.000
 -24031157.777 9 -18227234.95947  21391415.551    21391415.2414   21391420.2674
        -0.000          -0.000
 -15437527.829 9 -12020198.05849  19561832.312    19561832.0554   19561836.4734
        -0.000          -0.000
 -11874486.590 9  -8946845.17147  22769804.844    22769804.2824   22769810.7924
        -0.000          -0.000
 -26216580.659 9 -20411668.53248  20925590.458    20925590.0854   20925594.6494
        -0.000          -0.000
  11247220.409 9   8767927.08345  23357100.868    23357100.2164   23357107.8124
        -0.000          -0.000
 97  3  3 17 48 59.9970000  0  8  3 19 10 27 18  2 31 16            -0.002405863
 -13725245.139 9 -10682328.22846  22701395.405    22701395.1514   22701400.4184
        -0.000          -0.000
 -17041634.152 9 -13263172.09149  19911574.779    19911574.5744   19911579.3184
        -0.000          -0.000
  -9242007.616 9  -6657959.26446  23380928.739    23380927.9614   23380934.0404
        -0.000          -0.000
 -24111279.409 9 -18289667.38048  21376168.912    21376168.5664   21376173.6464
        -0.000          -0.000
 -15424014.908 9 -12009668.52949  19564403.744    19564403.4754   19564407.9364
        -0.000          -0.000
 -11971126.442 9  -9022148.92347  22751414.888    22751414.3344   22751420.7454
        -0.000          -0.000
 -26257560.385 9 -20443600.77748  20917792.323    20917791.9344   20917796.4944
        -0.000          -0.000
  11325992.802 9   8829308.07245  23372090.650    23372090.0484   23372097.6114
        -0.000          -0.000
 97  3  3 17 49 29.9970000  0  8  3 19 10 27 18  2 31 16            -0.002419291
 -13702160.551 9 -10664340.27546  22705788.293    22705788.0804   22705793.2714
        -0.000          -0.000
 -17071149.600 9 -13286171.14449  19905958.173    19905958.0224   19905962.7284
        -0.000          -0.000
  -9297390.909 9  -6701115.05446  23370389.795    23370389.0264   23370394.8194
        -0.000          -0.000
 -24191325.708 9 -18352041.10448  21360936.543    21360936.2424   21360941.3514
        -0.000          -0.000
 -15409954.273 9 -11998712.20949  19567079.400    19567079.1434   19567083.6294
        -0.000          -0.000
 -12067522.247 9  -9097262.49747  22733071.219    22733070.6734   22733077.2494
        -0.000          -0.000
 -26297893.739 9 -20475029.36148  20910117.213    20910116.8174   20910121.3614
        -0.000          -0.000
  11404787.166 9   8890706.20545  23387084.807    23387084.2494   23387091.8734
        -0.000          -0.000
 97  3  3 17 49 59.9970000  0  8  3 19 10 27 18  2 31 16            -0.002432703
 -13678517.628 9 -10645917.22146  22710287.348    22710287.2054   22710292.4914
        -0.000          -0.000
 -17100418.384 9 -13308977.98849  19900388.521    19900388.3484   19900393.0314
        -0.000          -0.000
  -9352251.168 9  -6743863.31246  23359950.477    23359949.6534   23359955.2064
        -0.000          -0.000
 -24271279.963 9 -18414343.10248  21345721.779    21345721.4754   21345726.5804
        -0.000          -0.000
 -15395330.323 9 -11987316.94449  19569862.261    19569862.0364   19569866.5244
        -0.000          -0.000
 -12163670.981 9  -9172183.54747  22714774.688    22714774.1304   22714780.7534
        -0.000          -0.000
 -26337587.950 9 -20505959.91148  20902563.670    20902563.2564   20902567.7914
        -0.000          -0.000
  11483597.019 8   8952116.37045  23402081.946    23402081.2474   23402088.9294
        -0.000          -0.000
 97  3  3 17 50 29.9970000  0  8  3 19 10 27 18  2 31 16            -0.002446100
 -13654327.351 9 -10627067.68246  22714890.558    22714890.4284   22714895.8464
        -0.000          -0.000
 -17129455.343 9 -13331604.19249  19894862.986    19894862.8034   19894867.4944
        -0.000          -0.000
  -9406584.086 9  -6786200.64746  23349611.303    23349610.3324   23349615.9924
        -0.000          -0.000
 -24351142.528 9 -18476573.66348  21330524.447    21330524.1764   21330529.1504
        -0.000          -0.000
 -15380143.522 9 -11975483.09149  19572752.214    19572751.9964   19572756.4724
        -0.000          -0.000
 -12259575.249 9  -9246914.10447  22696524.605    22696524.0044   22696530.7064
        -0.000          -0.000
 -26376660.418 9 -20536405.98048  20895128.391    20895127.9644   20895132.5354
        -0.000          -0.000
  11562417.583 8   9013534.89945  23417081.000    23417080.3924   23417088.0134
        -0.000          -0.000
 97  3  3 17 50 59.9970000  0  8  3 19 10 27 18  2 31 16            -0.002459478
 -13629591.856 9 -10607793.27946  22719597.617    22719597.4794   22719602.8164
        -0.000          -0.000
 -17158270.723 9 -13354057.73649  19889379.583    19889379.3994   19889384.0934
        -0.000          -0.000
  -9460375.806 9  -6828116.28246  23339374.989    23339373.9384   23339379.9214
        -0.000          -0.000
 -24430901.688 9 -18538723.64848  21315346.789    21315346.5034   21315351.4024
        -0.000          -0.000
 -15364402.395 9 -11963217.29449  19575747.663    19575747.4424   19575751.9224
        -0.000          -0.000
 -12355225.163 9  -9321446.47647  22678323.013    22678322.4644   22678329.1424
        -0.000          -0.000
 -26415118.830 9 -20566373.56348  20887809.983    20887809.5704   20887814.1464
        -0.000          -0.000
  11641235.931 8   9074951.64745  23432079.678    23432078.9484   23432086.8144
        -0.000          -0.000
